[[{"header":{"parameterUnit":"m.s-1","parameterCategory":1,"la1":30.6,"la2":29.2853,"lo1":-89.7004,"lo2":-87.6739,"dy":0.0162,"dx":0.0183,"nx":112,"ny":82,"refTime":"2026-03-01T00:00:00:Z","depth":0,"parameterNumber":2,"parameterNumberName":"U-component_of_WINDS"},"data":[0.0,0.0,0.0,0.0,0.0,0.0,0.0,0.0,0.0,0.0,0.0,0.0,0.0,0.0,0.0,0.0,0.0,0.0,0.0,0.0,0.0,0.0,0.0,0.0,0.0,0.0,0.0,0.0,0.0,0.0,0.0,0.0,0.0,0.0,0.0,0.0,0.0,0.0,0.0,0.0,0.0,0.0,0.0,0.0,0.0,0.0,0.0,0.0,0.0,0.0,0.0,0.0,0.0,0.0,0.0,0.0,0.0,0.0,0.0,0.0,0.0,0.0,0.0,0.0,0.0,0.0,0.0,0.0,0.0,0.0,0.0,0.0,0.0,0.0,0.0,0.0,0.0,0.0,0.0,0.0,0.0,0.0,0.0,0.0,0.0,0.0,0.0,0.0,0.0,0.0,-0.9565,-1.0267,-1.1893,-1.2734,-1.234,-1.2184,-1.1424,-0.9815,0.0,0.0,0.0,0.0,0.0,0.0,0.0,0.0,0.0,0.0,0.0,0.0,0.0,0.0,0.0,0.0,0.0,0.0,0.0,0.0,0.0,0.0,0.0,0.0,0.0,0.0,0.0,0.0,0.0,0.0,0.0,0.0,0.0,0.0,0.0,0.0,0.0,0.0,0.0,0.0,0.0,0.0,0.0,0.0,0.0,0.0,0.0,0.0,0.0,0.0,0.0,0.0,0.0,0.0,0.0,0.0,0.0,0.0,0.0,0.0,0.0,0.0,0.0,0.0,0.0,0.0,0.0,0.0,0.0,0.0,0.0,0.0,0.0,0.0,0.0,0.0,0.0,0.0,0.0,0.0,0.0,0.0,0.0,0.0,0.0,0.0,0.0,0.0,0.0,0.0,0.0,0.0,0.0,0.0,0.0,0.0,0.0,0.0,0.0,0.0,0.0,0.0,0.0,0.0,-0.9594,-1.1648,-1.2484,-1.2876,-1.2807,-1.2113,-1.1261,-1.0263,0.0,0.0,0.0,0.0,0.0,0.0,0.0,0.0,0.0,0.0,0.0,0.0,0.0,0.0,0.0,0.0,0.0,0.0,0.0,0.0,0.0,0.0,0.0,0.0,0.0,0.0,0.0,0.0,0.0,0.0,0.0,0.0,0.0,0.0,0.0,0.0,0.0,0.0,0.0,0.0,0.0,0.0,0.0,0.0,0.0,0.0,0.0,0.0,0.0,0.0,0.0,0.0,0.0,0.0,0.0,0.0,0.0,0.0,0.0,0.0,0.0,0.0,0.0,0.0,0.0,0.0,0.0,0.0,0.0,0.0,0.0,0.0,0.0,0.0,0.0,0.0,0.0,0.0,0.0,0.0,0.0,0.0,0.0,0.0,0.0,0.0,0.0,0.0,0.0,0.0,0.0,0.0,0.0,0.0,0.0,0.0,0.0,0.0,0.0,0.0,0.0,0.0,0.0,-0.9695,-1.034,-1.2353,-1.2764,-1.2905,-1.2905,-1.2295,-1.1455,-1.0371,-0.9099,0.0,0.0,0.0,0.0,0.0,0.0,0.0,0.0,0.0,0.0,0.0,0.0,0.0,0.0,0.0,0.0,0.0,0.0,0.0,0.0,0.0,0.0,0.0,0.0,0.0,0.0,0.0,0.0,0.0,0.0,0.0,0.0,0.0,0.0,0.0,0.0,0.0,0.0,0.0,0.0,0.0,0.0,0.0,0.0,0.0,0.0,0.0,0.0,0.0,0.0,0.0,0.0,0.0,0.0,0.0,0.0,0.0,0.0,0.0,0.0,0.0,0.0,0.0,0.0,0.0,0.0,0.0,0.0,0.0,0.0,0.0,0.0,0.0,0.0,0.0,0.0,0.0,0.0,0.0,0.0,0.0,0.0,0.0,0.0,0.0,0.0,0.0,0.0,0.0,0.0,0.0,0.0,0.0,0.0,0.0,0.0,0.0,0.0,0.0,0.0,0.0,0.0,-1.0785,-1.1193,-1.2739,-1.2905,-1.2905,-1.2905,-1.2285,-1.1433,-1.0371,-0.8913,0.0,0.0,0.0,0.0,0.0,0.0,0.0,0.0,0.0,0.0,0.0,0.0,0.0,0.0,0.0,0.0,0.0,0.0,0.0,0.0,0.0,0.0,0.0,0.0,0.0,0.0,0.0,0.0,0.0,0.0,0.0,0.0,0.0,0.0,0.0,0.0,0.0,0.0,0.0,0.0,0.0,0.0,0.0,0.0,0.0,0.0,0.0,0.0,0.0,0.0,0.0,0.0,0.0,0.0,0.0,0.0,0.0,0.0,0.0,0.0,0.0,0.0,0.0,0.0,0.0,0.0,0.0,0.0,0.0,0.0,0.0,0.0,0.0,0.0,0.0,0.0,0.0,0.0,0.0,0.0,0.0,0.0,0.0,0.0,0.0,0.0,0.0,0.0,0.0,0.0,0.0,0.0,0.0,0.0,0.0,0.0,0.0,0.0,0.0,0.0,0.0,0.0,-1.0762,-1.1881,-1.2798,-1.2905,-1.2905,-1.2905,-1.1728,-1.0791,-1.0332,-0.834,0.0,0.0,0.0,0.0,0.0,0.0,0.0,0.0,0.0,0.0,0.0,0.0,0.0,0.0,0.0,0.0,0.0,0.0,0.0,0.0,0.0,0.0,0.0,0.0,0.0,0.0,0.0,0.0,0.0,0.0,0.0,0.0,0.0,0.0,0.0,0.0,0.0,0.0,0.0,0.0,0.0,0.0,0.0,0.0,0.0,0.0,0.0,0.0,0.0,0.0,0.0,0.0,0.0,0.0,0.0,0.0,0.0,0.0,0.0,0.0,0.0,0.0,0.0,0.0,0.0,0.0,0.0,0.0,0.0,0.0,0.0,0.0,0.0,0.0,0.0,0.0,0.0,0.0,0.0,0.0,0.0,0.0,0.0,0.0,0.0,0.0,0.0,0.0,0.0,0.0,0.0,0.0,0.0,0.0,0.0,0.0,0.0,0.0,0.0,0.0,0.0,0.0,-1.1083,-1.1917,-1.2817,-1.2905,-1.2905,-1.2905,-1.2178,-1.1318,-1.0361,0.0,0.0,0.0,0.0,0.0,0.0,0.0,0.0,0.0,0.0,0.0,0.0,0.0,0.0,0.0,0.0,0.0,0.0,0.0,0.0,0.0,0.0,0.0,0.0,0.0,0.0,0.0,0.0,0.0,0.0,0.0,0.0,0.0,0.0,0.0,0.0,0.0,0.0,0.0,0.0,0.0,0.0,0.0,0.0,0.0,0.0,0.0,0.0,0.0,0.0,0.0,0.0,0.0,0.0,0.0,0.0,0.0,0.0,0.0,0.0,0.0,0.0,0.0,0.0,0.0,0.0,0.0,0.0,0.0,0.0,0.0,0.0,0.0,0.0,0.0,0.0,0.0,0.0,0.0,0.0,0.0,0.0,0.0,0.0,0.0,0.0,0.0,0.0,0.0,0.0,0.0,0.0,0.0,0.0,0.0,0.0,0.0,0.0,0.0,0.0,0.0,0.0,-1.0445,-1.1311,-1.2083,-1.2827,-1.2905,-1.2905,-1.2905,-1.2227,-1.1297,-1.0146,0.0,0.0,0.0,0.0,0.0,0.0,0.0,0.0,0.0,0.0,0.0,0.0,0.0,0.0,0.0,0.0,0.0,0.0,0.0,0.0,0.0,0.0,0.0,0.0,0.0,0.0,0.0,0.0,0.0,0.0,0.0,0.0,0.0,0.0,0.0,0.0,0.0,0.0,0.0,0.0,0.0,0.0,0.0,0.0,0.0,0.0,0.0,0.0,0.0,0.0,0.0,0.0,0.0,0.0,0.0,0.0,0.0,0.0,0.0,0.0,0.0,0.0,0.0,0.0,0.0,0.0,0.0,0.0,0.0,0.0,0.0,0.0,0.0,0.0,0.0,0.0,0.0,0.0,0.0,0.0,0.0,0.0,0.0,0.0,0.0,0.0,0.0,0.0,0.0,0.0,0.0,0.0,0.0,0.0,0.0,0.0,0.0,0.0,0.0,0.0,0.0,0.0,-1.0155,-1.1426,-1.2379,-1.2856,-1.2905,-1.2905,-1.2905,-1.168,-1.0527,0.0,0.0,0.0,0.0,0.0,0.0,0.0,0.0,0.0,0.0,0.0,0.0,0.0,0.0,0.0,0.0,0.0,0.0,0.0,0.0,0.0,0.0,0.0,0.0,0.0,0.0,0.0,0.0,0.0,0.0,0.0,0.0,0.0,0.0,0.0,0.0,0.0,0.0,0.0,0.0,0.0,0.0,0.0,0.0,0.0,0.0,0.0,0.0,0.0,0.0,0.0,0.0,0.0,0.0,0.0,0.0,0.0,0.0,0.0,0.0,0.0,0.0,0.0,0.0,0.0,0.0,0.0,0.0,0.0,0.0,0.0,0.0,0.0,0.0,0.0,0.0,0.0,0.0,0.0,0.0,0.0,0.0,0.0,0.0,0.0,0.0,0.0,0.0,0.0,0.0,0.0,0.0,0.0,0.0,0.0,0.0,0.0,0.0,0.0,0.0,0.0,0.0,0.0,-1.0175,-1.1689,-1.2744,-1.2895,-1.2905,-1.2905,-1.2905,-1.1976,-1.1027,-1.0146,0.0,0.0,0.0,0.0,0.0,0.0,0.0,0.0,0.0,0.0,0.0,0.0,0.0,0.0,0.0,0.0,0.0,0.0,0.0,0.0,0.0,0.0,0.0,0.0,0.0,0.0,0.0,0.0,0.0,0.0,0.0,0.0,0.0,0.0,0.0,0.0,0.0,0.0,0.0,0.0,0.0,0.0,0.0,0.0,0.0,0.0,0.0,0.0,0.0,0.0,0.0,0.0,0.0,0.0,0.0,0.0,0.0,0.0,0.0,0.0,0.0,0.0,0.0,0.0,0.0,0.0,0.0,0.0,0.0,0.0,0.0,0.0,0.0,0.0,0.0,0.0,0.0,0.0,0.0,0.0,0.0,0.0,0.0,0.0,0.0,0.0,0.0,0.0,0.0,0.0,0.0,0.0,0.0,0.0,0.0,0.0,0.0,0.0,0.0,0.0,0.0,0.0,-1.0214,-1.1819,-1.2905,-1.2905,-1.2905,-1.2905,-1.2905,-1.2259,-1.1309,-1.0098,0.0,0.0,0.0,0.0,0.0,0.0,0.0,0.0,0.0,0.0,0.0,0.0,0.0,0.0,0.0,0.0,0.0,0.0,0.0,0.0,0.0,0.0,0.0,0.0,0.0,0.0,0.0,0.0,0.0,0.0,0.0,0.0,0.0,0.0,0.0,0.0,0.0,0.0,0.0,0.0,0.0,0.0,0.0,0.0,0.0,0.0,0.0,0.0,0.0,0.0,0.0,0.0,0.0,0.0,0.0,0.0,0.0,0.0,0.0,0.0,0.0,0.0,0.0,0.0,0.0,0.0,0.0,0.0,0.0,0.0,0.0,0.0,0.0,0.0,0.0,0.0,0.0,0.0,0.0,0.0,0.0,0.0,0.0,0.0,0.0,0.0,0.0,0.0,0.0,0.0,0.0,0.0,0.0,0.0,0.0,0.0,0.0,0.0,0.0,0.0,0.0,0.0,-1.0233,-1.1819,-1.2905,-1.2905,-1.2905,-1.2905,-1.2905,-1.248,-1.1502,-0.9816,0.0,0.0,0.0,0.0,0.0,0.0,0.0,0.0,0.0,0.0,0.0,0.0,0.0,0.0,0.0,0.0,0.0,0.0,0.0,0.0,0.0,0.0,0.0,0.0,0.0,0.0,0.0,0.0,0.0,0.0,0.0,0.0,0.0,0.0,0.0,0.0,0.0,0.0,0.0,0.0,0.0,0.0,0.0,0.0,0.0,0.0,0.0,0.0,0.0,0.0,0.0,0.0,0.0,0.0,0.0,0.0,0.0,0.0,0.0,0.0,-1.2871,-1.2038,0.0,0.0,0.0,0.0,0.0,0.0,0.0,0.0,0.0,0.0,0.0,0.0,0.0,0.0,0.0,0.0,0.0,0.0,0.0,0.0,0.0,0.0,0.0,0.0,0.0,0.0,0.0,0.0,0.0,0.0,0.0,0.0,0.0,0.0,0.0,0.0,0.0,0.0,0.0,0.0,-1.0214,-1.1819,-1.2905,-1.2905,-1.2905,-1.2905,-1.2905,-1.248,-1.1755,-1.0683,-0.9521,0.0,0.0,0.0,0.0,0.0,0.0,0.0,0.0,0.0,0.0,0.0,0.0,0.0,0.0,0.0,0.0,0.0,0.0,0.0,0.0,0.0,0.0,0.0,0.0,0.0,0.0,0.0,0.0,0.0,0.0,0.0,0.0,0.0,0.0,0.0,0.0,0.0,0.0,0.0,0.0,0.0,0.0,0.0,0.0,0.0,0.0,0.0,0.0,0.0,0.0,0.0,0.0,0.0,0.0,0.0,0.0,0.0,0.0,0.0,-1.4785,-1.3977,0.0,0.0,0.0,0.0,0.0,0.0,0.0,0.0,0.0,0.0,0.0,0.0,0.0,0.0,0.0,0.0,0.0,0.0,0.0,0.0,0.0,0.0,0.0,0.0,0.0,0.0,0.0,0.0,0.0,0.0,0.0,0.0,0.0,0.0,0.0,0.0,0.0,0.0,0.0,0.0,-1.0478,-1.1946,-1.2905,-1.2905,-1.2905,-1.2905,-1.2905,-1.2676,-1.2168,-1.1301,-1.0215,0.0,0.0,0.0,0.0,0.0,0.0,0.0,0.0,0.0,0.0,0.0,0.0,0.0,0.0,0.0,0.0,0.0,0.0,0.0,0.0,0.0,0.0,0.0,0.0,0.0,0.0,0.0,0.0,0.0,0.0,0.0,0.0,0.0,0.0,0.0,0.0,0.0,0.0,0.0,0.0,0.0,0.0,0.0,0.0,0.0,0.0,0.0,0.0,0.0,0.0,0.0,0.0,0.0,-1.8379,-1.8603,-1.8467,-1.8861,-1.9046,-1.8948,-1.7174,-1.6599,-1.6804,-1.5293,0.0,0.0,0.0,0.0,0.0,0.0,0.0,0.0,0.0,0.0,0.0,0.0,0.0,0.0,0.0,0.0,0.0,0.0,0.0,0.0,0.0,0.0,-1.2847,-1.3232,-1.3584,-1.333,-1.1465,0.0,0.0,0.0,0.0,0.0,0.0,0.0,0.0,0.0,0.0,0.0,-1.0908,-1.2109,-1.2905,-1.2905,-1.2905,-1.2905,-1.2905,-1.2905,-1.2563,-1.1751,-1.0958,-1.0175,0.0,0.0,0.0,0.0,0.0,0.0,0.0,0.0,0.0,0.0,0.0,0.0,0.0,0.0,0.0,0.0,0.0,0.0,0.0,0.0,0.0,0.0,0.0,0.0,0.0,0.0,0.0,0.0,0.0,0.0,0.0,0.0,-1.3486,-1.4346,0.0,0.0,0.0,0.0,0.0,0.0,0.0,0.0,0.0,0.0,0.0,0.0,0.0,-1.7275,-1.7744,-1.8906,-1.9336,-1.9053,-2.0625,-2.0977,-2.0282,-2.0684,-2.0859,-2.0839,-2.0547,0.0,-1.7793,-1.7197,0.0,0.0,0.0,0.0,0.0,0.0,0.0,0.0,0.0,0.0,0.0,0.0,0.0,0.0,0.0,0.0,0.0,0.0,0.0,0.0,0.0,0.0,-1.4981,-1.5068,-1.5117,-1.498,-1.4336,-1.269,-1.0958,-0.9689,-0.9388,-0.9094,0.0,0.0,0.0,0.0,0.0,0.0,-1.141,-1.2318,-1.2905,-1.2905,-1.2905,-1.2905,-1.2905,-1.2905,-1.2666,-1.2155,-1.1692,-1.1193,-1.0674,-0.9434,0.0,0.0,0.0,0.0,0.0,0.0,0.0,0.0,0.0,0.0,0.0,0.0,0.0,0.0,0.0,0.0,0.0,0.0,0.0,0.0,0.0,0.0,0.0,0.0,0.0,0.0,0.0,0.0,0.0,-1.3617,-1.4629,-1.4766,-1.5039,-1.4932,0.0,0.0,0.0,0.0,0.0,0.0,0.0,0.0,0.0,-1.8144,-1.8584,-1.9131,-1.9777,-2.0615,-2.1172,-2.1515,-2.2227,-2.2637,-2.2725,-2.2685,-2.2666,-2.2656,-2.237,-2.16,-2.0449,-1.9287,-1.8076,-1.6885,0.0,0.0,0.0,0.0,-1.5684,-1.5781,-1.6404,-1.6629,-1.6512,-1.579,0.0,0.0,0.0,0.0,0.0,0.0,0.0,-1.4128,-1.4793,-1.539,-1.584,-1.6063,-1.6122,-1.6035,-1.5625,-1.4784,-1.359,-1.1797,-1.1238,-1.0722,-0.9657,-0.9461,0.0,0.0,0.0,-1.1602,-1.225,-1.3057,-1.3496,-1.3262,-1.3232,-1.3135,-1.2925,-1.2905,-1.2803,-1.2607,-1.2178,-1.1855,-1.1638,-1.0615,-0.9766,0.0,0.0,0.0,0.0,0.0,0.0,0.0,0.0,0.0,0.0,0.0,0.0,0.0,0.0,0.0,0.0,0.0,0.0,0.0,0.0,0.0,0.0,0.0,0.0,0.0,0.0,0.0,0.0,-1.4941,-1.5674,-1.5498,-1.6232,-1.6211,0.0,0.0,0.0,0.0,0.0,0.0,-1.7842,-1.8486,-1.9228,-2.0088,-2.0625,-2.1279,-2.1999,-2.2373,-2.2852,-2.3531,-2.3467,-2.3754,-2.4404,-2.4092,-2.3945,-2.3935,-2.3559,-2.3179,-2.2715,-2.1084,-1.9912,-1.9026,-1.832,-1.7764,-1.7408,-1.7871,-1.8037,-1.8135,-1.8877,-1.9131,-1.8958,-1.812,-1.7623,-1.7077,-1.5556,0.0,0.0,0.0,0.0,-1.5644,-1.6535,-1.675,-1.6836,-1.7285,-1.7262,-1.7067,-1.666,-1.6506,-1.5831,-1.3786,-1.3105,-1.2486,-1.1309,-1.1124,0.0,-1.1124,-1.1934,-1.2691,-1.3145,-1.3724,-1.3987,-1.3701,-1.3574,-1.3379,-1.3066,-1.2964,-1.2905,-1.2905,-1.2578,-1.2369,-1.2369,-1.1638,-1.0819,-0.9952,0.0,0.0,0.0,0.0,0.0,0.0,0.0,0.0,0.0,0.0,0.0,0.0,0.0,0.0,0.0,0.0,0.0,0.0,0.0,0.0,0.0,0.0,0.0,0.0,0.0,0.0,0.0,0.0,0.0,-1.7207,-1.7998,0.0,0.0,0.0,0.0,-1.7285,-1.8066,-1.8695,-1.917,-2.0391,-2.1424,-2.2324,-2.3154,-2.3809,-2.4248,-2.4277,-2.4316,-2.4355,-2.4355,-2.4375,-2.4414,-2.4394,-2.4385,-2.4385,-2.4365,-2.4111,-2.3623,-2.2324,-2.131,-2.0458,-1.9961,-1.9531,-1.9209,-1.9629,-1.9785,-1.9853,-2.0312,-2.0507,-2.0566,-2.0849,-2.0166,-1.8994,-1.8086,-1.7246,0.0,0.0,-1.7288,-1.7451,-1.8256,-1.8471,-1.8578,-1.9053,-1.8838,-1.8393,-1.8008,-1.7598,-1.6797,-1.5058,-1.4696,-1.4375,-1.3496,0.0,-1.335,-1.335,-1.3398,-1.3568,-1.3987,-1.4075,-1.4104,-1.4075,-1.3724,-1.3496,-1.3477,-1.3105,-1.2905,-1.2905,-1.2886,-1.2866,-1.2866,-1.2389,-1.1726,-1.0839,-0.9609,0.0,0.0,0.0,0.0,0.0,0.0,0.0,0.0,0.0,0.0,0.0,0.0,0.0,0.0,0.0,0.0,0.0,0.0,0.0,0.0,0.0,0.0,0.0,0.0,0.0,0.0,0.0,0.0,-1.9382,-1.9951,0.0,-1.8841,-1.8926,-1.9248,-1.9787,-2.0615,-2.1435,-2.2148,-2.2881,-2.3418,-2.373,-2.4033,-2.4258,-2.4414,-2.4414,-2.456,-2.4834,-2.4834,-2.499,-2.5206,-2.4971,-2.4834,-2.4814,-2.4541,-2.4336,-2.416,-2.3701,-2.2842,-2.1807,-2.165,-2.1328,-2.0977,-2.1123,-2.1357,-2.1572,-2.1455,-2.1592,-2.1758,-2.1327,-2.0723,-2.0096,-1.9783,-1.948,-1.9228,-1.9421,-1.9228,-1.9082,-1.9348,-1.9258,-1.9092,-1.9248,-1.917,-1.9014,-1.8867,-1.8496,-1.793,-1.7031,-1.6212,-1.5361,-1.4482,-1.4336,-1.4141,-1.3584,-1.3975,-1.4385,-1.4531,-1.4785,-1.4853,-1.458,-1.4414,-1.4102,-1.3555,-1.3369,-1.3174,-1.2925,-1.2905,-1.2905,-1.2905,-1.2734,-1.2373,-1.1745,-1.0732,-0.96,0.0,0.0,0.0,0.0,0.0,0.0,0.0,0.0,0.0,0.0,0.0,0.0,0.0,0.0,0.0,0.0,0.0,0.0,0.0,0.0,0.0,0.0,0.0,0.0,0.0,-1.8857,-2.0156,-2.0723,-2.1562,-2.1699,-2.0674,-2.0967,-2.1465,-2.2009,-2.2754,-2.3398,-2.3975,-2.4404,-2.4639,-2.4639,-2.4785,-2.4884,-2.5078,-2.5078,-2.5303,-2.5723,-2.5576,-2.5674,-2.5937,-2.5498,-2.5293,-2.5283,-2.499,-2.4775,-2.4639,-2.4639,-2.4053,-2.3144,-2.2998,-2.2685,-2.2305,-2.2305,-2.248,-2.2643,-2.2402,-2.249,-2.2565,-2.1853,-2.1465,-2.1241,-2.1094,-2.1055,-2.1055,-2.1055,-2.0801,-2.0576,-2.0576,-2.0264,-1.9941,-1.9941,-1.9717,-1.9502,-1.9502,-1.916,-1.8779,-1.8496,-1.7393,-1.631,-1.5566,-1.5439,-1.5254,-1.4687,-1.5078,-1.5391,-1.5263,-1.5459,-1.5469,-1.5039,-1.4873,-1.4578,-1.3994,-1.3672,-1.3389,-1.3105,-1.2983,-1.2905,-1.2905,-1.2905,-1.2631,-1.2012,-1.0975,-1.0049,-0.9192,0.0,0.0,0.0,0.0,0.0,0.0,0.0,0.0,0.0,0.0,0.0,0.0,0.0,0.0,0.0,0.0,0.0,0.0,0.0,0.0,0.0,0.0,0.0,-1.8627,-2.0157,-2.1259,-2.1327,-2.2812,-2.333,-2.2119,-2.3096,-2.3818,-2.3848,-2.4228,-2.4473,-2.4492,-2.4902,-2.5174,-2.5174,-2.5547,-2.5977,-2.6406,-2.6406,-2.6611,-2.7012,-2.6602,-2.6406,-2.6396,-2.5908,-2.5703,-2.5703,-2.5693,-2.5488,-2.5135,-2.5135,-2.4834,-2.4394,-2.3975,-2.3545,-2.311,-2.311,-2.311,-2.3091,-2.3091,-2.3091,-2.3033,-2.2666,-2.2529,-2.2461,-2.2051,-2.1924,-2.1924,-2.1924,-2.1914,-2.1904,-2.1904,-2.1582,-2.121,-2.121,-2.0557,-1.9951,-1.9951,-1.9609,-1.9307,-1.9307,-1.8291,-1.7305,-1.6814,-1.6726,-1.6716,-1.6697,-1.6697,0.0,-1.6173,-1.6105,-1.5938,-1.5478,-1.5087,-1.4823,-1.4813,-1.403,-1.3551,-1.3506,-1.3115,-1.2905,-1.2905,-1.2905,-1.2494,-1.1645,-1.0342,-0.9641,-0.9612,0.0,0.0,0.0,0.0,0.0,0.0,0.0,0.0,0.0,0.0,0.0,0.0,0.0,0.0,0.0,0.0,0.0,0.0,0.0,0.0,0.0,-1.8978,-2.0352,-2.0459,-2.1424,-2.2701,-2.427,-2.4346,-2.4365,-2.4648,-2.4414,-2.4512,-2.5156,-2.5255,-2.5644,-2.6269,-2.6416,-2.6484,-2.6484,-2.6602,-2.6719,-2.6846,-2.6846,-2.6904,-2.7012,-2.6894,-2.6846,-2.6826,-2.6406,-2.6211,-2.6191,-2.583,-2.5615,-2.5557,-2.5557,-2.5293,-2.4844,-2.4414,-2.3984,-2.3613,-2.3613,-2.3408,-2.3091,-2.3091,-2.3091,-2.3081,-2.2955,-2.2925,-2.2896,-2.2789,-2.275,-2.275,-2.275,-2.2578,-2.2344,-2.2344,-2.2021,-2.1709,-2.1709,-2.1239,-2.083,-2.083,-2.0273,-1.9746,-1.9746,-1.9209,-1.8535,-1.7783,-1.7402,-1.71,-1.6746,-1.6697,-1.6658,-1.6562,-1.629,-1.6046,-1.5928,-1.5983,-1.5703,-1.487,-1.4756,-1.4368,-1.3551,-1.3115,-1.2905,-1.2905,-1.2905,-1.2617,-1.2061,-1.1398,-1.0743,0.0,0.0,0.0,0.0,0.0,0.0,0.0,0.0,0.0,0.0,0.0,0.0,0.0,0.0,0.0,0.0,0.0,0.0,0.0,0.0,0.0,0.0,-2.082,-2.2243,-2.2974,-2.351,-2.4394,-2.584,-2.5713,-2.5713,-2.6221,-2.581,-2.5723,-2.623,-2.622,-2.6494,-2.6982,-2.7012,-2.7012,-2.7012,-2.7012,-2.71,-2.7285,-2.7285,-2.7383,-2.7549,-2.7373,-2.7285,-2.7275,-2.6846,-2.665,-2.6631,-2.6191,-2.6006,-2.5996,-2.5762,-2.5586,-2.5303,0.0,0.0,0.0,0.0,-2.3633,-2.3389,-2.3159,-2.3091,-2.3091,-2.3091,-2.3091,-2.3091,-2.3091,-2.3091,-2.3091,-2.3091,-2.2916,-2.273,-2.273,-2.2461,-2.2148,-2.2148,-2.1816,-2.1455,-2.1239,-2.0791,-2.041,-2.0225,-1.9844,0.0,-1.8896,-1.8311,-1.7764,-1.7301,-1.7233,-1.7174,-1.6999,-1.6777,-1.6584,-1.6367,-1.6625,-1.6393,-1.5429,-1.5434,0.0,0.0,0.0,-1.3091,-1.2915,-1.2705,0.0,0.0,0.0,0.0,0.0,0.0,0.0,0.0,-1.0088,-0.9805,0.0,0.0,0.0,0.0,0.0,0.0,0.0,0.0,0.0,0.0,0.0,0.0,0.0,0.0,0.0,0.0,-2.2516,-2.3978,-2.5664,-2.5908,-2.6094,-2.6484,-2.6816,-2.7031,-2.708,-2.7041,-2.7031,-2.708,-2.709,-2.7109,-2.7158,-2.7158,0.0,0.0,0.0,-2.7344,-2.7787,-2.7787,-2.792,-2.8291,-2.792,-2.7787,-2.7777,-2.7285,-2.709,-2.706,-2.6641,-2.6455,-2.6426,-2.5986,-2.5732,-2.5645,-2.5244,-2.4834,-2.4434,-2.4014,-2.3857,-2.3799,-2.3315,0.0,0.0,-2.311,-2.3091,-2.3091,-2.3091,-2.3091,-2.3091,-2.3091,-2.3091,-2.3091,-2.3091,-2.2818,-2.2578,-2.2578,-2.2266,-2.1846,-2.1424,-2.1298,-2.1182,-2.0772,-2.0332,-2.0029,-1.9932,-1.9212,-1.8529,-1.8144,-1.8076,-1.793,-1.751,-1.7445,-1.7236,-1.6814,0.0,0.0,-1.6224,-1.603,-1.5498,-1.4432,-1.3932,-1.3484,-1.3062,-1.2656,-1.2603,-1.3042,-1.2623,-1.2613,-1.3052,-1.3052,-1.3052,-1.3003,-1.0975,-1.0459,0.0,0.0,0.0,0.0,0.0,0.0,0.0,0.0,0.0,0.0,0.0,0.0,0.0,0.0,0.0,-2.2487,-2.4114,-2.5664,-2.71,-2.7295,-2.7376,-2.7464,-2.7178,-2.7148,-2.751,-2.7217,-2.7168,-2.7562,-2.7539,-2.7695,-2.8027,-2.8047,-2.8047,-2.8047,-2.8047,-2.8086,-2.8174,-2.8174,-2.8213,-2.8291,-2.8213,0.0,-2.8154,-2.7734,-2.7539,-2.7519,-2.708,-2.6894,-2.6865,-2.6435,-2.6055,-2.5645,-2.5244,-2.5057,-2.4893,-2.4453,-2.4297,-2.4228,-2.3809,-2.3662,-2.3603,-2.3208,-2.3091,-2.3091,-2.3091,-2.3091,0.0,-2.3091,-2.3091,-2.3091,-2.3091,-2.3033,-2.2974,-2.2974,-2.2695,-2.2373,-2.2285,-2.2002,-2.1631,-2.1191,-2.0995,-2.0713,-2.0039,-1.9492,-1.9014,-1.8549,-1.8481,-1.8325,-1.7939,-1.7598,-1.7353,-1.7266,-1.7531,-1.74,-1.6664,-1.6462,-1.6287,-1.6063,-1.5293,-1.4563,-1.3896,-1.3782,-1.3782,-1.386,-1.3782,-1.3782,-1.386,-1.386,-1.386,-1.3851,-1.309,-1.2852,0.0,0.0,0.0,0.0,0.0,0.0,0.0,0.0,0.0,0.0,0.0,-1.9297,-2.0391,0.0,-2.3008,-2.4521,-2.5674,-2.668,-2.7591,-2.7851,-2.7978,-2.7978,-2.7793,-2.7744,-2.7959,-2.7783,-2.7744,-2.7959,-2.7978,-2.8066,-2.8281,-2.8291,-2.8291,-2.8291,-2.8291,-2.8291,-2.8291,-2.8291,-2.8291,-2.8291,-2.8291,-2.8291,-2.8281,-2.8076,-2.7978,-2.7959,-2.7529,-2.7344,-2.7305,-2.6875,-2.6455,-2.6045,-2.582,-2.5596,-2.5352,-2.4902,-2.4746,-2.4687,-2.4258,-2.4102,-2.4033,-2.3603,-2.3467,-2.3428,-2.3159,-2.3091,-2.3091,-2.3091,-2.3091,-2.3091,-2.3091,-2.3091,-2.3091,-2.3091,-2.2935,-2.2773,-2.2559,-2.2344,-2.207,-2.1641,-2.1346,-2.1054,-2.0615,-2.0215,-1.9707,-1.9062,-1.8965,-1.8809,-1.8344,-1.81,-1.793,-1.7715,-1.7956,-1.784,-1.7115,-1.6577,-1.6284,-1.6284,-1.5472,-1.4992,-1.4992,-1.4426,-1.4281,-1.4631,-1.4281,-1.4104,-1.4104,-1.4104,-1.4221,-1.4453,-1.4238,-1.4023,0.0,0.0,0.0,0.0,0.0,0.0,0.0,-1.7818,-1.8081,-1.9912,-2.0625,-2.1445,-2.3257,-2.3945,-2.4785,-2.6269,-2.6865,-2.7295,-2.7725,-2.8086,-2.8291,-2.8291,-2.8291,-2.8291,-2.8291,-2.8291,-2.8291,-2.8291,-2.8291,-2.8291,-2.8291,-2.8291,-2.8291,-2.8291,-2.8291,-2.8291,-2.8291,-2.8291,-2.8291,-2.8291,-2.8291,-2.8291,-2.8291,-2.8291,-2.8291,-2.8271,-2.7939,-2.7796,-2.7689,-2.7285,-2.6894,-2.6514,-2.6514,-2.624,-2.581,-2.5361,-2.5195,-2.5137,-2.4697,-2.4541,-2.4473,-2.4043,-2.3906,-2.3828,-2.3354,-2.3218,-2.3198,-2.312,-2.3091,-2.3091,-2.3091,-2.3091,-2.3091,-2.3091,-2.3091,-2.3003,-2.2705,-2.2637,-2.251,-2.209,-2.1719,-2.1414,-2.1337,-2.0996,-2.04,-1.9541,-1.9404,-1.9258,-1.8783,-1.8724,-1.8568,-1.8174,-1.8371,-1.821,-1.7458,-1.6886,-1.6454,-1.6232,-1.5684,-1.5592,-1.605,-1.5268,-1.5131,-1.5721,-1.5158,-1.4849,-1.4849,-1.4694,-1.4796,-1.5166,-1.5166,-1.4932,-1.8968,-1.7603,-1.7116,-1.8574,-1.8149,-1.8311,0.0,-2.1826,-2.1278,-2.3408,-2.4189,-2.4607,-2.4851,-2.5537,-2.6279,-2.6855,-2.7314,-2.7734,-2.8164,-2.8262,-2.8291,-2.8291,-2.8291,-2.8291,-2.8291,-2.8291,-2.8291,-2.8291,-2.8291,-2.8291,-2.8291,-2.8291,-2.8291,-2.8291,-2.8291,-2.8291,-2.8291,-2.8291,-2.8291,-2.8291,-2.8291,-2.8291,-2.8291,-2.8291,-2.8291,-2.8291,-2.8242,-2.8018,-2.7718,-2.7669,-2.7334,-2.6943,-2.6943,-2.6689,-2.6269,-2.582,-2.5615,-2.5547,-2.5146,-2.5047,-2.4969,-2.4492,-2.4346,-2.4268,-2.3848,-2.3721,-2.3633,-2.3198,-2.3091,-2.3091,-2.3091,-2.3091,-2.3091,-2.3091,-2.3091,-2.3081,-2.3033,-2.3023,-2.2896,-2.2519,-2.2402,-2.2256,-2.1875,-2.1455,-2.0859,-1.998,-1.9844,-1.9687,-1.9268,-1.9219,-1.9043,-1.8578,-1.856,-1.8262,-1.7484,-1.7904,-1.7766,-1.6711,-1.7154,-1.7216,-1.6628,-1.7236,-1.7589,-1.768,-1.762,-1.7559,-1.7559,-1.6797,-1.6434,-1.6482,-1.6482,-1.6269,-2.1161,-2.0459,-2.0205,-2.0684,-2.0586,-2.0967,-2.3262,-2.3242,-2.3262,-2.5176,-2.5703,-2.5986,-2.6534,-2.6935,-2.7266,-2.7685,-2.791,-2.8096,-2.8271,-2.8291,-2.8203,-2.7959,-2.793,-2.8027,-2.8271,-2.8291,-2.8291,-2.8291,-2.8291,-2.8291,-2.8291,-2.8291,-2.8291,-2.8291,-2.8291,-2.8291,-2.8291,-2.8291,-2.8291,-2.8291,-2.8291,-2.8291,-2.8291,-2.8291,-2.8291,-2.8291,-2.8291,-2.8193,-2.8027,-2.8027,-2.7783,-2.7393,-2.7393,-2.7129,-2.6699,-2.6269,-2.5908,-2.5664,-2.5527,-2.5459,-2.5381,-2.4941,-2.4795,-2.4717,-2.4287,-2.415,-2.4062,-2.3643,-2.3516,-2.3457,-2.3159,-2.3091,-2.3091,-2.3091,-2.3091,-2.3091,-2.3091,-2.3091,-2.3042,-2.2867,-2.2676,-2.2461,-2.2275,-2.1894,-2.1484,-2.1123,-2.0625,-2.0137,-1.9707,-1.9648,-1.9492,-1.9062,-1.9014,-1.8769,-1.8164,-1.8368,-1.8247,-1.75,-1.7519,-1.7838,-1.8437,-1.8164,-1.8199,-1.8643,-1.823,-1.7996,-1.7996,-1.7626,-1.7729,-1.8199,-1.7688,-1.7481,-2.2451,-2.2344,-2.2353,-2.2402,-2.2725,-2.3291,-2.4277,-2.4512,-2.4932,-2.6435,-2.6641,-2.6787,-2.7581,-2.7718,-2.7816,-2.8066,-2.8223,-2.8291,-2.8291,-2.8193,-2.8008,-2.7748,-2.7611,-2.7607,-2.791,-2.8047,-2.8164,-2.8281,-2.8291,-2.8291,-2.8291,-2.8398,-2.8467,-2.8467,-2.8584,-2.8643,-2.8643,-2.8643,-2.8643,-2.8643,-2.8525,-2.8467,-2.8467,-2.834,-2.8291,-2.8291,-2.8291,-2.8291,-2.8291,-2.8291,-2.8115,-2.7894,-2.7894,-2.7578,-2.7158,-2.6855,-2.6387,-2.5869,-2.5869,-2.5791,-2.5635,-2.5361,-2.5254,-2.5166,-2.4727,-2.459,-2.4512,-2.4082,-2.3965,-2.3857,-2.3428,-2.3276,-2.3247,-2.312,-2.3091,-2.3091,-2.3091,-2.3091,-2.3091,-2.3091,-2.2847,-2.2685,-2.2685,-2.2334,-2.206,-2.206,-2.1416,-2.0771,-2.0332,-2.0068,-1.9805,-1.9492,-1.9355,-1.916,-1.8812,-1.8783,-1.8656,-1.8379,-1.8076,-1.8409,-1.9544,-1.9019,-1.8966,-1.9513,-1.887,-1.8522,-1.8522,-1.8279,-1.8491,-1.9077,-1.8459,-1.8326,-2.2021,-2.1904,-2.2197,-2.3428,-2.4043,-2.4697,-2.6016,-2.6309,-2.6562,-2.7503,-2.7285,-2.7139,-2.764,-2.7718,-2.7718,-2.7738,-2.8027,-2.8291,-2.8291,-2.7939,-2.7738,-2.7718,-2.7295,-2.7041,-2.7051,-2.7432,-2.7851,-2.8262,-2.8291,-2.8291,-2.8291,-2.8682,-2.8896,-2.8896,-2.9307,-2.9587,-2.9587,-2.9587,-2.9587,-2.9577,-2.9101,-2.8896,-2.8887,-2.8476,-2.8291,-2.8291,-2.8291,-2.8291,-2.8291,-2.8291,-2.8281,-2.8271,-2.8271,-2.8018,-2.7699,-2.7689,-2.7141,-2.6367,-2.6367,-2.6094,-2.5693,-2.5674,-2.5664,-2.5635,-2.5185,-2.5096,-2.4998,-2.4521,-2.4394,-2.4307,-2.3877,-2.3769,-2.3662,-2.3198,-2.3091,-2.3091,-2.3091,-2.3091,-2.3091,-2.3091,-2.3081,-2.3081,-2.3081,-2.2773,-2.249,-2.249,-2.2129,-2.1689,-2.121,-2.0401,-1.9912,-1.9893,-1.9531,-1.9277,-1.9268,-1.9268,-1.9268,-1.9248,-1.9238,-1.9265,-1.9301,-2.0078,-2.0519,-2.0554,-2.008,-1.9839,-1.9839,-1.8974,-1.8609,-1.8609,-1.8574,-1.8584,-2.2959,-2.3359,-2.3877,-2.5185,-2.5625,-2.5986,-2.7002,-2.7236,-2.7366,-2.766,-2.7314,-2.6973,-2.6846,-2.6816,-2.6904,-2.7187,-2.7598,-2.7978,-2.8252,-2.8174,-2.7871,-2.7305,-2.7109,-2.6904,-2.6631,-2.6982,-2.7412,-2.7894,-2.7881,-2.8125,-2.8682,-2.8848,-2.9053,-2.9336,-2.9492,-2.9626,-2.9626,-2.9626,-2.9626,-2.956,-2.9121,-2.8916,-2.8906,-2.8486,-2.8291,-2.8291,-2.8291,-2.8291,-2.8291,-2.8291,-2.8291,-2.8291,-2.8291,-2.8203,-2.8086,-2.8086,-2.7725,-2.7158,-2.6582,-2.6299,-2.6123,-2.5781,-2.5693,-2.5664,-2.5557,-2.5518,-2.542,-2.4971,-2.4844,-2.4746,-2.4316,-2.4209,-2.4092,-2.3672,-2.3574,-2.3496,-2.3159,-2.3091,-2.3091,-2.3091,-2.3091,-2.3091,-2.3091,-2.2974,-2.2789,-2.2549,-2.2158,-2.1728,-2.1249,-2.0937,-2.0674,-2.0381,-2.0263,-2.0057,-1.9727,-1.9707,-1.958,-1.9307,-1.9287,-1.9568,-2.016,-2.0435,-2.0603,-2.0603,-2.0446,-2.0372,-2.0372,-2.0056,-2.0232,-2.0781,-2.0839,-2.0874,-2.3906,-2.456,-2.5205,-2.6514,-2.6846,-2.7031,-2.7734,-2.7826,-2.7679,-2.7461,-2.6963,-2.6426,-2.5996,-2.5791,-2.5928,-2.667,-2.7021,-2.7461,-2.8193,-2.8027,-2.7685,-2.7295,-2.6982,-2.6738,-2.6621,-2.6719,-2.7031,-2.7669,-2.7855,-2.8193,-2.8887,-2.9062,-2.9346,-2.9785,-2.9951,-3.0039,-3.0039,-3.0039,-2.9961,-2.9795,-2.9512,-2.9297,-2.9141,-2.8711,-2.8516,-2.8506,-2.8359,-2.8291,-2.8291,-2.8291,-2.8291,-2.8291,-2.8291,-2.8291,-2.8291,-2.8291,-2.8125,-2.7793,-2.709,-2.6738,-2.6543,-2.6103,-2.5967,-2.5937,-2.5732,-2.5693,-2.5625,-2.5391,-2.5303,-2.5205,-2.4766,-2.4648,-2.4541,-2.4121,-2.3896,-2.3711,-2.3437,-2.3208,-2.3091,-2.3091,-2.3091,-2.3091,-2.3091,-2.3091,-2.3003,-2.273,-2.251,-2.2119,-2.1543,-2.1465,-2.1299,-2.085,-2.0801,-2.0625,-2.0185,-2.0468,-2.0387,-1.9793,-2.0098,-2.0383,-2.0594,-2.0594,-2.0594,-2.0594,-2.0441,-2.0349,-2.0349,-2.0349,-2.0638,-2.119,-2.1215,-2.125,-2.4851,-2.5508,-2.6122,-2.7422,-2.7777,-2.7822,-2.8174,-2.7939,-2.75,-2.7012,-2.6161,-2.5459,-2.499,-2.459,-2.4756,-2.6074,-2.6348,-2.6836,-2.8115,-2.7598,-2.7226,-2.7669,-2.6943,-2.6602,-2.6982,-2.668,-2.6797,-2.7689,-2.8047,-2.8467,-2.8926,-2.9365,-2.9795,-3.0215,-3.0664,-3.0889,-3.0889,-3.0889,-3.0674,-3.0234,-3.0205,-2.999,-2.959,-2.9121,-2.8916,-2.8896,-2.8476,-2.8291,-2.8291,-2.8291,-2.8291,-2.8291,-2.8291,-2.8291,-2.8291,-2.8291,-2.8291,-2.8232,-2.7832,-2.7412,-2.6973,-2.6562,-2.6426,-2.6338,-2.5908,-2.5723,-2.5713,-2.5693,-2.5693,-2.5586,-2.5215,-2.5145,-2.499,-2.4551,-2.4141,-2.3848,-2.3828,-2.3477,-2.313,-2.313,-2.311,-2.3091,-2.3091,-2.3091,-2.3091,-2.3091,-2.3091,-2.2799,-2.2021,-2.1924,-2.1748,-2.1278,-2.1229,-2.1094,-2.0703,-2.1474,-2.1617,-2.0673,-2.152,-2.1614,-2.0712,-2.0673,-2.0673,-2.0673,-2.0194,-1.9951,-1.9951,-1.9951,-1.9951,-1.9951,-1.9979,-2.0017,-2.5996,-2.707,-2.7793,-2.8437,-2.8603,-2.8467,-2.7949,-2.749,-2.6875,-2.5791,-2.4639,-2.3594,-2.2832,-2.2861,-2.3418,-2.4707,-2.5742,-2.6836,-2.8115,-2.8105,-2.7891,-2.7738,-2.7523,-2.7256,-2.7041,-2.7217,-2.7559,-2.8096,-2.7939,-2.8291,-2.9346,-2.9805,-3.0244,-3.0703,-3.083,-3.0889,-3.0889,-3.0889,-3.083,-3.0713,-3.0361,-3.0137,-3.001,-2.9258,-2.8916,-2.8896,-2.8476,-2.8291,-2.8291,-2.8291,-2.8291,-2.8291,-2.8291,-2.8291,-2.8291,-2.8291,-2.8291,-2.8281,-2.8164,-2.7851,-2.7432,-2.6992,-2.6855,-2.6777,-2.6348,-2.6221,-2.6152,-2.5781,-2.5693,-2.5664,-2.5547,-2.5566,-2.5459,-2.501,-2.4824,-2.4648,-2.4326,-2.3926,-2.3623,-2.3623,-2.3315,-2.3091,-2.3091,-2.3091,-2.3091,-2.3091,-2.3091,-2.2906,-2.2422,-2.2353,-2.2197,-2.1768,-2.1719,-2.168,-2.1603,-2.1787,-2.1679,-2.1084,-2.1951,-2.2251,-2.168,-2.1621,-2.1621,-2.1621,-2.0824,-2.0439,-2.0439,-2.0439,-2.0439,-2.0439,-2.1126,-2.1446,-2.7148,-2.8203,-2.8867,-2.8906,-2.8779,-2.8379,-2.7334,-2.6611,-2.5742,-2.4248,-2.3232,-2.2285,-2.1211,-2.1533,-2.2373,-2.3598,-2.4951,-2.6328,-2.7812,-2.8018,-2.7998,-2.7949,-2.7939,-2.792,-2.7861,-2.8066,-2.8398,-2.8818,-2.8457,-2.8691,-2.9785,-3.0068,-3.041,-3.0879,-3.0889,-3.0889,-3.0889,-3.0889,-3.0889,-3.0889,-3.0625,-3.0508,-3.0478,-2.9795,-2.9375,-2.918,-2.875,-2.8467,-2.8291,-2.8291,-2.8291,-2.8291,-2.8291,-2.8291,-2.8291,-2.8291,-2.8291,-2.8291,-2.8291,-2.8135,-2.7871,-2.7441,-2.7305,-2.7226,-2.6797,-2.666,-2.6572,-2.6143,-2.6025,-2.5977,-2.5732,-2.5693,-2.5625,-2.542,-2.5215,-2.5047,-2.4756,-2.4365,-2.4014,-2.3828,-2.3437,-2.3091,-2.3091,-2.3091,-2.3091,-2.3091,-2.3091,-2.3013,-2.2779,-2.274,-2.2627,-2.2207,-2.2158,-2.209,-2.1904,-2.2747,-2.2747,-2.1574,-2.2897,-2.3193,-2.1985,-2.2424,-2.2675,-2.2675,-2.1966,-2.1602,-2.1602,-2.0917,-2.0605,-2.0605,-2.1155,-2.1375,-2.8213,-2.9043,-2.9551,-2.9111,-2.8643,-2.7939,-2.6602,-2.5488,-2.4304,-2.2598,-2.1787,-2.1025,-1.9873,-2.0342,-2.1395,-2.2789,-2.4141,-2.5654,-2.7464,-2.7718,-2.7894,-2.832,-2.8379,-2.8545,-2.8965,-2.9004,-2.918,-2.9619,-2.9297,-2.9414,-3.0156,-3.0254,-3.0478,-3.0879,-3.0889,-3.0889,-3.0889,-3.0889,-3.0889,-3.0889,-3.0889,-3.0889,-3.0869,-3.041,-2.9971,-2.9541,-2.9111,-2.8682,-2.8291,-2.8291,-2.8291,-2.8291,-2.8291,-2.8291,-2.8291,-2.8291,-2.8291,-2.8291,-2.8291,-2.8291,-2.8232,-2.7861,-2.7806,-2.7666,-2.7236,-2.71,-2.7012,-2.6592,-2.6435,-2.6299,-2.5918,-2.5732,-2.5693,-2.5693,-2.5439,-2.5156,-2.5156,-2.4814,-2.4375,-2.3955,-2.3525,-2.3179,-2.3179,-2.313,-2.3091,-2.3091,-2.3091,-2.3091,-2.3091,-2.3091,-2.3041,-2.284,-2.2673,-2.2484,-2.2278,-2.3784,-2.3953,-2.2087,-2.3809,-2.4017,-2.2154,-2.3001,-2.3452,-2.3452,-2.3153,-2.2991,-2.2991,-2.1644,-2.0996,-2.0996,-2.086,-2.0781,-2.9078,-2.9707,-2.999,-2.956,-2.8867,-2.7861,-2.6221,-2.4346,-2.2568,-2.1222,-1.9717,-1.8613,-1.8389,-1.9043,-2.0283,-2.2295,-2.3691,-2.5264,-2.7425,-2.7718,-2.7949,-2.8721,-2.8809,-2.8984,-2.9414,-2.9453,-2.9639,-3.0049,-3.0019,-3.0039,-3.0185,-3.0566,-3.081,-3.0889,-3.0889,-3.0889,-3.0889,-3.0889,-3.0889,-3.0889,-3.0889,-3.0889,-3.0869,-3.041,-2.9971,-2.9541,-2.9111,-2.8682,-2.8291,-2.8291,-2.8291,-2.8291,-2.8291,-2.8291,-2.8291,-2.8291,-2.8291,-2.8291,-2.8291,-2.8291,-2.8281,-2.8203,-2.8184,-2.8105,-2.7676,-2.7559,-2.7461,-2.7031,-2.666,-2.6367,-2.6299,-2.6006,-2.5693,-2.5693,-2.5625,-2.5625,-2.5625,-2.5273,-2.4824,-2.4394,-2.3965,-2.3682,-2.3682,-2.3379,-2.3091,-2.3091,-2.3091,-2.3091,-2.3091,-2.3091,-2.3444,-2.4311,-2.3561,-2.3368,-2.4229,-2.3783,-2.314,-2.2422,-2.3494,-2.3843,-2.3071,-2.3252,-2.3322,-2.3322,-2.3379,-2.3416,-2.3416,-2.3144,-2.2983,-2.2993,-2.2079,-2.166,-2.9346,-3.0049,-3.04,-2.9736,-2.8814,-2.7393,-2.5225,-2.3232,-2.1348,-1.96,-1.8408,-1.7539,-1.708,-1.8066,-1.9365,-2.0625,-2.2295,-2.418,-2.6357,-2.6855,-2.748,-2.876,-2.9121,-2.9424,-2.9853,-3.0117,-3.0342,-3.0547,-3.0557,-3.0557,-3.0557,-3.0771,-3.0889,-3.0889,-3.0889,-3.0889,-3.0889,-3.0889,-3.0889,-3.0889,-3.0889,-3.0889,-3.0889,-3.0664,-3.0312,-2.9883,-2.9678,-2.9219,-2.8613,-2.8613,-2.8496,-2.8291,-2.8291,-2.8291,-2.8291,-2.8291,-2.8291,-2.8291,-2.8291,-2.8291,-2.8291,-2.8291,-2.8291,-2.8252,-2.8057,-2.7988,-2.79,-2.7471,-2.7207,-2.7002,-2.6777,-2.6396,-2.6074,-2.6074,-2.5908,-2.5693,-2.5693,-2.5381,-2.501,-2.4795,-2.4414,-2.4111,-2.4111,-2.376,-2.3477,-2.3477,-2.3247,-2.3091,-2.3091,-2.3091,-2.3299,-2.3844,-2.3963,-2.4211,-2.4745,-2.484,-2.4544,-2.3754,-2.4146,-2.4043,-2.3209,-2.3763,-2.4085,-2.4085,-2.3936,-2.3861,-2.3861,-2.3083,-2.2656,-2.2656,-2.2154,-2.1885,-2.9434,-3.0078,-3.0439,-2.9746,-2.853,-2.6808,-2.4336,-2.2246,-2.0254,-1.8281,-1.7383,-1.6777,-1.6202,-1.7246,-1.8451,-1.9287,-2.1006,-2.3027,-2.5273,-2.6055,-2.6982,-2.8594,-2.9248,-2.9736,-3.0156,-3.0615,-3.0889,-3.0889,-3.0889,-3.0889,-3.0889,-3.0889,-3.0889,-3.0889,-3.0889,-3.0889,-3.0889,-3.0889,-3.0889,-3.0889,-3.0889,-3.0889,-3.0889,-3.0889,-3.0635,-3.0195,-3.0195,-2.9707,-2.8916,-2.8916,-2.8672,-2.8291,-2.8291,-2.8291,-2.8291,-2.8291,-2.8291,-2.8291,-2.8291,-2.8291,-2.8291,-2.8291,-2.8291,-2.8291,-2.8291,-2.8291,-2.8223,-2.7891,-2.7787,-2.764,-2.7246,-2.6836,-2.6504,-2.6406,-2.6133,-2.5801,-2.5703,-2.5459,-2.5215,-2.5215,-2.4853,-2.456,-2.456,-2.4199,-2.3896,-2.3799,-2.3496,-2.3198,-2.311,-2.3091,-2.3091,-2.3091,-2.392,-2.4542,-2.4787,-2.5389,-2.5389,-2.45,-2.4414,-2.4049,-2.3135,-2.3963,-2.4414,-2.4414,-2.4608,-2.4552,-2.4345,-2.336,-2.2753,-2.2514,-2.2274,-2.2274,-2.9346,-2.9685,-2.9678,-2.959,-2.8027,-2.6025,-2.4209,-2.1553,-1.9082,-1.7725,-1.6455,-1.5684,-1.6036,-1.6523,-1.7525,-1.9531,-2.0654,-2.2236,-2.4775,-2.585,-2.6875,-2.8193,-2.9072,-2.9736,-3.0156,-3.0615,-3.0889,-3.0889,-3.0889,-3.0889,-3.0889,-3.0889,-3.0889,-3.0889,-3.0889,-3.0889,-3.0889,-3.0889,-3.0889,-3.0889,-3.0889,-3.0889,-3.0889,-3.0889,-3.0635,-3.0195,-3.0195,-2.9707,-2.8916,-2.8916,-2.8672,-2.8291,-2.8291,-2.8291,-2.8291,-2.8291,-2.8291,-2.8291,-2.8291,-2.8291,-2.8291,-2.8291,-2.8291,-2.8291,-2.8291,-2.8291,-2.8281,-2.8252,-2.7959,-2.7708,-2.7669,-2.7285,-2.6865,-2.6484,-2.6357,-2.6221,-2.5771,-2.5654,-2.5625,-2.5625,-2.5322,-2.5057,-2.5057,-2.4648,-2.4228,-2.3848,-2.375,-2.3584,-2.3149,-2.3091,-2.3091,-2.3091,-2.3178,-2.3671,-2.4702,-2.3973,-2.3387,-2.3266,-2.3266,-2.3222,-2.3091,-2.3222,-2.3266,-2.3266,-2.5262,-2.5784,-2.4766,-2.5657,-2.5552,-2.4502,-2.3474,-2.3561,-2.8574,-2.918,-2.9443,-2.8935,-2.7588,-2.5801,-2.3535,-2.1084,-1.8857,-1.7314,-1.6152,-1.5469,-1.5635,-1.6035,-1.6865,-1.8496,-1.9241,-2.0537,-2.3164,-2.4053,-2.5293,-2.7637,-2.8437,-2.9277,-3.0498,-3.0781,-3.0889,-3.0889,-3.0889,-3.0889,-3.0889,-3.0889,-3.0889,-3.0889,-3.0889,-3.0889,-3.0889,-3.0889,-3.0889,-3.0889,-3.0889,-3.0889,-3.0889,-3.0889,-3.0791,-3.0615,-3.0615,-3.0117,-2.9307,-2.9307,-2.8906,-2.8291,-2.8291,-2.8291,-2.8291,-2.8291,-2.8291,-2.8291,-2.8291,-2.8291,-2.8291,-2.8291,-2.8291,-2.8291,-2.8291,-2.8291,-2.8291,-2.8291,-2.8174,-2.8047,-2.8047,-2.7725,-2.7305,-2.6865,-2.6768,-2.665,-2.6221,-2.6133,-2.6055,-2.5742,-2.5596,-2.5469,-2.5469,-2.5107,-2.4756,-2.4636,-2.4336,-2.4014,-2.3584,-2.3525,-2.3428,-2.312,-2.3714,-2.4296,-2.4745,-2.4372,-2.4125,-2.4125,-2.3464,-2.3091,-2.3091,-2.3091,-2.3091,-2.3091,-2.3973,-2.4221,-2.38,-2.4221,-2.4221,-2.3757,-2.3299,-2.3343,-2.7803,-2.8447,-2.873,-2.8379,-2.7139,-2.5381,-2.3047,-2.084,-1.8799,-1.7058,-1.5995,-1.541,-1.541,-1.5762,-1.6476,-1.7627,-1.8389,-1.9648,-2.1992,-2.291,-2.4219,-2.6662,-2.7393,-2.8359,-2.9971,-3.0596,-3.0889,-3.0889,-3.0889,-3.0889,-3.0889,-3.0889,-3.0889,-3.0889,-3.0889,-3.0889,-3.0889,-3.0889,-3.0889,-3.0889,-3.0889,-3.0889,-3.0889,-3.0889,-3.0889,-3.0889,-3.0889,-3.0391,-2.9626,-2.9626,-2.9062,-2.8291,-2.8291,-2.8291,-2.8291,-2.8291,-2.8291,-2.8291,-2.8291,-2.8291,-2.8291,-2.8291,-2.8291,-2.8291,-2.8291,-2.8291,-2.8291,-2.8291,-2.8291,-2.8291,-2.8291,-2.8066,-2.7744,-2.7305,-2.7207,-2.709,-2.666,-2.6475,-2.6299,-2.5986,-2.5771,-2.5693,-2.5693,-2.5478,-2.5215,-2.5135,-2.4805,-2.4453,-2.4033,-2.3975,-2.3809,-2.3379,-2.4045,-2.444,-2.4307,-2.4296,-2.4296,-2.4296,-2.3551,-2.3091,-2.3091,-2.3091,-2.3091,-2.3091,-2.343,-2.343,-2.3091,-2.343,-2.343,-2.3091,-2.3091,-2.3091,-2.7258,-2.7363,-2.7246,-2.8086,-2.667,-2.4629,-2.291,-2.084,-1.8799,-1.7058,-1.5995,-1.541,-1.541,-1.5762,-1.6388,-1.7246,-1.8457,-1.9893,-2.1641,-2.2988,-2.4111,-2.5037,-2.5869,-2.6914,-2.8193,-2.9883,-3.0889,-3.0889,-3.0889,-3.0889,-3.0889,-3.0889,-3.0889,-3.0889,-3.0889,-3.0889,-3.0889,-3.0889,-3.0889,-3.0889,-3.0889,-3.0889,-3.0889,-3.0889,-3.0889,-3.0889,-3.0889,-3.0391,-2.9626,-2.9626,-2.9062,-2.8291,-2.8291,-2.8291,-2.8291,-2.8291,-2.8291,-2.8291,-2.8291,-2.8291,-2.8291,-2.8291,-2.8291,-2.8291,-2.8291,-2.8291,-2.8291,-2.8291,-2.8291,-2.8291,-2.8291,-2.8291,-2.8174,-2.7806,-2.7708,-2.7539,-2.71,-2.668,-2.6387,-2.6387,-2.6035,-2.5693,-2.5693,-2.5684,-2.5586,-2.5184,-2.5106,-2.4902,-2.4463,-2.4414,-2.4248,-2.3828,-2.3779,-2.3603,-2.3174,-2.3135,-2.3135,-2.3135,-2.3101,-2.3091,-2.3091,-2.3091,-2.3091,-2.3091,-2.4211,-2.4211,-2.3091,-2.4211,-2.4211,-2.3091,-2.3091,-2.3091,-2.4785,-2.5342,-2.5605,-2.5293,-2.4482,-2.3276,-2.1201,-1.9756,-1.8359,-1.6631,-1.5811,-1.541,-1.541,-1.5527,-1.6191,-1.7959,-1.8539,-1.9551,-2.1602,-2.2988,-2.4336,-2.5791,-2.8037,-2.9629,-3.0029,-3.0566,-3.0889,-3.0889,-3.0889,-3.0889,-3.0889,-3.0889,-3.0889,-3.0889,-3.0889,-3.0889,-3.0889,-3.0889,-3.0889,-3.0889,-3.0889,-3.0889,-3.0889,-3.0889,-3.0889,-3.0889,-3.0889,-3.0391,-2.9626,-2.9626,-2.9062,-2.832,-2.8603,-2.8545,-2.8359,-2.8945,-2.8799,-2.833,-2.8623,-2.8535,-2.8291,-2.8291,-2.8291,-2.8291,-2.8291,-2.8291,-2.8291,-2.8291,-2.8291,-2.8291,-2.8291,-2.8291,-2.8262,-2.8125,-2.8096,-2.7978,-2.7549,-2.7353,-2.709,-2.6504,-2.6279,-2.6084,-2.5742,-2.5693,-2.5635,-2.5547,-2.5527,-2.5371,-2.4922,-2.4863,-2.4697,-2.4268,-2.4219,-2.3926,-2.3159,-2.3091,-2.3091,-2.3091,-2.3091,-2.3091,-2.3091,-2.3091,-2.3091,-2.3091,-2.3464,-2.3474,-2.3091,-2.3464,-2.3464,-2.3091,-2.3091,-2.3091,-2.293,-2.3809,-2.4248,-2.3887,-2.3232,-2.2239,-2.0342,-1.9131,-1.7959,-1.6418,-1.5743,-1.541,-1.541,-1.5547,-1.6094,-1.7441,-1.8178,-1.9192,-2.0908,-2.2529,-2.4258,-2.6162,-2.8613,-3.0146,-3.0146,-3.0596,-3.0889,-3.0889,-3.0889,-3.0889,-3.0889,-3.0889,-3.0889,-3.0889,-3.0889,-3.0889,-3.0889,-3.0889,-3.0889,-3.0889,-3.0889,-3.0889,-3.0889,-3.0889,-3.0889,-3.0879,-3.0703,-3.0225,0.0,-2.9394,-2.8916,-2.833,-2.875,-2.876,-2.8613,-2.9316,-2.9238,-2.8818,-2.9072,-2.8994,-2.875,-2.8584,-2.8418,-2.8291,-2.8291,-2.8291,-2.8291,-2.8291,-2.8291,-2.8291,-2.8291,-2.8291,-2.8291,-2.8291,-2.8291,-2.8223,-2.7959,-2.7836,-2.7562,-2.6973,-2.6738,-2.6484,-2.6055,-2.5986,-2.5879,-2.5713,-2.5693,-2.5586,-2.5361,-2.5322,-2.5156,-2.4707,-2.4668,-2.4375,-2.3637,-2.3432,-2.3344,-2.3344,-2.3188,-2.3091,-2.3091,-2.3091,-2.3091,-2.3091,-2.3091,-2.3091,-2.3091,-2.3091,-2.3091,-2.3091,-2.3091,-2.3091,0.0,-2.2428,-2.2867,-2.3281,-2.249,-2.1269,-1.998,-1.8769,0.0,-1.631,-1.5693,-1.543,-1.5488,-1.5811,-1.6105,-1.629,-1.7637,-1.8968,-1.9922,-2.1951,-2.4209,-2.6357,-2.8066,-2.9062,-2.9062,-3.0176,-3.0889,-3.0889,-3.0889,-3.0889,-3.0889,-3.0889,-3.0889,-3.0889,-3.0889,-3.0889,-3.0889,-3.0889,-3.0889,-3.0889,-3.0889,-3.0889,-3.0889,-3.0859,-3.084,-3.081,-3.0351,-2.9912,-2.9492,-2.9082,-2.8672,-2.833,-2.875,-2.8896,-2.8935,-2.9434,-2.957,-2.9531,-2.959,-2.959,-2.9502,-2.9062,-2.8662,-2.833,-2.8301,-2.8291,-2.8291,-2.8291,-2.8291,-2.8291,-2.8291,-2.8291,-2.8291,-2.8291,-2.8291,-2.8291,-2.8291,-2.7988,-2.7748,-2.7728,-2.7344,-2.6924,-2.6504,-2.6435,-2.6289,-2.5801,-2.5732,-2.5723,-2.5693,-2.5693,-2.5576,-2.5166,-2.5117,-2.4951,-2.4541,-2.4092,-2.3838,-2.3838,-2.3413,-2.3169,-2.314,-2.314,-2.312,-2.3091,-2.3091,-2.3091,-2.3091,-2.3091,-2.3091,-2.3091,-2.3091,-2.3091,-1.8301,0.0,-1.9602,-1.9424,-1.9141,-1.8672,0.0,-1.7213,-1.6716,-1.5762,-1.5488,-1.5586,-1.6268,-1.5957,-1.6211,-1.8203,-1.8867,-1.9668,-2.1211,-2.4121,-2.6777,-2.8603,-2.9775,-3.043,-3.043,-3.0713,-3.0889,-3.0889,-3.0889,-3.0889,-3.0889,-3.0889,-3.0889,-3.0889,-3.0889,-3.0889,-3.0889,-3.0889,-3.0889,-3.0889,-3.0889,-3.0889,-3.0879,-3.0518,-3.0361,-3.0332,-2.9902,-2.9473,-2.9062,-2.8965,-2.8672,-2.833,-2.875,-2.8721,-2.8564,-2.9648,-2.9639,-2.917,-2.9824,-2.9834,-2.9502,-2.9062,-2.8848,-2.8711,-2.8389,-2.8291,-2.8291,-2.8291,-2.8291,-2.8291,-2.8291,-2.8291,-2.8291,-2.8291,-2.8291,-2.8291,-2.8291,-2.8213,-2.8047,-2.7777,-2.764,-2.7373,-2.6943,-2.6865,-2.6728,-2.6299,-2.624,-2.6113,-2.5732,-2.5693,-2.5645,-2.5596,-2.5586,-2.5489,-2.5382,-2.4717,-2.4268,-2.4268,-2.417,-2.3975,-2.3652,-2.3633,-2.3486,-2.3101,-2.3091,-2.3091,-2.3091,-2.3091,-2.3091,-2.3091,-2.3091,-2.3091,-1.6416,-1.7686,-1.8877,-1.8652,-1.8447,-1.8091,-1.7438,-1.6855,-1.623,-1.5547,-1.541,-1.5615,-1.6299,-1.6201,-1.6602,-1.8408,-1.9189,-2.0459,-2.2988,-2.5635,-2.7871,-2.945,-3.0351,-3.0889,-3.0889,-3.0889,-3.0889,-3.0889,-3.0889,-3.0889,-3.0889,-3.0889,-3.0889,-3.0889,-3.0889,-3.0889,-3.0889,-3.0889,-3.0889,-3.0889,-3.0889,-3.0781,-3.0566,-3.0312,-3.0098,-2.9883,-2.9463,-2.9141,-2.8906,-2.8711,-2.8496,-2.833,-2.875,-2.8906,-2.8984,-2.9873,-3.0039,-2.9893,-3.0351,-3.0225,-2.9814,-2.958,-2.9375,-2.918,-2.8945,-2.874,-2.8535,-2.835,-2.8291,-2.8291,-2.8291,-2.8291,-2.8291,-2.8291,-2.8291,-2.8291,-2.8291,-2.8291,-2.8223,-2.7998,-2.8002,-2.7822,-2.7393,-2.7314,-2.7168,-2.6738,-2.668,-2.6523,-2.6094,-2.6035,-2.5967,-2.5713,-2.5693,-2.5693,-2.5693,-2.5255,-2.4932,-2.4727,-2.4531,-2.4316,-2.4082,-2.4072,-2.3877,-2.3447,-2.3437,-2.334,-2.3091,-2.3091,-2.3091,-2.3091,-2.3091,-2.3091,-1.5654,-1.7412,-1.9121,-1.8857,-1.8613,-1.8295,-1.791,-1.6963,-1.6095,-1.5693,-1.5615,-1.5791,-1.6378,-1.6709,-1.7243,-1.833,-1.9629,-2.1621,-2.4871,-2.6759,-2.8266,-2.9479,-3.0351,-3.0889,-3.0889,-3.0889,-3.0889,-3.0889,-3.0889,-3.0889,-3.0889,-3.0889,-3.0889,-3.0889,-3.0889,-3.0859,-3.0781,-3.0859,-3.0859,-3.0781,-3.0781,-3.0547,-3.0098,-3.0029,-2.9805,-2.9443,-2.9014,-2.8818,-2.8789,-2.8437,-2.8291,-2.833,-2.8682,-2.9092,-2.9521,-2.9941,-3.0391,-3.0791,-3.0869,-3.0635,-3.0293,-3.0215,-2.9961,-2.9658,-2.9646,-2.9307,-2.8945,-2.8584,-2.8389,-2.8291,-2.8291,-2.8291,-2.8291,-2.8291,-2.8291,-2.8291,-2.8291,-2.8291,-2.8291,-2.8291,-2.8291,-2.8174,-2.7822,-2.7816,-2.7617,-2.7178,-2.7119,-2.6963,-2.6533,-2.6484,-2.6348,-2.5918,-2.583,-2.5791,-2.5791,-2.5723,-2.5528,-2.5195,-2.4824,-2.459,-2.4521,-2.4453,-2.4248,-2.3896,-2.3887,-2.3701,-2.3296,-2.3296,-2.3296,-2.3296,-2.3296,-2.3296,-1.6777,-1.7891,-1.8354,-1.6956,-1.7103,-1.7461,-1.6999,-1.6746,-1.658,-1.6512,-1.6502,-1.6843,-1.7993,-1.7974,-1.8422,-2.0381,-2.2119,-2.3896,-2.5908,-2.7344,-2.8535,-2.9518,-3.0351,-3.0889,-3.0889,-3.0889,-3.0889,-3.0889,-3.0889,-3.0889,-3.0889,-3.0889,-3.0889,-3.0889,-3.0889,-3.0703,-3.0303,-3.0693,-3.0693,-3.0303,-3.0303,-3.0078,-2.9658,-2.9287,-2.9082,-2.8994,-2.8574,-2.8389,-2.8389,-2.832,-2.8291,-2.8301,-2.8359,-2.8643,-2.9072,-2.9512,-2.9932,-3.0361,-3.0752,-3.084,-3.0723,-3.0322,-3.0156,-3.0029,-2.9678,-2.9521,-2.9453,-2.945,-2.8848,-2.8291,-2.8291,-2.8291,-2.8291,-2.8291,-2.8291,-2.8291,-2.8291,-2.8291,-2.8291,-2.8291,-2.8291,-2.8271,-2.8203,-2.8193,-2.8057,-2.7627,-2.7568,-2.7412,-2.6973,-2.6914,-2.6894,-2.6826,-2.6504,-2.6289,-2.6289,-2.5947,-2.5664,-2.5586,-2.5528,-2.5361,-2.5028,-2.4609,-2.4385,-2.4316,-2.4316,-2.4287,-2.4219,-2.4219,-2.4219,-2.4219,-2.4219,-2.4219,-1.6152,-1.7119,-1.7822,-1.7256,-1.7939,-1.8701,-1.8461,-1.8061,-1.7798,-1.8066,-1.8115,-1.8359,-1.9143,-1.9524,-2.0411,-2.2565,-2.4209,-2.5635,-2.6904,-2.7978,-2.8945,-2.9805,-3.0488,-3.0889,-3.0889,-3.0889,-3.0889,-3.0889,-3.0664,-3.0518,-3.0518,-3.0303,-3.0176,-3.0176,-3.0176,-3.0078,-2.9863,-3.0068,-3.0068,-2.9863,-2.9863,-2.9639,-2.9209,-2.9014,-2.8789,-2.8574,-2.8379,-2.8291,-2.8291,-2.8291,-2.8291,-2.8291,-2.8291,-2.8691,-2.9355,-3.0029,-3.041,-3.0605,-3.082,-3.0889,-3.0859,-3.0644,-3.0576,-3.0537,-3.0342,-3.0107,-2.9902,-2.9902,-2.9463,-2.8926,-2.8691,-2.8633,-2.8574,-2.834,-2.8291,-2.8291,-2.8291,-2.8291,-2.8291,-2.8291,-2.8291,-2.8291,-2.8291,-2.8291,-2.8223,-2.8037,-2.7998,-2.7851,-2.7422,-2.7363,-2.7275,-2.7041,-2.6846,-2.6728,-2.6728,-2.6338,-2.5986,-2.5703,-2.5693,-2.5644,-2.5439,-2.5234,-2.5019,-2.4775,-2.4766,-2.4648,-2.4414,-2.4414,-2.4414,-2.4414,-2.4414,-2.4414,-1.6054,-1.6836,-1.7656,-1.8184,-1.8965,-1.9697,-2.0,-1.9446,-1.9056,-1.9639,-1.9746,-1.9873,-2.0293,-2.122,-2.2506,-2.4287,-2.5762,-2.6953,-2.7705,-2.8545,-2.9355,-3.0107,-3.0605,-3.0889,-3.0889,-3.0889,-3.084,-3.0732,-3.04,-3.0156,-3.0049,-2.9746,-2.9626,-2.9626,-2.9626,-2.9521,-2.9414,-2.9414,-2.9414,-2.9414,-2.9414,-2.9189,-2.8769,-2.8769,-2.8594,-2.8291,-2.8291,-2.8291,-2.8291,-2.8291,-2.8291,-2.8291,-2.8291,-2.8818,-2.9734,-3.0566,-3.0889,-3.0889,-3.0889,-3.0889,-3.0889,-3.0889,-3.0889,-3.0889,-3.0889,-3.0644,-3.0361,-3.0361,-3.0127,-2.9756,-2.9209,-2.9072,-2.8965,-2.8535,-2.8437,-2.8408,-2.831,-2.8291,-2.8291,-2.8291,-2.8291,-2.8291,-2.8291,-2.8291,-2.8291,-2.8291,-2.8291,-2.8174,-2.7851,-2.7812,-2.7685,-2.7353,-2.7226,-2.7129,-2.7021,-2.6719,-2.6348,-2.5869,-2.5742,-2.5693,-2.5693,-2.5693,-2.5576,-2.5234,-2.5225,-2.5059,-2.468,-2.468,-2.468,-2.468,-2.468,-2.468,-1.8052,-1.8159,-1.8164,-1.8994,-1.8965,-1.9007,-2.0282,-2.0156,-2.0068,-2.0878,-2.1054,-2.123,-2.166,-2.3086,-2.4375,-2.4932,-2.6505,-2.7787,-2.8184,-2.8984,-2.9687,-3.0146,-3.0605,-3.0889,-3.0889,-3.0889,-3.0713,-3.0273,-3.0215,-3.0029,-2.9639,-2.9646,-2.9626,-2.9626,-2.9626,-2.9375,-2.8975,-2.8965,-2.8965,-2.8965,-2.8965,-2.874,-2.834,-2.834,-2.832,-2.8291,-2.8291,-2.8291,-2.8291,-2.8291,-2.8291,-2.8291,-2.8291,-2.8818,-2.9734,-3.0566,-3.0889,-3.0889,-3.0889,-3.0889,-3.0889,-3.0889,-3.0889,-3.0889,-3.0889,-3.0869,-3.084,-3.084,-3.082,-3.0596,-2.9746,-2.9521,-2.9414,-2.8984,-2.8877,-2.876,-2.8379,-2.8291,-2.8291,-2.8291,-2.8291,-2.8291,-2.8291,-2.8291,-2.8291,-2.8291,-2.8291,-2.8281,-2.8252,-2.8252,-2.8232,-2.8203,-2.7851,-2.7451,-2.7051,-2.6982,-2.6787,-2.6367,-2.5967,-2.5693,-2.5693,-2.5693,-2.5674,-2.5635,-2.5635,-2.5625,-2.5596,-2.5596,-2.5596,-2.5596,-2.5596,-2.5596,-1.7213,-1.7539,-1.7891,-1.9014,-1.9561,-2.0107,-2.1192,-2.1875,-2.2568,-2.3447,-2.3613,-2.3584,-2.3477,-2.4434,-2.5381,-2.582,-2.7109,-2.8301,-2.8994,-2.9365,-2.9834,-3.0547,-3.0781,-3.0781,-3.0488,-3.0459,-3.0283,-2.9834,-2.956,-2.9336,-2.917,-2.8916,-2.8779,-2.8779,-2.8779,-2.8701,-2.8535,-2.8535,-2.8535,-2.8535,-2.8535,-2.8447,-2.8291,-2.8291,-2.8291,-2.8291,-2.8291,-2.8291,-2.8291,-2.8291,-2.8291,-2.834,-2.8877,-2.9287,-2.9734,-3.0566,-3.0889,-3.0889,-3.0889,-3.0889,-3.0889,-3.0889,-3.0889,-3.0889,-3.0889,-3.0889,-3.0889,-3.0889,-3.0889,-3.0752,-3.0127,-2.9961,-2.9853,-2.9424,-2.9326,-2.9277,-2.9121,-2.9092,-2.9092,-2.9092,-2.9092,-2.9004,-2.873,-2.8682,-2.8594,-2.833,-2.8291,-2.8291,-2.8291,-2.8291,-2.8291,-2.8291,-2.8144,-2.7881,-2.7461,-2.7422,-2.7236,-2.6807,-2.6377,-2.6016,-2.5703,-2.5693,-2.5693,-2.5693,-2.5693,-2.5693,-2.5693,-2.5693,-2.5693,-2.5693,-2.5693,-2.5693,-1.6726,-1.7051,-1.7656,-1.8799,-1.9834,-2.0938,-2.2197,-2.3164,-2.4072,-2.5068,-2.5166,-2.498,-2.4678,-2.5234,-2.583,-2.6318,-2.7461,-2.8545,-2.9268,-2.9482,-2.9795,-3.04,-3.0596,-3.0488,-3.0039,-3.0,-2.9824,-2.9394,-2.9092,-2.8857,-2.873,-2.8447,-2.8291,-2.8291,-2.8291,-2.8291,-2.8291,-2.8291,-2.8291,-2.8291,-2.8291,-2.8291,-2.8291,-2.8291,-2.8291,-2.8291,-2.8291,-2.8291,-2.8291,-2.8291,-2.8291,-2.8379,-2.9238,-2.9626,-2.9734,-3.0566,-3.0889,-3.0889,-3.0889,-3.0889,-3.0889,-3.0889,-3.0889,-3.0889,-3.0889,-3.0889,-3.0889,-3.0889,-3.0889,-3.082,-3.0498,-3.042,-3.0303,-2.9873,-2.9766,-2.9726,-2.9655,-2.9626,-2.9626,-2.9626,-2.9626,-2.9473,-2.918,-2.9121,-2.8984,-2.8555,-2.8496,-2.8437,-2.831,-2.8291,-2.8291,-2.8291,-2.8291,-2.8174,-2.7891,-2.7861,-2.7676,-2.7246,-2.6953,-2.6533,-2.5967,-2.5947,-2.583,-2.5693,-2.5693,-2.5693,-2.5693,-2.5693,-2.5693,-2.5693,-2.5693,-2.5693,-1.7038,-1.7051,-1.7588,-1.8403,-1.9619,-2.1192,-2.331,-2.3809,-2.418,-2.544,-2.54,-2.5135,-2.5125,-2.5449,-2.584,-2.6328,-2.7461,-2.8437,-2.8857,-2.9287,-2.956,-2.9626,-2.9932,-3.0029,-2.96,-2.956,-2.9385,-2.8945,-2.8916,-2.873,-2.831,-2.8291,-2.8291,-2.8291,-2.8291,-2.8291,-2.8291,-2.8291,-2.8291,-2.8291,-2.8291,-2.8291,-2.8291,-2.8291,-2.8291,-2.8291,-2.8291,-2.8291,-2.8291,-2.8291,-2.8291,-2.8379,-2.9238,-2.9626,-2.9734,-3.0566,-3.0889,-3.0889,-3.0889,-3.0889,-3.0889,-3.0889,-3.0889,-3.0889,-3.0889,-3.0889,-3.0889,-3.0889,-3.0889,-3.0889,-3.0889,-3.0889,-3.0771,-3.0312,-3.0205,-3.0088,-2.9678,-2.9636,-2.9636,-2.9636,-2.9636,-2.9636,-2.9636,-2.9636,-2.9434,-2.8994,-2.8926,-2.8769,-2.8359,-2.8291,-2.8291,-2.8291,-2.8291,-2.8291,-2.8291,-2.8291,-2.8115,-2.7748,-2.7728,-2.7285,-2.6426,-2.6396,-2.6191,-2.5713,-2.5693,-2.5693,-2.5693,-2.5693,-2.5693,-2.5693,-2.5693,-2.5693,-1.6533,-1.7031,-1.8027,-1.8887,-2.0752,-2.2836,-2.4382,-2.4932,-2.5527,-2.6826,-2.6748,-2.6348,-2.6055,-2.6348,-2.668,-2.6807,-2.7646,-2.8437,-2.8857,-2.9033,-2.9228,-2.9531,-2.9734,-2.959,-2.915,-2.9111,-2.8935,-2.8506,-2.8476,-2.8428,-2.8301,-2.8291,-2.8291,-2.8291,-2.8291,-2.8291,-2.8291,-2.8291,-2.8291,-2.8291,-2.8291,-2.8291,-2.8291,-2.8291,-2.8291,-2.8291,-2.8291,-2.8291,-2.8291,-2.8291,-2.8291,-2.8379,-2.9238,-2.9626,-2.9734,-3.0566,-3.0889,-3.0889,-3.0889,-3.0889,-3.0889,-3.0889,-3.0889,-3.0889,-3.0889,-3.0889,-3.0889,-3.0889,-3.0889,-3.0889,-3.0889,-3.0889,-3.0859,-3.0723,-3.0684,-3.0644,-3.0527,-3.0498,-3.0498,-3.0498,-3.0498,-3.04,-3.0068,-3.001,-2.9863,-2.9443,-2.9375,-2.9219,-2.8789,-2.8476,-2.8291,-2.8291,-2.8291,-2.8291,-2.8291,-2.8291,-2.8242,-2.8115,-2.8105,-2.7725,-2.6865,-2.6826,-2.6768,-2.6641,-2.6348,-2.6191,-2.6191,-2.584,-2.5693,-2.5693,-2.5693,-2.5693,-1.6966,-1.7656,-1.8809,-2.0019,-2.1748,-2.3623,-2.543,-2.6182,-2.6768,-2.7715,-2.7441,-2.6992,-2.6914,-2.6963,-2.707,-2.7246,-2.7851,-2.8379,-2.8633,-2.8818,-2.8955,-2.9053,-2.9209,-2.9141,-2.8711,-2.8672,-2.8564,-2.831,-2.8291,-2.8291,-2.8291,-2.8291,-2.8291,-2.8291,-2.8291,-2.8291,-2.8291,-2.8291,-2.8291,-2.8291,-2.8291,-2.8291,-2.8291,-2.8291,-2.8291,-2.8291,-2.8291,-2.8291,-2.8291,-2.8291,-2.8291,-2.8359,-2.9043,-2.9414,-2.9658,-3.0351,-3.0732,-3.0889,-3.0889,-3.0889,-3.0889,-3.0889,-3.0889,-3.0889,-3.0889,-3.0889,-3.0889,-3.0889,-3.0889,-3.0889,-3.0889,-3.0889,-3.0889,-3.0889,-3.0889,-3.0889,-3.0889,-3.0889,-3.0889,-3.0889,-3.0889,-3.0801,-3.0518,-3.0478,-3.0322,-2.9883,-2.9678,-2.9414,-2.8975,-2.8701,-2.8476,-2.831,-2.8291,-2.8291,-2.8291,-2.8291,-2.8291,-2.8291,-2.8291,-2.8057,-2.7549,-2.7363,-2.7197,-2.7021,-2.6768,-2.6641,-2.6641,-2.6367,-2.624,-2.624,-2.624,-2.624,-1.7754,-1.8574,-1.9756,-2.1455,-2.2666,-2.4027,-2.6514,-2.7412,-2.7885,-2.8213,-2.7676,-2.7256,-2.7708,-2.7402,-2.7266,-2.7708,-2.8047,-2.8291,-2.8291,-2.8623,-2.8721,-2.834,-2.8633,-2.8711,-2.833,-2.8291,-2.8291,-2.8291,-2.8291,-2.8291,-2.8291,-2.8291,-2.8291,-2.8291,-2.8291,-2.8291,-2.8291,-2.8291,-2.8291,-2.8291,-2.8291,-2.8291,-2.8291,-2.8291,-2.8291,-2.8291,-2.8291,-2.8291,-2.8291,-2.8291,-2.8291,-2.833,-2.875,-2.9189,-2.9675,-3.0039,-3.0488,-3.0889,-3.0889,-3.0889,-3.0889,-3.0889,-3.0889,-3.0889,-3.0889,-3.0889,-3.0889,-3.0889,-3.0889,-3.0889,-3.0889,-3.0889,-3.0889,-3.0889,-3.0889,-3.0889,-3.0889,-3.0889,-3.0889,-3.0889,-3.0889,-3.0889,-3.0889,-3.0889,-3.0752,-3.0322,-2.9902,-2.9482,-2.9092,-2.9004,-2.8828,-2.8447,-2.8369,-2.835,-2.835,-2.831,-2.8291,-2.8291,-2.8291,-2.8291,-2.8291,-2.793,-2.7529,-2.7139,-2.709,-2.707,-2.707,-2.7031,-2.7012,-2.7012,-2.7012,-2.7012,-1.6682,-1.8096,-2.0117,-2.1533,-2.3799,-2.6016,-2.7246,-2.7851,-2.8184,-2.8271,-2.8144,-2.8047,-2.8135,-2.8076,-2.8047,-2.8144,-2.8232,-2.8291,-2.8291,-2.8369,-2.8398,-2.8301,-2.8369,-2.8389,-2.8301,-2.8291,-2.8291,-2.8291,-2.8291,-2.8291,-2.8291,-2.8291,-2.8291,-2.8291,-2.8291,-2.8291,-2.8291,-2.8291,-2.8291,-2.8291,-2.8291,-2.8291,-2.8291,-2.8291,-2.8291,-2.8291,-2.8291,-2.8291,-2.8291,-2.8291,-2.8291,-2.833,-2.875,-2.9189,-2.9675,-3.0039,-3.0488,-3.0889,-3.0889,-3.0889,-3.0889,-3.0889,-3.0889,-3.0889,-3.0889,-3.0889,-3.0889,-3.0889,-3.0889,-3.0889,-3.0889,-3.0889,-3.0889,-3.0889,-3.0889,-3.0889,-3.0889,-3.0889,-3.0889,-3.0889,-3.0889,-3.0889,-3.0889,-3.0889,-3.0859,-3.0752,-3.0351,-3.0029,-2.9932,-2.9629,-2.9394,-2.9307,-2.8984,-2.8779,-2.8779,-2.8476,-2.8291,-2.8291,-2.8291,-2.8291,-2.8291,-2.8203,-2.8115,-2.8018,-2.7695,-2.7529,-2.7529,-2.7178,-2.7012,-2.7012,-2.7012,-2.7012,-1.7425,-1.8922,-2.0732,-2.2924,-2.5059,-2.6865,-2.7571,-2.7988,-2.8291,-2.8291,-2.8291,-2.8291,-2.8291,-2.8291,-2.8291,-2.8291,-2.8291,-2.8291,-2.8291,-2.8291,-2.8291,-2.8291,-2.8291,-2.8291,-2.8291,-2.8291,-2.8291,-2.8291,-2.8291,-2.8291,-2.8291,-2.8291,-2.8291,-2.8291,-2.8291,-2.8291,-2.8291,-2.8291,-2.8291,-2.8291,-2.8291,-2.8291,-2.8291,-2.8291,-2.8291,-2.8291,-2.8291,-2.8291,-2.8291,-2.8291,-2.8291,-2.831,-2.8535,-2.9014,-2.9655,-2.9814,-3.0322,-3.0889,-3.0889,-3.0889,-3.0889,-3.0889,-3.0889,-3.0889,-3.0889,-3.0889,-3.0889,-3.0889,-3.0889,-3.0889,-3.0889,-3.0889,-3.0889,-3.0889,-3.0889,-3.0889,-3.0889,-3.0889,-3.0889,-3.0889,-3.0889,-3.0889,-3.0889,-3.0889,-3.0889,-3.0889,-3.0684,-3.0449,-3.0225,-3.0,-2.9795,-2.959,-2.9365,-2.9238,-2.9238,-2.8838,-2.8594,-2.8594,-2.8408,-2.8291,-2.8291,-2.8291,-2.8291,-2.8291,-2.8076,-2.7969,-2.7969,-2.7734,-2.7627,-2.7627,-2.7627,-2.7627,-1.8037,-1.9678,-2.1525,-2.4401,-2.5996,-2.7041,-2.7601,-2.7939,-2.8203,-2.8281,-2.8291,-2.8291,-2.8291,-2.8291,-2.8291,-2.8291,-2.8291,-2.8291,-2.8291,-2.8291,-2.8291,-2.8291,-2.8291,-2.8291,-2.8291,-2.8291,-2.8291,-2.8291,-2.8291,-2.8291,-2.8291,-2.8291,-2.8291,-2.8291,-2.8291,-2.8291,-2.8291,-2.8291,-2.8291,-2.8291,-2.8291,-2.8291,-2.8291,-2.8291,-2.8291,-2.8291,-2.8291,-2.8291,-2.8291,-2.8291,-2.8291,-2.8291,-2.8291,-2.8818,-2.9626,-2.9626,-3.0137,-3.0889,-3.0889,-3.0889,-3.0889,-3.0889,-3.0889,-3.0889,-3.0889,-3.0889,-3.0889,-3.0889,-3.0889,-3.0889,-3.0889,-3.0889,-3.0889,-3.0889,-3.0889,-3.0889,-3.0889,-3.0889,-3.0889,-3.0889,-3.0889,-3.0889,-3.0889,-3.0889,-3.0889,-3.0889,-3.0889,-3.0752,-3.0361,-3.0322,-3.0185,-2.9834,-2.9726,-2.9678,-2.9678,-2.9277,-2.9033,-2.9033,-2.8711,-2.8476,-2.8408,-2.8398,-2.8369,-2.8291,-2.8291,-2.8291,-2.8291,-2.8291,-2.8291,-2.8291,-2.8291,-2.8291,-1.584,-1.876,-2.2256,-2.4548,-2.582,-2.668,-2.748,-2.7767,-2.7851,-2.8223,-2.8291,-2.8291,-2.8291,-2.8291,-2.8291,-2.8291,-2.8291,-2.8291,-2.8291,-2.8291,-2.8291,-2.8291,-2.8291,-2.8291,-2.8291,-2.8291,-2.8291,-2.8291,-2.8291,-2.8291,-2.8291,-2.8291,-2.8291,-2.8291,-2.8291,-2.8291,-2.8291,-2.8291,-2.8291,-2.8291,-2.8291,-2.8291,-2.8291,-2.8291,-2.8291,-2.8291,-2.8291,-2.8291,-2.8291,-2.8291,-2.8291,-2.8291,-2.8291,-2.8818,-2.9626,-2.9626,-3.0137,-3.0889,-3.0889,-3.0889,-3.0889,-3.0889,-3.0889,-3.0889,-3.0889,-3.0889,-3.0889,-3.0889,-3.0889,-3.0889,-3.0889,-3.0889,-3.0889,-3.0889,-3.0889,-3.0889,-3.0889,-3.0889,-3.0889,-3.0889,-3.0889,-3.0889,-3.0889,-3.0889,-3.0889,-3.0889,-3.0889,-3.0869,-3.0801,-3.0801,-3.0781,-3.0723,-3.0351,-3.0107,-3.0107,-2.9726,-2.9482,-2.9482,-2.9489,-2.9228,-2.8848,-2.8838,-2.8662,-2.8301,-2.8291,-2.8291,-2.8291,-2.8291,-2.8291,-2.8291,-2.8291,-2.8291,-1.7061,-1.9687,-2.2344,-2.4238,-2.5371,-2.6182,-2.6807,-2.7139,-2.7422,-2.7851,-2.7939,-2.8018,-2.8252,-2.8291,-2.8291,-2.8291,-2.8291,-2.8291,-2.8291,-2.8291,-2.8291,-2.8291,-2.8291,-2.8291,-2.8291,-2.8291,-2.8291,-2.8291,-2.8291,-2.8291,-2.8291,-2.8291,-2.8291,-2.8291,-2.8291,-2.8291,-2.8291,-2.8291,-2.8291,-2.8291,-2.8291,-2.8291,-2.8291,-2.8291,-2.8291,-2.8291,-2.8291,-2.8291,-2.8291,-2.8291,-2.8291,-2.8291,-2.8291,-2.8818,-2.9626,-2.9626,-3.0137,-3.0889,-3.0889,-3.0889,-3.0889,-3.0889,-3.0889,-3.0889,-3.0889,-3.0889,-3.0889,-3.0889,-3.0889,-3.0889,-3.0889,-3.0889,-3.0889,-3.0889,-3.0889,-3.0889,-3.0889,-3.0889,-3.0889,-3.0889,-3.0889,-3.0889,-3.0889,-3.0889,-3.0889,-3.0889,-3.0889,-3.0889,-3.0889,-3.0889,-3.0889,-3.0889,-3.0703,-3.0586,-3.0586,-3.0176,-2.9922,-2.9922,-2.9697,-2.9482,-2.9287,-2.9287,-2.9082,-2.8652,-2.8408,-2.8291,-2.8291,-2.8291,-2.8291,-2.8291,-2.8291,-2.8291,-1.7764,-1.9746,-2.1367,-2.3291,-2.4512,-2.541,-2.6074,-2.6465,-2.6846,-2.7393,-2.75,-2.7598,-2.791,-2.8144,-2.8291,-2.8291,-2.8291,-2.8291,-2.8291,-2.8291,-2.8291,-2.8291,-2.8291,-2.8291,-2.8291,-2.8291,-2.8291,-2.8291,-2.8291,-2.8291,-2.8291,-2.8291,-2.8291,-2.8291,-2.8291,-2.8291,-2.8291,-2.8291,-2.8291,-2.8291,-2.8291,-2.8291,-2.8291,-2.8291,-2.8291,-2.8291,-2.8291,-2.8291,-2.8291,-2.8291,-2.8291,-2.8291,-2.8291,-2.8818,-2.9626,-2.9626,-3.0137,-3.0889,-3.0889,-3.0889,-3.0889,-3.0889,-3.0889,-3.0889,-3.0889,-3.0889,-3.0889,-3.0889,-3.0889,-3.0889,-3.0889,-3.0889,-3.0889,-3.0889,-3.0889,-3.0889,-3.0889,-3.0889,-3.0889,-3.0889,-3.0889,-3.0889,-3.0889,-3.0889,-3.0889,-3.0889,-3.0889,-3.0889,-3.0889,-3.0889,-3.0889,-3.0889,-3.0889,-3.0889,-3.0889,-3.0576,-3.0371,-3.0371,-3.0078,-2.9853,-2.9736,-2.9726,-2.9521,-2.9092,-2.8672,-2.8398,-2.8291,-2.8291,-2.8291,-2.8291,-2.8291,-2.8291,-1.6122,-1.7486,-1.8828,-2.1387,-2.2959,-2.4219,-2.544,-2.5742,-2.5996,-2.6875,-2.7051,-2.7051,-2.708,-2.7744,-2.8291,-2.8291,-2.8291,-2.8291,-2.8291,-2.8291,-2.8291,-2.8291,-2.8291,-2.8291,-2.8291,-2.8291,-2.8291,-2.8291,-2.8291,-2.8291,-2.8291,-2.8291,-2.8291,-2.8291,-2.8291,-2.8291,-2.8291,-2.8291,-2.8291,-2.8291,-2.8291,-2.8291,-2.8291,-2.8291,-2.8291,-2.8291,-2.8291,-2.8291,-2.8291,-2.8291,-2.8291,-2.8291,-2.8291,-2.8818,-2.9626,-2.9626,-3.0137,-3.0889,-3.0889,-3.0889,-3.0889,-3.0889,-3.0889,-3.0889,-3.0889,-3.0889,-3.0889,-3.0889,-3.0889,-3.0889,-3.0889,-3.0889,-3.0889,-3.0889,-3.0889,-3.0889,-3.0889,-3.0889,-3.0889,-3.0889,-3.0889,-3.0889,-3.0889,-3.0889,-3.0889,-3.0889,-3.0889,-3.0889,-3.0889,-3.0889,-3.0889,-3.0889,-3.0889,-3.0889,-3.0889,-3.0869,-3.0859,-3.0859,-3.083,-3.0625,-3.0185,-3.0166,-2.9971,-2.9541,-2.9111,-2.8691,-2.8291,-2.8291,-2.8291,-2.8291,-2.8291,-2.8291,-1.5459,-1.6728,-1.8096,-2.0117,-2.1602,-2.2832,-2.3793,-2.4717,-2.5478,-2.6074,-2.6416,-2.6699,-2.6963,-2.7266,-2.7471,-2.7471,-2.7715,-2.7891,-2.7891,-2.8125,-2.8291,-2.8291,-2.8057,-2.7891,-2.7891,-2.7637,-2.7471,-2.7471,-2.7471,-2.7471,-2.7471,-2.7471,-2.7471,-2.7471,-2.7744,-2.8018,-2.8291,-2.8291,-2.8291,-2.8291,-2.8291,-2.8291,-2.8291,-2.8291,-2.8291,-2.8291,-2.8291,-2.8291,-2.8291,-2.8291,-2.8291,-2.8291,-2.8291,-2.8818,-2.9626,-2.9626,-3.0137,-3.0889,-3.0889,-3.0889,-3.0889,-3.0889,-3.0889,-3.0889,-3.0889,-3.0889,-3.0889,-3.0889,-3.0889,-3.0889,-3.0889,-3.0889,-3.0889,-3.0889,-3.0889,-3.0889,-3.0889,-3.0889,-3.0889,-3.0889,-3.0889,-3.0889,-3.0889,-3.0889,-3.0889,-3.0889,-3.0889,-3.0889,-3.0889,-3.0889,-3.0889,-3.0889,-3.0889,-3.0889,-3.0889,-3.0889,-3.0889,-3.0889,-3.0889,-3.081,-3.0644,-3.0644,-3.043,-2.998,-2.9824,-2.9394,-2.8691,-2.8428,-2.8291,-2.8291,-2.8291,-2.8291,-1.4591,-1.5723,-1.7168,-1.9023,-2.0039,-2.1074,-2.293,-2.3691,-2.4287,-2.5303,-2.5742,-2.6074,-2.6504,-2.6582,-2.668,-2.6973,-2.7256,-2.7451,-2.7451,-2.7685,-2.7861,-2.7861,-2.7617,-2.7451,-2.7451,-2.7187,-2.7012,-2.7012,-2.7012,-2.7012,-2.7012,-2.7012,-2.7012,-2.7012,-2.7295,-2.7646,-2.8076,-2.8086,-2.8154,-2.8291,-2.8291,-2.8291,-2.8291,-2.8291,-2.8291,-2.8291,-2.8291,-2.8291,-2.8291,-2.8291,-2.8291,-2.8291,-2.8291,-2.8818,-2.9626,-2.9626,-3.0137,-3.0889,-3.0889,-3.0889,-3.0889,-3.0889,-3.0889,-3.0889,-3.0889,-3.0889,-3.0889,-3.0889,-3.0889,-3.0889,-3.0889,-3.0889,-3.0889,-3.0889,-3.0889,-3.0889,-3.0889,-3.0889,-3.0889,-3.0889,-3.0889,-3.0889,-3.0889,-3.0889,-3.0889,-3.0889,-3.0889,-3.0889,-3.0889,-3.0889,-3.0889,-3.0889,-3.0889,-3.0889,-3.0889,-3.0889,-3.0889,-3.0889,-3.0889,-3.0889,-3.0889,-3.0889,-3.0742,-3.043,-3.0273,-2.9922,-2.9346,-2.8926,-2.8643,-2.8506,-2.8506,-2.8428,0.0,0.0,0.0,-1.7964,-1.8198,-1.8945,-2.2754,-2.2685,-2.2412,-2.4597,-2.5037,-2.5146,-2.5577,-2.5664,-2.5947,-2.6836,-2.6982,-2.6992,-2.6992,-2.7012,-2.7012,-2.7012,-2.7002,-2.6992,-2.6992,-2.6982,-2.6982,-2.6982,-2.6982,-2.6982,-2.6982,-2.6982,-2.6982,-2.6992,-2.6992,-2.7207,-2.7689,-2.7708,-2.7924,-2.8271,-2.8281,-2.8291,-2.8291,-2.8291,-2.8291,-2.8291,-2.8291,-2.8291,-2.8291,-2.8291,-2.8291,-2.8291,-2.8301,-2.8828,-2.9626,-2.9636,-3.0137,-3.0889,-3.0889,-3.0889,-3.0889,-3.0889,-3.0889,-3.0889,-3.0889,-3.0889,-3.0889,-3.0889,-3.0889,-3.0889,-3.0889,-3.0889,-3.0889,-3.0889,-3.0889,-3.0889,-3.0889,-3.0889,-3.0889,-3.0889,-3.0889,-3.0889,-3.0889,-3.0889,-3.0889,-3.0889,-3.0889,-3.0889,-3.0889,-3.0889,-3.0889,-3.0889,-3.0889,-3.0889,-3.0889,-3.0889,-3.0889,-3.0889,-3.0889,-3.0889,-3.0889,-3.0889,-3.0889,-3.0889,-3.0449,-3.0215,-3.0215,-2.9785,-2.9355,-2.8935,-2.8935,-2.8721,-1.3584,0.0,0.0,0.0,0.0,0.0,-1.915,-1.9814,-2.0615,-2.2773,-2.3223,-2.3633,-2.5,-2.5254,-2.5439,-2.5947,-2.6357,-2.6562,-2.6562,-2.6826,-2.7012,-2.7012,-2.6748,-2.6562,-2.6562,-2.6279,-2.6044,-2.6044,-2.6044,-2.6044,-2.6044,-2.6044,-2.624,-2.6553,-2.6562,-2.6768,-2.7197,-2.751,-2.7777,-2.7894,-2.8144,-2.8291,-2.8291,-2.8291,-2.8291,-2.8291,-2.8291,-2.8291,-2.8291,-2.8291,-2.8291,-2.832,-2.8633,-2.9082,-2.9665,-2.9912,-3.0391,-3.0889,-3.0889,-3.0889,-3.0889,-3.0889,-3.0889,-3.0889,-3.0889,-3.0889,-3.0889,-3.0889,-3.0889,-3.0889,-3.0889,-3.0889,-3.0889,-3.0889,-3.0889,-3.0889,-3.0889,-3.0889,-3.0889,-3.0889,-3.0889,-3.0889,-3.0889,-3.0889,-3.0889,-3.0889,-3.0889,-3.0889,-3.0889,-3.0889,-3.0889,-3.0889,-3.0889,-3.0889,-3.0889,-3.0889,-3.0889,-3.0889,-3.0889,-3.0889,-3.0889,-3.0889,-3.0889,-3.0889,-3.0762,-3.0703,-3.0703,-2.9941,-2.9512,-2.9394,-2.9394,-2.9326,-1.4258,-1.4696,-1.5439,-1.5781,0.0,0.0,-1.8535,-1.8916,-1.9521,-2.2227,-2.2783,-2.3184,-2.4541,-2.4795,-2.4941,-2.5381,-2.5674,-2.5908,-2.6084,-2.6328,-2.6484,-2.6484,-2.626,-2.6113,-2.6113,-2.584,-2.5693,-2.5693,-2.5693,-2.5693,-2.5693,-2.5693,-2.581,-2.6113,-2.6113,-2.6318,-2.6748,-2.7178,-2.749,-2.7718,-2.8096,-2.8291,-2.8291,-2.8291,-2.8291,-2.8291,-2.8291,-2.8291,-2.8291,-2.8291,-2.8291,-2.833,-2.875,-2.9189,-2.9675,-3.0039,-3.0488,-3.0889,-3.0889,-3.0889,-3.0889,-3.0889,-3.0889,-3.0889,-3.0889,-3.0889,-3.0889,-3.0889,-3.0889,-3.0889,-3.0889,-3.0889,-3.0889,-3.0889,-3.0889,-3.0889,-3.0889,-3.0889,-3.0889,-3.0889,-3.0889,-3.0889,-3.0889,-3.0889,-3.0889,-3.0889,-3.0889,-3.0889,-3.0889,-3.0889,-3.0889,-3.0889,-3.0889,-3.0889,-3.0889,-3.0889,-3.0889,-3.0889,-3.0889,-3.0889,-3.0889,-3.0889,-3.0889,-3.0889,-3.0889,-3.0889,-3.0889,-3.0371,-3.0019,-2.9824,-2.9704,-2.9626,-1.54,-1.5694,0.0,-1.7112,-1.6212,0.0,-1.9284,-1.8926,-1.8838,-2.2012,-2.2646,-2.2886,-2.3887,-2.4102,-2.4268,-2.4695,-2.4881,-2.5117,-2.5615,-2.5693,-2.5693,-2.5693,-2.5693,-2.5693,-2.5693,-2.5693,-2.5693,-2.5693,-2.5693,-2.5693,-2.5693,-2.5693,-2.5693,-2.5693,-2.5693,-2.5918,-2.6309,-2.6777,-2.7207,-2.765,-2.8066,-2.8291,-2.8291,-2.8291,-2.8291,-2.8291,-2.8291,-2.8291,-2.8291,-2.8291,-2.832,-2.8408,-2.8828,-2.9258,-2.9744,-3.0117,-3.0537,-3.0889,-3.0889,-3.0889,-3.0889,-3.0889,-3.0889,-3.0889,-3.0889,-3.0889,-3.0889,-3.0889,-3.0889,-3.0889,-3.0889,-3.0889,-3.0889,-3.0889,-3.0889,-3.0889,-3.0889,-3.0889,-3.0889,-3.0889,-3.0889,-3.0889,-3.0889,-3.0889,-3.0889,-3.0889,-3.0889,-3.0889,-3.0889,-3.0889,-3.0889,-3.0889,-3.0889,-3.0889,-3.0889,-3.0889,-3.0889,-3.0889,-3.0889,-3.0889,-3.0889,-3.0889,-3.0889,-3.0889,-3.0889,-3.0889,-3.0889,-3.0889,-3.0674,-3.0264,-2.9893,-2.9717,-1.7041,-1.7246,-1.7422,-1.6574,-1.6855,0.0,-1.6562,-1.6982,-1.7891,-1.9202,-1.9485,-1.9952,-2.1522,-2.2139,-2.2412,-2.249,-2.3369,-2.4434,-2.5528,-2.5693,-2.5693,-2.5693,-2.5693,-2.5693,-2.5693,-2.5693,-2.5693,-2.5693,-2.5693,-2.5693,-2.5693,-2.5693,-2.5693,-2.5693,-2.5693,-2.5732,-2.5859,-2.6631,-2.706,-2.7148,-2.792,-2.8291,-2.8291,-2.8291,-2.8291,-2.8291,-2.8291,-2.8291,-2.8291,-2.8291,-2.8496,-2.8838,-2.9277,-2.9707,-3.0127,-3.0586,-3.081,-3.0889,-3.0889,-3.0889,-3.0889,-3.0889,-3.0889,-3.0889,-3.0889,-3.0889,-3.0889,-3.0889,-3.0889,-3.0889,-3.0889,-3.0889,-3.0889,-3.0889,-3.0889,-3.0889,-3.0889,-3.0889,-3.0889,-3.0889,-3.0889,-3.0889,-3.0889,-3.0889,-3.0889,-3.0889,-3.0889,-3.0889,-3.0889,-3.0889,-3.0889,-3.0889,-3.0889,-3.0889,-3.0889,-3.0889,-3.0889,-3.0889,-3.0889,-3.0889,-3.0889,-3.0889,-3.0889,-3.0889,-3.0889,-3.0889,-3.0889,-3.0889,-3.084,-3.0752,-3.0674,-3.0635,-1.8242,-1.832,-1.8486,-1.7866,-1.7686,0.0,0.0,-1.7197,-1.7549,-1.9248,-1.9092,-1.9065,-2.0625,-2.0898,-2.1123,-2.1777,-2.2598,-2.3535,-2.4609,-2.4951,-2.5031,-2.5031,-2.5031,-2.5118,-2.5381,-2.54,-2.5498,-2.5674,-2.5693,-2.5693,-2.5693,-2.5693,-2.5693,-2.5693,-2.5693,-2.5693,-2.5693,-2.6582,-2.7012,-2.7021,-2.7881,-2.8291,-2.8291,-2.8291,-2.8291,-2.8291,-2.8291,-2.8291,-2.8291,-2.8291,-2.8662,-2.9268,-2.9482,-2.9824,-3.0254,-3.0723,-3.0889,-3.0889,-3.0889,-3.0889,-3.0889,-3.0889,-3.0889,-3.0889,-3.0889,-3.0889,-3.0889,-3.0889,-3.0889,-3.0889,-3.0889,-3.0889,-3.0889,-3.0889,-3.0889,-3.0889,-3.0889,-3.0889,-3.0889,-3.0889,-3.0889,-3.0889,-3.0889,-3.0889,-3.0889,-3.0889,-3.0889,-3.0889,-3.0889,-3.0889,-3.0889,-3.0889,-3.0889,-3.0889,-3.0889,-3.0889,-3.0889,-3.0889,-3.0889,-3.0889,-3.0889,-3.0889,-3.0889,-3.0889,-3.0889,-3.0889,-3.0889,-3.0889,-3.0889,-3.0889,-3.0889,-3.0889,-1.959,-1.9639,-1.9912,-1.9414,-1.8828,-1.8447,0.0,0.0,0.0,-1.9607,-1.918,-1.8838,-1.992,-1.9785,-1.9902,-2.0967,-2.1631,-2.2256,-2.2949,-2.3486,-2.3926,-2.4258,-2.4365,-2.4551,-2.4912,-2.4795,-2.4912,-2.5391,-2.5362,-2.5391,-2.5596,-2.5645,-2.5693,-2.5693,-2.5693,-2.5693,-2.5693,-2.6582,-2.7012,-2.7021,-2.7881,-2.8291,-2.8291,-2.8291,-2.8291,-2.8291,-2.8291,-2.8291,-2.8301,-2.8379,-2.8867,-2.9626,-2.9626,-2.9883,-3.0371,-3.0752,-3.0889,-3.0889,-3.0889,-3.0889,-3.0889,-3.0889,-3.0889,-3.0889,-3.0889,-3.0889,-3.0889,-3.0889,-3.0889,-3.0889,-3.0889,-3.0889,-3.0889,-3.0889,-3.0889,-3.0889,-3.0889,-3.0889,-3.0889,-3.0889,-3.0889,-3.0889,-3.0889,-3.0889,-3.0889,-3.0889,-3.0889,-3.0889,-3.0889,-3.0889,-3.0889,-3.0889,-3.0889,-3.0889,-3.0889,-3.0889,-3.0889,-3.0889,-3.0889,-3.0889,-3.0889,-3.0889,-3.0889,-3.0889,-3.0889,-3.0889,-3.0889,-3.0889,-3.0889,-3.0889,-3.0889,-3.0889,0.0,0.0,0.0,-1.9853,-2.0615,-2.1074,-1.774,0.0,-1.876,-1.7954,0.0,-1.8125,-1.8271,0.0,0.0,-1.8428,-1.9443,-2.0244,-2.0342,-2.1034,-2.2158,-2.3682,-2.4189,-2.4434,-2.4482,-2.3799,-2.3647,-2.4512,-2.4228,-2.4346,-2.5155,-2.5518,-2.5693,-2.5693,-2.5693,-2.5693,-2.5693,-2.6582,-2.7012,-2.7021,-2.7881,-2.8291,-2.8291,-2.8291,-2.8291,-2.8291,-2.8291,-2.8291,-2.832,-2.8691,-2.9131,-2.9626,-2.9626,-3.0078,-3.082,-3.0869,-3.0889,-3.0889,-3.0889,-3.0889,-3.0889,-3.0889,-3.0889,-3.0889,-3.0889,-3.0889,-3.0889,-3.0889,-3.0889,-3.0889,-3.0889,-3.0889,-3.0889,-3.0889,-3.0889,-3.0889,-3.0889,-3.0889,-3.0889,-3.0889,-3.0889,-3.0889,-3.0889,-3.0889,-3.0889,-3.0889,-3.0889,-3.0889,-3.0889,-3.0889,-3.0889,-3.0889,-3.0889,-3.0889,-3.0889,-3.0889,-3.0889,-3.0889,-3.0889,-3.0889,-3.0889,-3.0889,-3.0889,-3.0889,-3.0889,-3.0889,-3.0889,-3.0889,-3.0889,-3.0889,-3.0889,-3.0889,0.0,0.0,0.0,0.0,0.0,0.0,-1.876,0.0,-1.8164,-1.8115,0.0,0.0,0.0,0.0,0.0,0.0,-1.8627,-1.9134,-1.9134,-1.9717,-2.0654,-2.2129,-2.2012,-2.21,-2.2871,-2.3076,-2.3506,-2.4355,-2.3789,-2.3896,-2.5057,-2.5244,-2.5469,-2.5684,-2.5693,-2.5693,-2.5693,-2.6582,-2.7012,-2.7021,-2.7881,-2.8291,-2.8291,-2.8291,-2.8291,-2.8291,-2.8291,-2.8291,-2.833,-2.875,-2.918,-2.959,-2.9834,-3.0322,-3.0889,-3.0889,-3.0889,-3.0889,-3.0889,-3.0889,-3.0889,-3.0889,-3.0889,-3.0889,-3.0889,-3.0889,-3.0889,-3.0889,-3.0889,-3.0889,-3.0889,-3.0889,-3.0889,-3.0889,-3.0889,-3.0889,-3.0889,-3.0889,-3.0889,-3.0889,-3.0889,-3.0889,-3.0889,-3.0889,-3.0889,-3.0889,-3.0889,-3.0889,-3.0889,-3.0889,-3.0889,-3.0889,-3.0889,-3.0889,-3.0889,-3.0889,-3.0889,-3.0889,-3.0889,-3.0889,-3.0889,-3.0889,-3.0889,-3.0889,-3.0889,-3.0889,-3.0889,-3.0889,-3.0889,-3.0889,-3.0889,-3.0889,-2.2559,0.0,0.0,0.0,0.0,0.0,0.0,0.0,0.0,0.0,0.0,0.0,0.0,0.0,0.0,0.0,0.0,-1.852,-1.8286,-1.8457,-1.9111,-2.0498,-2.0449,-2.0703,-2.1777,-2.2119,-2.2725,-2.3809,-2.3062,-2.3232,-2.4695,-2.4988,-2.5215,-2.5547,-2.5625,-2.5693,-2.5693,-2.6582,-2.7012,-2.7021,-2.7881,-2.8291,-2.8291,-2.8291,-2.8291,-2.8291,-2.8291,-2.8291,-2.833,-2.8877,-2.9287,-2.9629,-3.0166,-3.0596,-3.0889,-3.0889,-3.0889,-3.0889,-3.0889,-3.0889,-3.0889,-3.0889,-3.0889,-3.0889,-3.0889,-3.0889,-3.0889,-3.0889,-3.0889,-3.0889,-3.0889,-3.0889,-3.0889,-3.0889,-3.0889,-3.0889,-3.0889,-3.0889,-3.0889,-3.0889,-3.0889,-3.0889,-3.0889,-3.0889,-3.0889,-3.0889,-3.0889,-3.0889,-3.0889,-3.0889,-3.0889,-3.0889,-3.0889,-3.0889,-3.0889,-3.0889,-3.0889,-3.0889,-3.0889,-3.0889,-3.0889,-3.0889,-3.0889,-3.0889,-3.0889,-3.0889,-3.0889,-3.0889,-3.0889,-3.0889,-3.0889,-3.0889,0.0,0.0,0.0,-2.1261,0.0,0.0,0.0,0.0,-1.9727,0.0,0.0,0.0,0.0,0.0,0.0,0.0,0.0,0.0,0.0,-1.707,-1.7408,-1.915,-2.0439,-2.1337,-2.1836,-2.0752,-2.0732,-2.2441,-2.1736,-2.2041,-2.374,-2.4666,-2.5125,-2.5135,-2.5508,-2.5693,-2.5693,-2.6582,-2.7012,-2.7021,-2.7881,-2.8291,-2.8291,-2.8291,-2.8291,-2.8291,-2.8291,-2.8291,-2.8359,-2.9199,-2.9616,-2.9714,-3.0527,-3.0879,-3.0889,-3.0889,-3.0889,-3.0889,-3.0889,-3.0889,-3.0889,-3.0889,-3.0889,-3.0889,-3.0889,-3.0889,-3.0889,-3.0889,-3.0889,-3.0889,-3.0889,-3.0889,-3.0889,-3.0889,-3.0889,-3.0889,-3.0889,-3.0889,-3.0889,-3.0889,-3.0889,-3.0889,-3.0889,-3.0889,-3.0889,-3.0889,-3.0889,-3.0889,-3.0889,-3.0889,-3.0889,-3.0889,-3.0889,-3.0889,-3.0889,-3.0889,-3.0889,-3.0889,-3.0889,-3.0889,-3.0889,-3.0889,-3.0889,-3.0889,-3.0889,-3.0889,-3.0889,-3.0889,-3.0889,-3.0889,-3.0889,-3.0889,0.0,0.0,-2.5518,-2.292,0.0,0.0,0.0,0.0,0.0,0.0,0.0,0.0,0.0,0.0,0.0,0.0,0.0,0.0,0.0,-1.5928,-1.5869,-1.7044,-1.8555,-1.9426,-1.9336,-1.9941,-2.0713,-2.1561,-2.1356,-2.1941,-2.3701,-2.4326,-2.4775,-2.5106,-2.5508,-2.583,-2.6162,-2.6728,-2.7158,-2.7451,-2.8018,-2.8291,-2.8291,-2.8291,-2.8291,-2.8291,-2.8291,-2.8447,-2.875,-2.9326,-2.9736,-3.0049,-3.0654,-3.0889,-3.0889,-3.0889,-3.0889,-3.0889,-3.0889,-3.0889,-3.0889,-3.0889,-3.0889,-3.0889,-3.0889,-3.0889,-3.0889,-3.0889,-3.0889,-3.0889,-3.0889,-3.0889,-3.0889,-3.0889,-3.0889,-3.0889,-3.0889,-3.0889,-3.0889,-3.0889,-3.0889,-3.0889,-3.0889,-3.0889,-3.0889,-3.0889,-3.0889,-3.0889,-3.0889,-3.0889,-3.0889,-3.0889,-3.0889,-3.0889,-3.0889,-3.0889,-3.0889,-3.0889,-3.0889,-3.0889,-3.0889,-3.0889,-3.0889,-3.0889,-3.0889,-3.0889,-3.0889,-3.0889,-3.0889,-3.0889,-3.0889,-3.0889,-2.6006,-2.6377,0.0,-2.4085,-2.3549,0.0,-2.0732,0.0,-2.1514,0.0,0.0,0.0,0.0,0.0,0.0,0.0,0.0,0.0,0.0,-1.5058,-1.5077,-1.5772,-1.7227,-1.832,-1.8652,-1.9141,-1.9932,-2.1103,-2.0761,-2.1357,-2.3232,-2.4023,-2.4551,-2.4824,-2.542,-2.5947,-2.6387,-2.6807,-2.7236,-2.7718,-2.8096,-2.8291,-2.8291,-2.8291,-2.8291,-2.8301,-2.8447,-2.8672,-2.8965,-2.9551,-2.9951,-3.0244,-3.0713,-3.0889,-3.0889,-3.0889,-3.0889,-3.0889,-3.0889,-3.0889,-3.0889,-3.0889,-3.0889,-3.0889,-3.0889,-3.0889,-3.0889,-3.0889,-3.0889,-3.0928,-3.1074,-3.1113,-3.1152,-3.1309,-3.1348,-3.1348,-3.1348,-3.1348,-3.1348,-3.1348,-3.1348,-3.1348,-3.1348,-3.1211,-3.1064,-3.0918,-3.0889,-3.0889,-3.0889,-3.0889,-3.0889,-3.0889,-3.0889,-3.0889,-3.0889,-3.0889,-3.0889,-3.0889,-3.0889,-3.0889,-3.0889,-3.0889,-3.0889,-3.0889,-3.0889,-3.0889,-3.0889,-3.0889,-3.0889,-3.0889,-3.0889,-3.0889]},{"header":{"parameterUnit":"m.s-1","parameterCategory":1,"la1":30.6,"la2":29.2853,"lo1":-89.7004,"lo2":-87.6739,"dy":0.0162,"dx":0.0183,"nx":112,"ny":82,"refTime":"2026-03-01T00:00:00:Z","depth":0,"parameterNumber":3,"parameterNumberName":"V-component_of_WINDS"},"data":[0.0,0.0,0.0,0.0,0.0,0.0,0.0,0.0,0.0,0.0,0.0,0.0,0.0,0.0,0.0,0.0,0.0,0.0,0.0,0.0,0.0,0.0,0.0,0.0,0.0,0.0,0.0,0.0,0.0,0.0,0.0,0.0,0.0,0.0,0.0,0.0,0.0,0.0,0.0,0.0,0.0,0.0,0.0,0.0,0.0,0.0,0.0,0.0,0.0,0.0,0.0,0.0,0.0,0.0,0.0,0.0,0.0,0.0,0.0,0.0,0.0,0.0,0.0,0.0,0.0,0.0,0.0,0.0,0.0,0.0,0.0,0.0,0.0,0.0,0.0,0.0,0.0,0.0,0.0,0.0,0.0,0.0,0.0,0.0,0.0,0.0,0.0,0.0,0.0,0.0,1.5648,1.7004,2.0241,2.2057,2.1427,2.1156,1.9836,1.7044,0.0,0.0,0.0,0.0,0.0,0.0,0.0,0.0,0.0,0.0,0.0,0.0,0.0,0.0,0.0,0.0,0.0,0.0,0.0,0.0,0.0,0.0,0.0,0.0,0.0,0.0,0.0,0.0,0.0,0.0,0.0,0.0,0.0,0.0,0.0,0.0,0.0,0.0,0.0,0.0,0.0,0.0,0.0,0.0,0.0,0.0,0.0,0.0,0.0,0.0,0.0,0.0,0.0,0.0,0.0,0.0,0.0,0.0,0.0,0.0,0.0,0.0,0.0,0.0,0.0,0.0,0.0,0.0,0.0,0.0,0.0,0.0,0.0,0.0,0.0,0.0,0.0,0.0,0.0,0.0,0.0,0.0,0.0,0.0,0.0,0.0,0.0,0.0,0.0,0.0,0.0,0.0,0.0,0.0,0.0,0.0,0.0,0.0,0.0,0.0,0.0,0.0,0.0,0.0,1.5927,2.0023,2.1569,2.2245,2.2127,2.0927,1.9456,1.7732,0.0,0.0,0.0,0.0,0.0,0.0,0.0,0.0,0.0,0.0,0.0,0.0,0.0,0.0,0.0,0.0,0.0,0.0,0.0,0.0,0.0,0.0,0.0,0.0,0.0,0.0,0.0,0.0,0.0,0.0,0.0,0.0,0.0,0.0,0.0,0.0,0.0,0.0,0.0,0.0,0.0,0.0,0.0,0.0,0.0,0.0,0.0,0.0,0.0,0.0,0.0,0.0,0.0,0.0,0.0,0.0,0.0,0.0,0.0,0.0,0.0,0.0,0.0,0.0,0.0,0.0,0.0,0.0,0.0,0.0,0.0,0.0,0.0,0.0,0.0,0.0,0.0,0.0,0.0,0.0,0.0,0.0,0.0,0.0,0.0,0.0,0.0,0.0,0.0,0.0,0.0,0.0,0.0,0.0,0.0,0.0,0.0,0.0,0.0,0.0,0.0,0.0,0.0,1.582,1.7597,2.1397,2.2107,2.2296,2.2296,2.1295,1.9841,1.7918,1.5721,0.0,0.0,0.0,0.0,0.0,0.0,0.0,0.0,0.0,0.0,0.0,0.0,0.0,0.0,0.0,0.0,0.0,0.0,0.0,0.0,0.0,0.0,0.0,0.0,0.0,0.0,0.0,0.0,0.0,0.0,0.0,0.0,0.0,0.0,0.0,0.0,0.0,0.0,0.0,0.0,0.0,0.0,0.0,0.0,0.0,0.0,0.0,0.0,0.0,0.0,0.0,0.0,0.0,0.0,0.0,0.0,0.0,0.0,0.0,0.0,0.0,0.0,0.0,0.0,0.0,0.0,0.0,0.0,0.0,0.0,0.0,0.0,0.0,0.0,0.0,0.0,0.0,0.0,0.0,0.0,0.0,0.0,0.0,0.0,0.0,0.0,0.0,0.0,0.0,0.0,0.0,0.0,0.0,0.0,0.0,0.0,0.0,0.0,0.0,0.0,0.0,0.0,1.8219,1.9338,2.2009,2.2296,2.2296,2.2296,2.1278,1.9853,1.7918,1.5399,0.0,0.0,0.0,0.0,0.0,0.0,0.0,0.0,0.0,0.0,0.0,0.0,0.0,0.0,0.0,0.0,0.0,0.0,0.0,0.0,0.0,0.0,0.0,0.0,0.0,0.0,0.0,0.0,0.0,0.0,0.0,0.0,0.0,0.0,0.0,0.0,0.0,0.0,0.0,0.0,0.0,0.0,0.0,0.0,0.0,0.0,0.0,0.0,0.0,0.0,0.0,0.0,0.0,0.0,0.0,0.0,0.0,0.0,0.0,0.0,0.0,0.0,0.0,0.0,0.0,0.0,0.0,0.0,0.0,0.0,0.0,0.0,0.0,0.0,0.0,0.0,0.0,0.0,0.0,0.0,0.0,0.0,0.0,0.0,0.0,0.0,0.0,0.0,0.0,0.0,0.0,0.0,0.0,0.0,0.0,0.0,0.0,0.0,0.0,0.0,0.0,0.0,1.8594,2.0475,2.211,2.2296,2.2296,2.2296,2.0314,1.8691,1.785,1.4445,0.0,0.0,0.0,0.0,0.0,0.0,0.0,0.0,0.0,0.0,0.0,0.0,0.0,0.0,0.0,0.0,0.0,0.0,0.0,0.0,0.0,0.0,0.0,0.0,0.0,0.0,0.0,0.0,0.0,0.0,0.0,0.0,0.0,0.0,0.0,0.0,0.0,0.0,0.0,0.0,0.0,0.0,0.0,0.0,0.0,0.0,0.0,0.0,0.0,0.0,0.0,0.0,0.0,0.0,0.0,0.0,0.0,0.0,0.0,0.0,0.0,0.0,0.0,0.0,0.0,0.0,0.0,0.0,0.0,0.0,0.0,0.0,0.0,0.0,0.0,0.0,0.0,0.0,0.0,0.0,0.0,0.0,0.0,0.0,0.0,0.0,0.0,0.0,0.0,0.0,0.0,0.0,0.0,0.0,0.0,0.0,0.0,0.0,0.0,0.0,0.0,0.0,1.8814,2.0589,2.2144,2.2296,2.2296,2.2296,2.1092,1.9604,1.7901,0.0,0.0,0.0,0.0,0.0,0.0,0.0,0.0,0.0,0.0,0.0,0.0,0.0,0.0,0.0,0.0,0.0,0.0,0.0,0.0,0.0,0.0,0.0,0.0,0.0,0.0,0.0,0.0,0.0,0.0,0.0,0.0,0.0,0.0,0.0,0.0,0.0,0.0,0.0,0.0,0.0,0.0,0.0,0.0,0.0,0.0,0.0,0.0,0.0,0.0,0.0,0.0,0.0,0.0,0.0,0.0,0.0,0.0,0.0,0.0,0.0,0.0,0.0,0.0,0.0,0.0,0.0,0.0,0.0,0.0,0.0,0.0,0.0,0.0,0.0,0.0,0.0,0.0,0.0,0.0,0.0,0.0,0.0,0.0,0.0,0.0,0.0,0.0,0.0,0.0,0.0,0.0,0.0,0.0,0.0,0.0,0.0,0.0,0.0,0.0,0.0,0.0,1.717,1.9201,2.0876,2.2161,2.2296,2.2296,2.2296,2.1177,1.9616,1.7574,0.0,0.0,0.0,0.0,0.0,0.0,0.0,0.0,0.0,0.0,0.0,0.0,0.0,0.0,0.0,0.0,0.0,0.0,0.0,0.0,0.0,0.0,0.0,0.0,0.0,0.0,0.0,0.0,0.0,0.0,0.0,0.0,0.0,0.0,0.0,0.0,0.0,0.0,0.0,0.0,0.0,0.0,0.0,0.0,0.0,0.0,0.0,0.0,0.0,0.0,0.0,0.0,0.0,0.0,0.0,0.0,0.0,0.0,0.0,0.0,0.0,0.0,0.0,0.0,0.0,0.0,0.0,0.0,0.0,0.0,0.0,0.0,0.0,0.0,0.0,0.0,0.0,0.0,0.0,0.0,0.0,0.0,0.0,0.0,0.0,0.0,0.0,0.0,0.0,0.0,0.0,0.0,0.0,0.0,0.0,0.0,0.0,0.0,0.0,0.0,0.0,0.0,1.7501,1.979,2.1495,2.2212,2.2296,2.2296,2.2296,2.023,1.8279,0.0,0.0,0.0,0.0,0.0,0.0,0.0,0.0,0.0,0.0,0.0,0.0,0.0,0.0,0.0,0.0,0.0,0.0,0.0,0.0,0.0,0.0,0.0,0.0,0.0,0.0,0.0,0.0,0.0,0.0,0.0,0.0,0.0,0.0,0.0,0.0,0.0,0.0,0.0,0.0,0.0,0.0,0.0,0.0,0.0,0.0,0.0,0.0,0.0,0.0,0.0,0.0,0.0,0.0,0.0,0.0,0.0,0.0,0.0,0.0,0.0,0.0,0.0,0.0,0.0,0.0,0.0,0.0,0.0,0.0,0.0,0.0,0.0,0.0,0.0,0.0,0.0,0.0,0.0,0.0,0.0,0.0,0.0,0.0,0.0,0.0,0.0,0.0,0.0,0.0,0.0,0.0,0.0,0.0,0.0,0.0,0.0,0.0,0.0,0.0,0.0,0.0,0.0,1.758,2.0247,2.2073,2.2279,2.2296,2.2296,2.2296,2.069,1.9051,1.7574,0.0,0.0,0.0,0.0,0.0,0.0,0.0,0.0,0.0,0.0,0.0,0.0,0.0,0.0,0.0,0.0,0.0,0.0,0.0,0.0,0.0,0.0,0.0,0.0,0.0,0.0,0.0,0.0,0.0,0.0,0.0,0.0,0.0,0.0,0.0,0.0,0.0,0.0,0.0,0.0,0.0,0.0,0.0,0.0,0.0,0.0,0.0,0.0,0.0,0.0,0.0,0.0,0.0,0.0,0.0,0.0,0.0,0.0,0.0,0.0,0.0,0.0,0.0,0.0,0.0,0.0,0.0,0.0,0.0,0.0,0.0,0.0,0.0,0.0,0.0,0.0,0.0,0.0,0.0,0.0,0.0,0.0,0.0,0.0,0.0,0.0,0.0,0.0,0.0,0.0,0.0,0.0,0.0,0.0,0.0,0.0,0.0,0.0,0.0,0.0,0.0,0.0,1.7603,2.042,2.2296,2.2296,2.2296,2.2296,2.2296,2.1181,1.9587,1.749,0.0,0.0,0.0,0.0,0.0,0.0,0.0,0.0,0.0,0.0,0.0,0.0,0.0,0.0,0.0,0.0,0.0,0.0,0.0,0.0,0.0,0.0,0.0,0.0,0.0,0.0,0.0,0.0,0.0,0.0,0.0,0.0,0.0,0.0,0.0,0.0,0.0,0.0,0.0,0.0,0.0,0.0,0.0,0.0,0.0,0.0,0.0,0.0,0.0,0.0,0.0,0.0,0.0,0.0,0.0,0.0,0.0,0.0,0.0,0.0,0.0,0.0,0.0,0.0,0.0,0.0,0.0,0.0,0.0,0.0,0.0,0.0,0.0,0.0,0.0,0.0,0.0,0.0,0.0,0.0,0.0,0.0,0.0,0.0,0.0,0.0,0.0,0.0,0.0,0.0,0.0,0.0,0.0,0.0,0.0,0.0,0.0,0.0,0.0,0.0,0.0,0.0,1.7592,2.042,2.2296,2.2296,2.2296,2.2296,2.2296,2.1617,1.9972,1.7088,0.0,0.0,0.0,0.0,0.0,0.0,0.0,0.0,0.0,0.0,0.0,0.0,0.0,0.0,0.0,0.0,0.0,0.0,0.0,0.0,0.0,0.0,0.0,0.0,0.0,0.0,0.0,0.0,0.0,0.0,0.0,0.0,0.0,0.0,0.0,0.0,0.0,0.0,0.0,0.0,0.0,0.0,0.0,0.0,0.0,0.0,0.0,0.0,0.0,0.0,0.0,0.0,0.0,0.0,0.0,0.0,0.0,0.0,0.0,0.0,2.2293,2.0903,0.0,0.0,0.0,0.0,0.0,0.0,0.0,0.0,0.0,0.0,0.0,0.0,0.0,0.0,0.0,0.0,0.0,0.0,0.0,0.0,0.0,0.0,0.0,0.0,0.0,0.0,0.0,0.0,0.0,0.0,0.0,0.0,0.0,0.0,0.0,0.0,0.0,0.0,0.0,0.0,1.7603,2.042,2.2296,2.2296,2.2296,2.2296,2.2296,2.1617,2.0412,1.855,1.6492,0.0,0.0,0.0,0.0,0.0,0.0,0.0,0.0,0.0,0.0,0.0,0.0,0.0,0.0,0.0,0.0,0.0,0.0,0.0,0.0,0.0,0.0,0.0,0.0,0.0,0.0,0.0,0.0,0.0,0.0,0.0,0.0,0.0,0.0,0.0,0.0,0.0,0.0,0.0,0.0,0.0,0.0,0.0,0.0,0.0,0.0,0.0,0.0,0.0,0.0,0.0,0.0,0.0,0.0,0.0,0.0,0.0,0.0,0.0,2.5609,2.4271,0.0,0.0,0.0,0.0,0.0,0.0,0.0,0.0,0.0,0.0,0.0,0.0,0.0,0.0,0.0,0.0,0.0,0.0,0.0,0.0,0.0,0.0,0.0,0.0,0.0,0.0,0.0,0.0,0.0,0.0,0.0,0.0,0.0,0.0,0.0,0.0,0.0,0.0,0.0,0.0,1.8149,2.064,2.2296,2.2296,2.2296,2.2296,2.2296,2.1955,2.1075,1.9524,1.7693,0.0,0.0,0.0,0.0,0.0,0.0,0.0,0.0,0.0,0.0,0.0,0.0,0.0,0.0,0.0,0.0,0.0,0.0,0.0,0.0,0.0,0.0,0.0,0.0,0.0,0.0,0.0,0.0,0.0,0.0,0.0,0.0,0.0,0.0,0.0,0.0,0.0,0.0,0.0,0.0,0.0,0.0,0.0,0.0,0.0,0.0,0.0,0.0,0.0,0.0,0.0,0.0,0.0,3.1833,3.2222,3.1985,3.275,3.3072,3.2903,2.9822,2.8824,2.9179,2.6556,0.0,0.0,0.0,0.0,0.0,0.0,0.0,0.0,0.0,0.0,0.0,0.0,0.0,0.0,0.0,0.0,0.0,0.0,0.0,0.0,0.0,0.0,2.2307,2.2919,2.3528,2.3088,1.9858,0.0,0.0,0.0,0.0,0.0,0.0,0.0,0.0,0.0,0.0,0.0,1.8894,2.0974,2.2296,2.2296,2.2296,2.2296,2.2296,2.2296,2.1705,2.0302,1.8932,1.758,0.0,0.0,0.0,0.0,0.0,0.0,0.0,0.0,0.0,0.0,0.0,0.0,0.0,0.0,0.0,0.0,0.0,0.0,0.0,0.0,0.0,0.0,0.0,0.0,0.0,0.0,0.0,0.0,0.0,0.0,0.0,0.0,2.3359,2.4847,0.0,0.0,0.0,0.0,0.0,0.0,0.0,0.0,0.0,0.0,0.0,0.0,0.0,2.9922,3.0734,3.2747,3.3491,3.3,3.5723,3.6332,3.5042,3.5825,3.622,3.6186,3.5678,0.0,3.0818,2.9786,0.0,0.0,0.0,0.0,0.0,0.0,0.0,0.0,0.0,0.0,0.0,0.0,0.0,0.0,0.0,0.0,0.0,0.0,0.0,0.0,0.0,0.0,2.6014,2.6099,2.6184,2.5947,2.4831,2.1924,1.8932,1.6824,1.6343,1.5791,0.0,0.0,0.0,0.0,0.0,0.0,1.9664,2.1282,2.2296,2.2296,2.2296,2.2296,2.2296,2.2296,2.1938,2.1106,2.02,1.9338,1.8488,1.6339,0.0,0.0,0.0,0.0,0.0,0.0,0.0,0.0,0.0,0.0,0.0,0.0,0.0,0.0,0.0,0.0,0.0,0.0,0.0,0.0,0.0,0.0,0.0,0.0,0.0,0.0,0.0,0.0,0.0,2.3644,2.5338,2.5575,2.6048,2.5862,0.0,0.0,0.0,0.0,0.0,0.0,0.0,0.0,0.0,3.1427,3.2188,3.3136,3.4341,3.5707,3.6671,3.7172,3.8497,3.9208,3.936,3.9292,3.9259,3.9242,3.8843,3.7506,3.5419,3.3406,3.1309,2.9245,0.0,0.0,0.0,0.0,2.7165,2.7334,2.8485,2.8874,2.8671,2.7419,0.0,0.0,0.0,0.0,0.0,0.0,0.0,2.4409,2.5559,2.659,2.7435,2.7893,2.7994,2.7774,2.6995,2.5542,2.3479,2.0433,1.9515,1.8618,1.6684,1.6346,0.0,0.0,0.0,2.0094,2.1164,2.2615,2.3376,2.297,2.2919,2.275,2.233,2.2296,2.2175,2.1837,2.1092,2.0534,2.0209,1.8432,1.6915,0.0,0.0,0.0,0.0,0.0,0.0,0.0,0.0,0.0,0.0,0.0,0.0,0.0,0.0,0.0,0.0,0.0,0.0,0.0,0.0,0.0,0.0,0.0,0.0,0.0,0.0,0.0,0.0,2.5879,2.7148,2.6776,2.8043,2.8078,0.0,0.0,0.0,0.0,0.0,0.0,3.0903,3.2019,3.3305,3.4793,3.5723,3.6857,3.82,3.8751,3.958,4.0654,4.0646,4.1247,4.2269,4.1728,4.1474,4.1457,4.0908,4.0248,3.9343,3.6518,3.4489,3.3038,3.1732,3.0768,3.0228,3.0954,3.1241,3.141,3.2696,3.3136,3.2919,3.1464,3.0601,2.9653,2.7013,0.0,0.0,0.0,0.0,2.7097,2.8568,2.8939,2.9161,2.9939,2.9974,2.9636,2.8856,2.8517,2.735,2.3818,2.2699,2.1681,1.9587,1.922,0.0,1.922,2.067,2.2037,2.2767,2.3831,2.4288,2.3731,2.3511,2.3173,2.2632,2.2398,2.2296,2.2296,2.1786,2.1478,2.1478,2.0209,1.8787,1.7281,0.0,0.0,0.0,0.0,0.0,0.0,0.0,0.0,0.0,0.0,0.0,0.0,0.0,0.0,0.0,0.0,0.0,0.0,0.0,0.0,0.0,0.0,0.0,0.0,0.0,0.0,0.0,0.0,0.0,2.9803,3.1173,0.0,0.0,0.0,0.0,2.9939,3.1292,3.2462,3.3203,3.5318,3.7202,3.8667,4.0104,4.1238,4.1999,4.2049,4.2117,4.2185,4.2185,4.2219,4.2286,4.2252,4.2236,4.2236,4.2202,4.1762,4.0916,3.8667,3.6817,3.5346,3.4573,3.3829,3.3271,3.3998,3.4269,3.4387,3.5182,3.543,3.5532,3.6203,3.4928,3.2899,3.1326,2.9871,0.0,0.0,2.9869,3.0226,3.1701,3.2073,3.2259,3.3,3.2628,3.1938,3.119,3.048,2.9093,2.6015,2.539,2.4898,2.3376,0.0,2.3122,2.3122,2.3207,2.356,2.4288,2.444,2.4491,2.444,2.3831,2.3376,2.3342,2.2699,2.2296,2.2296,2.2262,2.2229,2.2229,2.1512,2.0361,1.8821,1.6644,0.0,0.0,0.0,0.0,0.0,0.0,0.0,0.0,0.0,0.0,0.0,0.0,0.0,0.0,0.0,0.0,0.0,0.0,0.0,0.0,0.0,0.0,0.0,0.0,0.0,0.0,0.0,0.0,3.3487,3.4556,0.0,3.2716,3.278,3.3339,3.4358,3.5797,3.7127,3.8362,3.9631,4.0561,4.1102,4.1627,4.2016,4.2286,4.2286,4.254,4.3014,4.3014,4.3284,4.3768,4.325,4.3014,4.298,4.2506,4.2151,4.1847,4.1052,3.9563,3.777,3.7499,3.6941,3.6332,3.6586,3.6992,3.7364,3.7161,3.7398,3.7686,3.7032,3.5893,3.4721,3.418,3.3656,3.3305,3.3554,3.3305,3.3051,3.3596,3.3355,3.3068,3.3339,3.3203,3.2933,3.2679,3.2036,3.1055,2.9499,2.801,2.6539,2.5084,2.4831,2.4492,2.3528,2.4205,2.4915,2.5169,2.5609,2.5727,2.5253,2.4966,2.4425,2.3477,2.3156,2.2818,2.233,2.2296,2.2296,2.2296,2.2057,2.1431,2.0395,1.8635,1.6627,0.0,0.0,0.0,0.0,0.0,0.0,0.0,0.0,0.0,0.0,0.0,0.0,0.0,0.0,0.0,0.0,0.0,0.0,0.0,0.0,0.0,0.0,0.0,0.0,0.0,3.2662,3.4912,3.5893,3.7347,3.7584,3.5808,3.6315,3.7178,3.8217,3.9411,4.0527,4.1525,4.2269,4.2675,4.2675,4.2929,4.321,4.3436,4.3436,4.3826,4.4553,4.4299,4.4468,4.4925,4.4164,4.3809,4.3792,4.3284,4.2912,4.2675,4.2675,4.166,4.0087,3.9834,3.9292,3.8633,3.8633,3.8937,3.9317,3.8802,3.8954,3.9182,3.7946,3.7178,3.6698,3.6445,3.6377,3.6377,3.6377,3.6028,3.5639,3.5639,3.5098,3.4539,3.4539,3.415,3.3778,3.3778,3.3186,3.2527,3.2036,3.0125,2.8179,2.6962,2.6742,2.642,2.5439,2.6116,2.6657,2.637,2.6776,2.6793,2.6048,2.5761,2.5187,2.4239,2.368,2.319,2.2699,2.2431,2.2296,2.2296,2.2296,2.1823,2.0805,1.9058,1.745,1.596,0.0,0.0,0.0,0.0,0.0,0.0,0.0,0.0,0.0,0.0,0.0,0.0,0.0,0.0,0.0,0.0,0.0,0.0,0.0,0.0,0.0,0.0,0.0,3.2344,3.5001,3.6914,3.7032,3.9512,4.0409,3.8311,4.0003,4.1255,4.1305,4.1965,4.2388,4.2422,4.3132,4.3494,4.3494,4.4248,4.4993,4.5737,4.5737,4.6092,4.6786,4.6075,4.5737,4.572,4.4987,4.4632,4.4632,4.4615,4.4147,4.3426,4.3426,4.3014,4.2252,4.1525,4.0781,4.013,4.013,4.013,4.0096,4.0096,4.0096,3.9994,3.9259,3.9022,3.8903,3.8193,3.7973,3.7973,3.7973,3.7956,3.7939,3.7939,3.7381,3.6829,3.6829,3.5695,3.4556,3.4556,3.3964,3.344,3.344,3.1681,2.9973,2.9196,2.9044,2.9027,2.8993,2.8993,0.0,2.7942,2.7824,2.7536,2.681,2.6066,2.5609,2.5592,2.424,2.3412,2.3393,2.2716,2.2296,2.2296,2.2296,2.1586,2.0069,1.7912,1.6783,1.6733,0.0,0.0,0.0,0.0,0.0,0.0,0.0,0.0,0.0,0.0,0.0,0.0,0.0,0.0,0.0,0.0,0.0,0.0,0.0,0.0,0.0,3.2953,3.534,3.5526,3.7202,3.9419,4.2144,4.2168,4.2202,4.2692,4.2286,4.2455,4.3572,4.3853,4.4418,4.55,4.5754,4.5872,4.5872,4.6075,4.6278,4.6498,4.6498,4.6599,4.6786,4.6583,4.6498,4.6464,4.5737,4.5399,4.5365,4.4852,4.4479,4.4265,4.4265,4.3809,4.3031,4.2286,4.1542,4.0899,4.0899,4.0544,4.0096,4.0096,4.0096,4.0079,3.9859,3.9808,3.9757,3.9571,3.9503,3.9503,3.9503,3.9106,3.87,3.87,3.8142,3.7601,3.7601,3.688,3.6169,3.6169,3.5115,3.4201,3.4201,3.3271,3.2104,3.0801,3.0142,2.9617,2.9077,2.8993,2.8925,2.8687,2.8145,2.7722,2.7519,2.6535,2.5814,2.5627,2.4378,2.3562,2.3412,2.2716,2.2296,2.2296,2.2296,2.1854,2.0889,1.9693,1.856,0.0,0.0,0.0,0.0,0.0,0.0,0.0,0.0,0.0,0.0,0.0,0.0,0.0,0.0,0.0,0.0,0.0,0.0,0.0,0.0,0.0,0.0,3.6152,3.8623,3.9893,4.0823,4.2252,4.4756,4.4536,4.4536,4.5415,4.4705,4.4553,4.5432,4.5529,4.5889,4.6735,4.6786,4.6786,4.6786,4.6786,4.6938,4.7259,4.7259,4.7428,4.7716,4.7411,4.7259,4.7242,4.6498,4.616,4.6126,4.5365,4.5043,4.5026,4.4733,4.4316,4.3826,0.0,0.0,0.0,0.0,4.0933,4.051,4.0214,4.0096,4.0096,4.0096,4.0096,4.0096,4.0096,4.0096,4.0096,4.0096,3.9791,3.9469,3.9469,3.8903,3.8362,3.8362,3.7787,3.7161,3.688,3.6101,3.5351,3.503,3.437,0.0,3.273,3.1715,3.0768,3.0042,2.9924,2.9822,2.9517,2.9059,2.8652,2.8349,2.7196,2.649,2.6522,2.5063,0.0,0.0,0.0,2.2617,2.2313,2.2006,0.0,0.0,0.0,0.0,0.0,0.0,0.0,0.0,1.7473,1.6982,0.0,0.0,0.0,0.0,0.0,0.0,0.0,0.0,0.0,0.0,0.0,0.0,0.0,0.0,0.0,0.0,3.9097,4.1636,4.4564,4.4987,4.5196,4.5872,4.6447,4.6819,4.6904,4.6836,4.6819,4.6904,4.6921,4.6955,4.7039,4.7039,0.0,0.0,0.0,4.7361,4.8007,4.8007,4.8359,4.9001,4.8359,4.8007,4.799,4.7259,4.6921,4.687,4.6143,4.5821,4.5771,4.501,4.4682,4.453,4.3724,4.3014,4.232,4.1593,4.1322,4.1221,4.0485,0.0,0.0,4.013,4.0096,4.0096,4.0096,4.0096,4.0096,4.0096,4.0096,4.0096,4.0096,3.9622,3.9106,3.9106,3.8565,3.7838,3.7202,3.6981,3.6688,3.5887,3.5216,3.4692,3.4523,3.3359,3.2175,3.1427,3.1309,3.1055,3.0328,3.014,2.9854,2.9196,0.0,0.0,2.789,2.6095,2.4862,2.4685,2.389,2.318,2.2567,2.1921,2.1884,2.2533,2.1918,2.1901,2.255,2.255,2.255,2.2465,1.9058,1.8161,0.0,0.0,0.0,0.0,0.0,0.0,0.0,0.0,0.0,0.0,0.0,0.0,0.0,0.0,0.0,3.9046,4.1873,4.4564,4.6938,4.7276,4.7297,4.7449,4.7073,4.7022,4.7648,4.7141,4.7056,4.7618,4.7699,4.797,4.8545,4.8578,4.8578,4.8578,4.8578,4.8646,4.8798,4.8798,4.8866,4.9001,4.8866,0.0,4.8765,4.8037,4.7699,4.7665,4.6904,4.6583,4.6532,4.5788,4.5128,4.453,4.3724,4.3291,4.3115,4.2354,4.2083,4.1965,4.1238,4.0984,4.0882,4.0299,4.0096,4.0096,4.0096,4.0096,0.0,4.0096,4.0096,4.0096,4.0096,3.9994,3.9893,3.9893,3.9309,3.8751,3.8599,3.8108,3.7466,3.6705,3.6457,3.5966,3.4709,3.3761,3.2933,3.2209,3.209,3.1819,3.1072,3.048,3.0057,2.9905,2.8748,2.8187,2.8718,2.6929,2.575,2.5706,2.4414,2.3764,2.4069,2.3932,2.3932,2.4068,2.3932,2.3932,2.4068,2.4068,2.4068,2.4051,2.273,2.226,0.0,0.0,0.0,0.0,0.0,0.0,0.0,0.0,0.0,0.0,0.0,3.3423,3.5318,0.0,3.9851,4.2472,4.4468,4.621,4.7669,4.824,4.846,4.846,4.8139,4.8054,4.8426,4.8122,4.8054,4.8426,4.846,4.8612,4.8984,4.9001,4.9001,4.9001,4.9001,4.9001,4.9001,4.9001,4.9001,4.9001,4.9001,4.9001,4.8984,4.8629,4.846,4.8426,4.7682,4.7361,4.7293,4.6549,4.5821,4.5111,4.4722,4.4333,4.391,4.3132,4.2861,4.276,4.2016,4.1745,4.1627,4.0882,4.0646,4.0578,4.0214,4.0096,4.0096,4.0096,4.0096,4.0096,4.0096,4.0096,4.0096,4.0096,3.9825,3.9445,3.9073,3.87,3.8227,3.7483,3.7066,3.6558,3.5797,3.5013,3.4134,3.3017,3.2848,3.2577,3.1853,3.143,3.1055,3.0683,2.9518,2.8971,2.9495,2.7932,2.6901,2.6901,2.5497,2.4646,2.4646,2.4552,2.4365,2.4111,2.4365,2.4491,2.4491,2.4491,2.4694,2.5033,2.4661,2.4289,0.0,0.0,0.0,0.0,0.0,0.0,0.0,3.0939,3.1396,3.4489,3.5723,3.7144,4.018,4.1474,4.2929,4.55,4.6532,4.7276,4.802,4.8646,4.9001,4.9001,4.9001,4.9001,4.9001,4.9001,4.9001,4.9001,4.9001,4.9001,4.9001,4.9001,4.9001,4.9001,4.9001,4.9001,4.9001,4.9001,4.9001,4.9001,4.9001,4.9001,4.9001,4.9001,4.9001,4.8968,4.8392,4.8024,4.7838,4.7259,4.6583,4.5923,4.5923,4.5449,4.4705,4.3927,4.3639,4.3538,4.2777,4.2506,4.2388,4.1644,4.1407,4.1271,4.0553,4.0316,4.0282,4.0146,4.0096,4.0096,4.0096,4.0096,4.0096,4.0096,4.0096,3.9943,3.9326,3.9208,3.8988,3.8261,3.7618,3.7185,3.7049,3.6366,3.5334,3.3846,3.3609,3.3355,3.2615,3.2513,3.2242,3.1478,3.05,2.9935,3.0087,2.8883,2.8073,2.8043,2.6826,2.5949,2.5623,2.5347,2.4996,2.4559,2.4979,2.5209,2.5209,2.5323,2.5692,2.6268,2.6268,2.5862,3.2936,3.0567,2.9721,3.2171,3.1357,3.1715,0.0,3.7804,3.6948,4.0544,4.1897,4.2513,4.2936,4.4231,4.5517,4.6515,4.731,4.8037,4.8781,4.8951,4.9001,4.9001,4.9001,4.9001,4.9001,4.9001,4.9001,4.9001,4.9001,4.9001,4.9001,4.9001,4.9001,4.9001,4.9001,4.9001,4.9001,4.9001,4.9001,4.9001,4.9001,4.9001,4.9001,4.9001,4.9001,4.9001,4.8917,4.8528,4.7889,4.7804,4.7344,4.6667,4.6667,4.6227,4.55,4.4722,4.4479,4.4361,4.3555,4.3274,4.3139,4.2422,4.2168,4.2033,4.1305,4.1085,4.0933,4.0282,4.0096,4.0096,4.0096,4.0096,4.0096,4.0096,4.0096,4.0079,3.9994,3.9977,3.9757,3.9005,3.8802,3.8548,3.7889,3.7161,3.6129,3.4607,3.437,3.41,3.3372,3.3288,3.2983,3.2259,3.2067,3.1472,3.0207,2.9504,2.9062,2.8872,2.8269,2.8094,2.8513,2.799,2.7676,2.7619,2.7657,2.7696,2.7696,2.8233,2.8536,2.862,2.862,2.818,3.6745,3.5526,3.4996,3.5825,3.5656,3.6315,4.029,4.0257,4.029,4.3606,4.4519,4.501,4.5843,4.6536,4.7225,4.7953,4.8342,4.8663,4.8968,4.9001,4.8849,4.8426,4.8376,4.8545,4.8968,4.9001,4.9001,4.9001,4.9001,4.9001,4.9001,4.9001,4.9001,4.9001,4.9001,4.9001,4.9001,4.9001,4.9001,4.9001,4.9001,4.9001,4.9001,4.9001,4.9001,4.9001,4.9001,4.8832,4.8545,4.8545,4.8122,4.7445,4.7445,4.6989,4.6244,4.55,4.4987,4.4564,4.4215,4.4096,4.3961,4.32,4.2946,4.2811,4.2066,4.183,4.1677,4.095,4.073,4.0629,4.0214,4.0096,4.0096,4.0096,4.0096,4.0096,4.0096,4.0096,4.0011,3.9706,3.9276,3.8903,3.8582,3.7922,3.7212,3.6586,3.5723,3.4878,3.4134,3.4032,3.3761,3.3017,3.2933,3.251,3.1461,3.1183,3.0824,3.0311,2.9667,2.911,2.8664,2.8306,2.7958,2.764,2.7938,2.8112,2.8112,2.8345,2.8304,2.7958,2.8307,2.8527,3.8886,3.87,3.8717,3.8802,3.936,4.0341,4.2049,4.2455,4.3183,4.5788,4.6143,4.6397,4.7652,4.7889,4.8058,4.8612,4.8883,4.9001,4.9001,4.8832,4.8511,4.7939,4.7703,4.7817,4.8342,4.8578,4.8781,4.8984,4.9001,4.9001,4.9001,4.9187,4.9306,4.9306,4.9509,4.961,4.961,4.961,4.961,4.961,4.9407,4.9306,4.9306,4.9086,4.9001,4.9001,4.9001,4.9001,4.9001,4.9001,4.8697,4.8193,4.8193,4.7767,4.7039,4.6515,4.5703,4.4919,4.4919,4.4784,4.4513,4.3927,4.3741,4.3589,4.2828,4.2591,4.2455,4.1711,4.1508,4.1322,4.0578,4.0417,4.0367,4.0146,4.0096,4.0096,4.0096,4.0096,4.0096,4.0096,3.9673,3.9292,3.9292,3.8684,3.821,3.821,3.7094,3.5977,3.5216,3.4759,3.4303,3.3761,3.3525,3.3186,3.2666,3.2615,3.2395,3.1833,3.1309,3.0637,2.9809,2.9498,2.9136,2.8726,2.8919,2.9004,2.9004,2.9181,2.9024,2.8619,2.9045,2.9543,3.8142,3.7939,3.8447,4.0578,4.1644,4.2777,4.506,4.5568,4.6007,4.7517,4.7259,4.7005,4.7753,4.7889,4.7889,4.7922,4.8545,4.9001,4.9001,4.8392,4.7922,4.7889,4.7276,4.6836,4.6853,4.7513,4.824,4.8951,4.9001,4.9001,4.9001,4.9678,5.005,5.005,5.076,5.1117,5.1117,5.1117,5.1117,5.11,5.0405,5.005,5.0033,4.9323,4.9001,4.9001,4.9001,4.9001,4.9001,4.9001,4.8984,4.8968,4.8968,4.8528,4.7855,4.7838,4.6891,4.5669,4.5669,4.5196,4.4615,4.4581,4.4564,4.4401,4.3623,4.3358,4.3189,4.2472,4.2252,4.21,4.1356,4.117,4.0984,4.0282,4.0096,4.0096,4.0096,4.0096,4.0096,4.0096,4.0079,4.0079,4.0079,3.9445,3.8954,3.8954,3.8328,3.7567,3.6829,3.5424,3.4489,3.4455,3.3829,3.3389,3.3372,3.3372,3.3372,3.3339,3.3322,3.3284,3.3263,3.2685,3.2364,3.2341,3.1671,3.1292,3.1292,3.1892,3.2151,3.2151,3.2171,3.2188,3.9766,4.046,4.1356,4.3623,4.4384,4.501,4.6769,4.7175,4.728,4.7787,4.731,4.6718,4.6498,4.6447,4.6599,4.709,4.78,4.846,4.8934,4.8798,4.8274,4.7293,4.6955,4.6599,4.6126,4.6735,4.7479,4.8193,4.8291,4.8714,4.9678,4.9965,5.0321,5.0811,5.1082,5.1185,5.1185,5.1185,5.1185,5.12,5.0439,5.0084,5.0067,4.934,4.9001,4.9001,4.9001,4.9001,4.9001,4.9001,4.9001,4.9001,4.9001,4.8849,4.8646,4.8646,4.802,4.7039,4.6041,4.5551,4.5246,4.4767,4.4615,4.4564,4.4265,4.4198,4.4028,4.325,4.3031,4.2861,4.2117,4.1931,4.1728,4.1001,4.0832,4.0696,4.0214,4.0096,4.0096,4.0096,4.0096,4.0096,4.0096,3.9893,3.9571,3.9056,3.8379,3.7635,3.6897,3.6355,3.5808,3.5301,3.5008,3.4653,3.4167,3.4134,3.3914,3.344,3.3406,3.322,3.2818,3.2624,3.2496,3.2496,3.2248,3.2133,3.2133,3.2331,3.2221,3.1847,3.1785,3.1763,4.1407,4.254,4.3656,4.5923,4.6498,4.6819,4.8037,4.8075,4.7821,4.7564,4.6701,4.5771,4.5026,4.4671,4.4908,4.6194,4.6802,4.7564,4.8832,4.8545,4.7953,4.7276,4.6735,4.6312,4.6109,4.6278,4.6819,4.7804,4.8125,4.8832,5.0033,5.0338,5.0828,5.1589,5.1877,5.2029,5.2029,5.2029,5.1894,5.1606,5.1116,5.0744,5.0473,4.9729,4.939,4.9373,4.912,4.9001,4.9001,4.9001,4.9001,4.9001,4.9001,4.9001,4.9001,4.9001,4.8714,4.8139,4.6921,4.6312,4.5974,4.5213,4.4976,4.4925,4.4682,4.4615,4.4496,4.3978,4.3826,4.3656,4.2895,4.2692,4.2506,4.1779,4.139,4.1068,4.0595,4.0299,4.0096,4.0096,4.0096,4.0096,4.0096,4.0096,3.9943,3.9469,3.8988,3.8311,3.7313,3.7178,3.6891,3.6113,3.6028,3.5723,3.4962,3.4662,3.4438,3.4197,3.395,3.3757,3.3606,3.3606,3.3606,3.3606,3.3356,3.3206,3.3206,3.3206,3.3027,3.2629,3.259,3.2567,4.2936,4.4181,4.5359,4.7496,4.799,4.8189,4.8798,4.8392,4.7631,4.6786,4.5427,4.4096,4.3284,4.2591,4.2878,4.5162,4.5635,4.6481,4.8697,4.78,4.7158,4.7804,4.6667,4.6075,4.6735,4.621,4.6413,4.7838,4.8578,4.9306,5.0101,5.0862,5.1606,5.2334,5.3112,5.3501,5.3501,5.3501,5.3129,5.2367,5.2317,5.1944,5.1251,5.0439,5.0084,5.005,4.9323,4.9001,4.9001,4.9001,4.9001,4.9001,4.9001,4.9001,4.9001,4.9001,4.9001,4.89,4.8206,4.7479,4.6718,4.6007,4.5771,4.5618,4.4874,4.4666,4.4649,4.4615,4.4615,4.4429,4.3673,4.3443,4.3284,4.2523,4.1813,4.1305,4.1271,4.0663,4.0163,4.0163,4.013,4.0096,4.0096,4.0096,4.0096,4.0096,4.0096,3.9588,3.8142,3.7973,3.7669,3.6948,3.6863,3.6535,3.5769,3.5128,3.5018,3.5628,3.5031,3.4927,3.5515,3.5538,3.5538,3.5538,3.489,3.4556,3.4556,3.4556,3.4556,3.4556,3.4518,3.4496,4.5026,4.6887,4.8139,4.9255,4.9543,4.9306,4.8409,4.7614,4.6549,4.4671,4.2675,4.0865,3.9546,3.9597,4.0561,4.2794,4.4587,4.6481,4.8697,4.868,4.8308,4.7922,4.7551,4.7208,4.6836,4.7141,4.7733,4.8663,4.8392,4.9001,5.0828,5.1623,5.2384,5.3179,5.3399,5.3501,5.3501,5.3501,5.3399,5.3196,5.2587,5.2198,5.1978,5.0676,5.0084,5.005,4.9323,4.9001,4.9001,4.9001,4.9001,4.9001,4.9001,4.9001,4.9001,4.9001,4.9001,4.8984,4.8781,4.824,4.7513,4.6752,4.6515,4.638,4.5635,4.5415,4.5297,4.4767,4.4615,4.4564,4.4361,4.4282,4.4096,4.3318,4.2997,4.2692,4.2134,4.1441,4.0916,4.0916,4.0485,4.0096,4.0096,4.0096,4.0096,4.0096,4.0096,3.9774,3.8836,3.8717,3.8447,3.7702,3.7618,3.755,3.7324,3.7172,3.6895,3.6518,3.5821,3.5266,3.4864,3.4854,3.4854,3.4854,3.5177,3.5312,3.5312,3.5312,3.5312,3.5312,3.4814,3.4572,4.7022,4.8849,4.9999,5.0067,4.9847,4.9154,4.7344,4.6092,4.4587,4.1999,4.024,3.8599,3.6738,3.7297,3.8751,4.0976,4.3217,4.5602,4.8173,4.8528,4.8494,4.8409,4.8392,4.8359,4.8257,4.8612,4.9187,4.9915,4.9289,4.9695,5.1589,5.208,5.2672,5.3484,5.3501,5.3501,5.3501,5.3501,5.3501,5.3501,5.3044,5.2841,5.279,5.1606,5.0879,5.0541,4.9796,4.9306,4.9001,4.9001,4.9001,4.9001,4.9001,4.9001,4.9001,4.9001,4.9001,4.9001,4.9001,4.8731,4.8274,4.753,4.7293,4.7158,4.6413,4.6177,4.6024,4.528,4.5077,4.4993,4.4682,4.4615,4.4496,4.4028,4.3673,4.3274,4.2878,4.2202,4.1593,4.1271,4.0595,4.0096,4.0096,4.0096,4.0096,4.0096,4.0096,3.996,3.9554,3.9486,3.9191,3.8464,3.8379,3.8261,3.7939,3.7303,3.7028,3.7273,3.629,3.58,3.6052,3.5712,3.5506,3.5506,3.5583,3.5599,3.5599,3.5599,3.56,3.56,3.5207,3.5052,4.8866,5.0304,5.1183,5.0422,4.961,4.8392,4.6075,4.4147,4.1989,3.914,3.7736,3.6417,3.4421,3.5323,3.7151,3.9571,4.1813,4.4322,4.7449,4.7889,4.8193,4.9052,4.9154,4.9441,5.0168,5.0236,5.0541,5.1302,5.0744,5.0947,5.2232,5.2401,5.279,5.3484,5.3501,5.3501,5.3501,5.3501,5.3501,5.3501,5.3501,5.3501,5.3467,5.2672,5.1911,5.1166,5.0422,4.9678,4.9001,4.9001,4.9001,4.9001,4.9001,4.9001,4.9001,4.9001,4.9001,4.9001,4.9001,4.9001,4.89,4.8257,4.8041,4.7919,4.7175,4.6938,4.6786,4.6058,4.5788,4.5551,4.4891,4.4682,4.4615,4.4615,4.4062,4.3572,4.3572,4.298,4.2219,4.1491,4.0747,4.0248,4.0248,4.0163,4.0096,4.0096,4.0096,4.0096,4.0096,4.0096,3.9809,3.9067,3.9074,3.8845,3.8106,3.6976,3.6797,3.7969,3.6751,3.6545,3.7704,3.7078,3.6724,3.6724,3.6081,3.5744,3.5744,3.5756,3.5733,3.5733,3.5858,3.5904,5.0238,5.1454,5.1944,5.12,4.9999,4.8257,4.5415,4.2168,3.9089,3.6664,3.415,3.2239,3.185,3.2983,3.5131,3.8616,4.1035,4.3758,4.7382,4.7889,4.8409,4.9746,4.9898,5.0202,5.0947,5.1014,5.1336,5.2046,5.1995,5.2029,5.2283,5.2942,5.3365,5.3501,5.3501,5.3501,5.3501,5.3501,5.3501,5.3501,5.3501,5.3501,5.3467,5.2672,5.1911,5.1166,5.0422,4.9678,4.9001,4.9001,4.9001,4.9001,4.9001,4.9001,4.9001,4.9001,4.9001,4.9001,4.9001,4.9001,4.8984,4.8849,4.8815,4.868,4.7936,4.7733,4.7564,4.6819,4.6177,4.5669,4.5551,4.5043,4.4615,4.4615,4.4496,4.4384,4.4384,4.3775,4.2997,4.2252,4.1508,4.1018,4.1018,4.0493,4.0096,4.0096,4.0096,4.0096,4.0096,4.0096,3.98,3.9,3.9504,3.9572,3.8775,3.9096,3.9186,3.8836,3.8059,3.7425,3.7011,3.6852,3.6785,3.6785,3.6609,3.6492,3.6492,3.6504,3.6514,3.653,3.7203,3.7516,5.0828,5.2046,5.2655,5.1505,4.9782,4.7445,4.369,4.024,3.6975,3.3947,3.1884,3.0378,2.9583,3.1292,3.3541,3.5723,3.8616,4.188,4.5652,4.6515,4.7597,4.9813,5.0439,5.0963,5.1708,5.2164,5.2553,5.2909,5.2926,5.2926,5.2926,5.3298,5.3501,5.3501,5.3501,5.3501,5.3501,5.3501,5.3501,5.3501,5.3501,5.3501,5.3501,5.3112,5.2503,5.1758,5.1403,5.0608,4.956,4.956,4.9357,4.9001,4.9001,4.9001,4.9001,4.9001,4.9001,4.9001,4.9001,4.9001,4.9001,4.9001,4.9001,4.8934,4.8595,4.8477,4.8325,4.7581,4.7124,4.6769,4.638,4.572,4.5162,4.5162,4.4874,4.4615,4.4615,4.3961,4.3318,4.2946,4.2286,4.1762,4.1762,4.1153,4.0663,4.0663,4.0367,4.0096,4.0096,4.0096,3.9952,3.9584,3.9489,3.9315,3.8935,3.8897,3.89,3.8954,3.8642,3.8477,3.853,3.8122,3.7896,3.7896,3.7482,3.7275,3.7275,3.7302,3.7336,3.7336,3.7704,3.7905,5.098,5.2097,5.2723,5.1522,4.9292,4.6317,4.2151,3.8531,3.5081,3.1664,3.0108,2.9059,2.7993,2.9871,3.2039,3.3406,3.6383,3.9884,4.3775,4.5128,4.6735,4.9526,5.0659,5.1505,5.2232,5.3027,5.3501,5.3501,5.3501,5.3501,5.3501,5.3501,5.3501,5.3501,5.3501,5.3501,5.3501,5.3501,5.3501,5.3501,5.3501,5.3501,5.3501,5.3501,5.3061,5.23,5.23,5.1454,5.0084,5.0084,4.9661,4.9001,4.9001,4.9001,4.9001,4.9001,4.9001,4.9001,4.9001,4.9001,4.9001,4.9001,4.9001,4.9001,4.9001,4.9001,4.8883,4.8308,4.8007,4.7753,4.7192,4.6481,4.5906,4.5737,4.5263,4.4801,4.4632,4.4096,4.3673,4.3673,4.3047,4.254,4.254,4.1914,4.139,4.1221,4.0696,4.0282,4.013,4.0096,4.0096,4.0096,3.9516,3.9086,3.8908,3.8541,3.8541,3.9113,3.9166,3.9437,4.007,3.9489,3.9166,3.9166,3.8257,3.7898,3.8031,3.7935,3.7961,3.8126,3.8289,3.8289,5.0828,5.1286,5.1403,5.1251,4.8545,4.5077,4.1931,3.733,3.3051,3.07,2.8501,2.7165,2.7705,2.8619,3.0431,3.3829,3.5864,3.8514,4.2912,4.4773,4.6549,4.8832,5.0355,5.1505,5.2232,5.3027,5.3501,5.3501,5.3501,5.3501,5.3501,5.3501,5.3501,5.3501,5.3501,5.3501,5.3501,5.3501,5.3501,5.3501,5.3501,5.3501,5.3501,5.3501,5.3061,5.23,5.23,5.1454,5.0084,5.0084,4.9661,4.9001,4.9001,4.9001,4.9001,4.9001,4.9001,4.9001,4.9001,4.9001,4.9001,4.9001,4.9001,4.9001,4.9001,4.9001,4.8984,4.8934,4.8426,4.7872,4.7804,4.7259,4.6532,4.5872,4.5652,4.5415,4.475,4.4547,4.4496,4.4496,4.3859,4.3291,4.3291,4.2692,4.1965,4.1305,4.1136,4.0849,4.0197,4.0096,4.0096,4.0096,4.0045,3.9688,3.8962,3.9506,3.9901,3.9995,3.9995,4.002,4.0096,4.002,3.9995,3.9995,3.8531,3.8137,3.8782,3.8128,3.8151,3.8834,3.9555,3.9504,4.9492,5.0541,5.0997,5.0118,4.7784,4.4688,4.0764,3.6518,3.2662,2.9989,2.7977,2.6793,2.708,2.7774,2.9211,3.2036,3.341,3.5661,4.0121,4.166,4.3809,4.7868,4.9255,5.071,5.2824,5.3315,5.3501,5.3501,5.3501,5.3501,5.3501,5.3501,5.3501,5.3501,5.3501,5.3501,5.3501,5.3501,5.3501,5.3501,5.3501,5.3501,5.3501,5.3501,5.3331,5.3027,5.3027,5.2164,5.076,5.076,5.0067,4.9001,4.9001,4.9001,4.9001,4.9001,4.9001,4.9001,4.9001,4.9001,4.9001,4.9001,4.9001,4.9001,4.9001,4.9001,4.9001,4.9001,4.8798,4.8578,4.8578,4.802,4.7293,4.6532,4.6363,4.616,4.5415,4.5263,4.5128,4.4699,4.4333,4.4113,4.4113,4.3487,4.2878,4.2564,4.2151,4.1593,4.0849,4.0747,4.0578,4.0146,3.9662,3.9262,3.8935,3.9193,3.9368,3.9368,3.9833,4.0096,4.0096,4.0096,4.0096,4.0096,3.9506,3.9332,3.961,3.9332,3.9332,3.9636,3.9952,3.9927,4.8156,4.9272,4.9763,4.9154,4.7005,4.3961,3.9918,3.6096,3.256,2.9619,2.7774,2.6691,2.6691,2.73,2.8466,3.0531,3.185,3.4032,3.8091,3.9681,4.1948,4.6063,4.7445,4.912,5.1911,5.2993,5.3501,5.3501,5.3501,5.3501,5.3501,5.3501,5.3501,5.3501,5.3501,5.3501,5.3501,5.3501,5.3501,5.3501,5.3501,5.3501,5.3501,5.3501,5.3501,5.3501,5.3501,5.2638,5.1185,5.1185,5.0338,4.9001,4.9001,4.9001,4.9001,4.9001,4.9001,4.9001,4.9001,4.9001,4.9001,4.9001,4.9001,4.9001,4.9001,4.9001,4.9001,4.9001,4.9001,4.9001,4.9001,4.8612,4.8054,4.7293,4.7124,4.6921,4.6177,4.5855,4.5551,4.501,4.475,4.4615,4.4615,4.413,4.3673,4.3426,4.2963,4.2354,4.1627,4.1525,4.1238,4.0493,3.9919,3.9495,3.9279,3.9262,3.9262,3.9262,3.9782,4.0096,4.0096,4.0096,4.0096,4.0096,3.9876,3.9876,4.0096,3.9876,3.9876,4.0096,4.0096,4.0096,4.7094,4.7394,4.7192,4.8646,4.6194,4.2658,3.9681,3.6096,3.256,2.9619,2.7774,2.6691,2.6691,2.73,2.8314,2.9871,3.1968,3.4455,3.7483,3.9817,4.1762,4.3257,4.4807,4.6616,4.8832,5.1758,5.3501,5.3501,5.3501,5.3501,5.3501,5.3501,5.3501,5.3501,5.3501,5.3501,5.3501,5.3501,5.3501,5.3501,5.3501,5.3501,5.3501,5.3501,5.3501,5.3501,5.3501,5.2638,5.1185,5.1185,5.0338,4.9001,4.9001,4.9001,4.9001,4.9001,4.9001,4.9001,4.9001,4.9001,4.9001,4.9001,4.9001,4.9001,4.9001,4.9001,4.9001,4.9001,4.9001,4.9001,4.9001,4.9001,4.8798,4.8041,4.7872,4.7699,4.6938,4.621,4.5703,4.5703,4.5094,4.4615,4.4615,4.4598,4.4316,4.3511,4.3375,4.3132,4.2371,4.2286,4.1999,4.1271,4.1187,4.0882,4.0138,4.007,4.007,4.007,4.0113,4.0096,4.0096,4.0096,4.0096,4.0096,3.9315,3.9315,4.0096,3.9315,3.9315,4.0096,4.0096,4.0096,4.2929,4.3893,4.435,4.3809,4.2405,4.0214,3.6721,3.4218,3.1799,2.8805,2.7385,2.6691,2.6691,2.6894,2.8044,3.1106,3.2192,3.3863,3.7415,3.9817,4.2151,4.4671,4.8562,5.1319,5.2012,5.2942,5.3501,5.3501,5.3501,5.3501,5.3501,5.3501,5.3501,5.3501,5.3501,5.3501,5.3501,5.3501,5.3501,5.3501,5.3501,5.3501,5.3501,5.3501,5.3501,5.3501,5.3501,5.2638,5.1185,5.1185,5.0338,4.9052,4.9543,4.9441,4.912,5.0135,4.9881,4.9069,4.9576,4.9424,4.9001,4.9001,4.9001,4.9001,4.9001,4.9001,4.9001,4.9001,4.9001,4.9001,4.9001,4.9001,4.8951,4.8714,4.8663,4.846,4.7716,4.7378,4.6921,4.5906,4.5517,4.5179,4.4699,4.4615,4.4513,4.4248,4.4215,4.3944,4.3166,4.3064,4.2777,4.2033,4.1948,4.1441,4.0214,4.0096,4.0096,4.0096,4.0096,4.0096,4.0096,4.0096,4.0096,4.0096,3.9833,3.985,4.0096,3.9833,3.9833,4.0096,4.0096,4.0096,3.9715,4.1238,4.1999,4.1373,4.024,3.8422,3.5233,3.3136,3.1106,2.8365,2.7198,2.6691,2.6691,2.6928,2.7875,3.0209,3.1565,3.3326,3.6214,3.9022,4.2016,4.5314,4.956,5.2215,5.2215,5.2993,5.3501,5.3501,5.3501,5.3501,5.3501,5.3501,5.3501,5.3501,5.3501,5.3501,5.3501,5.3501,5.3501,5.3501,5.3501,5.3501,5.3501,5.3501,5.3501,5.3484,5.3179,5.235,0.0,5.0913,5.0084,4.9069,4.9796,4.9813,4.956,5.0777,5.0642,4.9915,5.0355,5.0219,4.9796,4.9509,4.9221,4.9001,4.9001,4.9001,4.9001,4.9001,4.9001,4.9001,4.9001,4.9001,4.9001,4.9001,4.9001,4.8883,4.8426,4.8091,4.7618,4.6718,4.6312,4.5872,4.5128,4.501,4.4936,4.4649,4.4615,4.4429,4.3927,4.3859,4.3572,4.2794,4.2726,4.2219,4.1044,4.0688,4.0536,4.0536,4.0265,4.0096,4.0096,4.0096,4.0096,4.0096,4.0096,4.0096,4.0096,4.0096,4.0096,4.0096,4.0096,4.0096,0.0,3.8945,3.9706,4.0324,3.8954,3.684,3.4607,3.251,0.0,2.8179,2.7182,2.6725,2.6826,2.7317,2.7824,2.8145,3.0548,3.2936,3.4506,3.8115,4.1931,4.5652,4.8612,5.0338,5.0338,5.2266,5.3501,5.3501,5.3501,5.3501,5.3501,5.3501,5.3501,5.3501,5.3501,5.3501,5.3501,5.3501,5.3501,5.3501,5.3501,5.3501,5.3501,5.345,5.3416,5.3365,5.257,5.1809,5.1082,5.0371,4.9661,4.9069,4.9796,5.005,5.0118,5.098,5.1217,5.115,5.1251,5.1251,5.1099,5.0338,4.9644,4.9069,4.9018,4.9001,4.9001,4.9001,4.9001,4.9001,4.9001,4.9001,4.9001,4.9001,4.9001,4.9001,4.9001,4.8477,4.7939,4.7906,4.7361,4.6633,4.5906,4.5788,4.5534,4.4801,4.4682,4.4666,4.4615,4.4615,4.4299,4.3589,4.3504,4.3217,4.2506,4.1728,4.1288,4.1288,4.0654,4.0231,4.018,4.018,4.0146,4.0096,4.0096,4.0096,4.0096,4.0096,4.0096,4.0096,4.0096,4.0096,3.1698,0.0,3.4037,3.3643,3.3152,3.2341,0.0,2.989,2.9027,2.73,2.6826,2.7063,2.8248,2.7638,2.8078,3.1529,3.2679,3.4066,3.6738,4.1779,4.638,4.9543,5.1572,5.2706,5.2706,5.3196,5.3501,5.3501,5.3501,5.3501,5.3501,5.3501,5.3501,5.3501,5.3501,5.3501,5.3501,5.3501,5.3501,5.3501,5.3501,5.3501,5.3484,5.2858,5.2587,5.2536,5.1792,5.1048,5.0338,5.0168,4.9661,4.9069,4.9796,4.9746,4.9475,5.1352,5.1336,5.0524,5.1657,5.1674,5.1099,5.0338,4.9965,4.9729,4.9171,4.9001,4.9001,4.9001,4.9001,4.9001,4.9001,4.9001,4.9001,4.9001,4.9001,4.9001,4.9001,4.8866,4.8578,4.799,4.7753,4.7411,4.6667,4.6532,4.6295,4.5551,4.5449,4.5229,4.4682,4.4615,4.453,4.4333,4.4316,4.4259,4.4073,4.2811,4.2033,4.2033,4.1863,4.1525,4.0967,4.0933,4.0679,4.0113,4.0096,4.0096,4.0096,4.0096,4.0096,4.0096,4.0096,4.0096,2.8433,3.0632,3.2696,3.2307,3.1952,3.1413,3.0279,2.9194,2.8112,2.6928,2.6691,2.7046,2.823,2.8061,2.8755,3.1884,3.3237,3.5436,3.9817,4.4401,4.8274,5.0881,5.257,5.3501,5.3501,5.3501,5.3501,5.3501,5.3501,5.3501,5.3501,5.3501,5.3501,5.3501,5.3501,5.3501,5.3501,5.3501,5.3501,5.3501,5.3501,5.3315,5.2942,5.2503,5.2131,5.1758,5.1031,5.0473,5.0067,4.9729,4.9357,4.9069,4.9796,5.0067,5.0202,5.1742,5.2029,5.1775,5.257,5.235,5.164,5.1234,5.0879,5.0541,5.0135,4.9779,4.9424,4.9103,4.9001,4.9001,4.9001,4.9001,4.9001,4.9001,4.9001,4.9001,4.9001,4.9001,4.8883,4.8494,4.8379,4.8189,4.7445,4.731,4.7056,4.6312,4.621,4.594,4.5196,4.5094,4.4976,4.4649,4.4615,4.4615,4.4615,4.3853,4.3183,4.2828,4.2489,4.2117,4.1711,4.1694,4.1356,4.0612,4.0595,4.0426,4.0096,4.0096,4.0096,4.0096,4.0096,4.0096,2.7114,3.0159,3.3119,3.2662,3.2239,3.1769,3.1021,2.9381,2.7807,2.7182,2.7046,2.7351,2.8297,2.8941,2.9941,3.1749,3.3998,3.7449,4.297,4.6232,4.8835,5.0931,5.257,5.3501,5.3501,5.3501,5.3501,5.3501,5.3501,5.3501,5.3501,5.3501,5.3501,5.3501,5.3501,5.345,5.3315,5.345,5.345,5.3315,5.3315,5.2909,5.2131,5.2012,5.1623,5.0997,5.0253,4.9915,4.9864,4.9255,4.9001,4.9069,4.9678,5.0388,5.1133,5.186,5.2638,5.3331,5.3467,5.3061,5.2469,5.2334,5.1894,5.1369,5.1219,5.076,5.0135,4.9509,4.9171,4.9001,4.9001,4.9001,4.9001,4.9001,4.9001,4.9001,4.9001,4.9001,4.9001,4.9001,4.9001,4.8798,4.8189,4.8058,4.7834,4.7073,4.6972,4.6701,4.5957,4.5872,4.5635,4.5004,4.4852,4.4784,4.4784,4.4666,4.4327,4.3639,4.2997,4.2591,4.2472,4.2354,4.1999,4.139,4.1373,4.1052,4.0451,4.0451,4.0451,4.0451,4.0451,4.0451,2.9059,3.0987,3.187,2.9294,2.9548,3.0243,2.9517,2.9077,2.879,2.8671,2.8654,2.9247,3.1244,3.121,3.1989,3.5391,3.8311,4.139,4.4874,4.7361,4.9424,5.0999,5.257,5.3501,5.3501,5.3501,5.3501,5.3501,5.3501,5.3501,5.3501,5.3501,5.3501,5.3501,5.3501,5.3179,5.2486,5.3162,5.3162,5.2486,5.2486,5.2097,5.1369,5.0727,5.0371,5.0219,4.9492,4.9171,4.9171,4.9052,4.9001,4.9018,4.912,4.961,5.0355,5.1116,5.1843,5.2587,5.3264,5.3416,5.3213,5.252,5.2232,5.2012,5.1403,5.1133,5.1014,5.0881,4.9965,4.9001,4.9001,4.9001,4.9001,4.9001,4.9001,4.9001,4.9001,4.9001,4.9001,4.9001,4.9001,4.8968,4.8849,4.8832,4.8595,4.7851,4.775,4.7479,4.6718,4.6616,4.6583,4.6464,4.5906,4.5534,4.5534,4.4942,4.4564,4.4429,4.4327,4.3927,4.324,4.2625,4.2236,4.2117,4.2117,4.2066,4.1948,4.1948,4.1948,4.1948,4.1948,4.1948,2.7977,2.9651,3.0869,2.9888,3.1072,3.2391,3.2056,3.1362,3.0905,3.1292,3.1376,3.1799,3.3241,3.3901,3.5441,3.9182,4.1931,4.4401,4.6599,4.846,5.0135,5.1623,5.2807,5.3501,5.3501,5.3501,5.3501,5.3501,5.3112,5.2858,5.2858,5.2486,5.2266,5.2266,5.2266,5.2097,5.1725,5.208,5.208,5.1725,5.1725,5.1336,5.0591,5.0253,4.9864,4.9492,4.9154,4.9001,4.9001,4.9001,4.9001,4.9001,4.9001,4.9695,5.0845,5.2012,5.2672,5.301,5.3382,5.3501,5.345,5.3078,5.2959,5.2892,5.2553,5.2147,5.1792,5.1792,5.1031,5.0101,4.9695,4.9593,4.9492,4.9086,4.9001,4.9001,4.9001,4.9001,4.9001,4.9001,4.9001,4.9001,4.9001,4.9001,4.8883,4.8562,4.8494,4.824,4.7496,4.7394,4.7242,4.6836,4.6498,4.6295,4.6295,4.5618,4.501,4.4632,4.4615,4.4418,4.4062,4.3707,4.3335,4.2912,4.2895,4.2692,4.2286,4.2286,4.2286,4.2286,4.2286,4.2286,2.7876,2.9161,3.0581,3.1495,3.2848,3.4117,3.4641,3.3766,3.3089,3.4015,3.4201,3.4421,3.5148,3.6846,3.908,4.2066,4.4621,4.6684,4.7986,4.9441,5.0845,5.2147,5.301,5.3501,5.3501,5.3501,5.3416,5.323,5.2655,5.2232,5.2046,5.1522,5.1185,5.1185,5.1185,5.1133,5.0947,5.0947,5.0947,5.0947,5.0947,5.0557,4.983,4.983,4.9526,4.9001,4.9001,4.9001,4.9001,4.9001,4.9001,4.9001,4.9001,4.9915,5.1371,5.2942,5.3501,5.3501,5.3501,5.3501,5.3501,5.3501,5.3501,5.3501,5.3501,5.3078,5.2587,5.2587,5.2181,5.1539,5.0591,5.0355,5.0168,4.9424,4.9255,4.9204,4.9035,4.9001,4.9001,4.9001,4.9001,4.9001,4.9001,4.9001,4.9001,4.9001,4.9001,4.8798,4.824,4.8173,4.7953,4.7378,4.7158,4.6989,4.6802,4.6278,4.5635,4.4919,4.4699,4.4615,4.4615,4.4615,4.4299,4.3707,4.369,4.3403,4.2855,4.2855,4.2855,4.2855,4.2855,4.2855,3.1345,3.1532,3.1461,3.2899,3.2848,3.3004,3.5042,3.4912,3.4759,3.6254,3.6558,3.6772,3.7516,3.9986,4.2219,4.3183,4.5793,4.8007,4.8815,5.0202,5.142,5.2215,5.301,5.3501,5.3501,5.3501,5.3196,5.2435,5.2334,5.2012,5.1336,5.1219,5.1185,5.1185,5.1185,5.0879,5.0185,5.0168,5.0168,5.0168,5.0168,4.9779,4.9086,4.9086,4.9052,4.9001,4.9001,4.9001,4.9001,4.9001,4.9001,4.9001,4.9001,4.9915,5.1371,5.2942,5.3501,5.3501,5.3501,5.3501,5.3501,5.3501,5.3501,5.3501,5.3501,5.3467,5.3416,5.3416,5.3382,5.2993,5.1522,5.1133,5.0947,5.0202,5.0016,4.9813,4.9154,4.9001,4.9001,4.9001,4.9001,4.9001,4.9001,4.9001,4.9001,4.9001,4.9001,4.8984,4.8934,4.8934,4.89,4.8849,4.824,4.7547,4.6853,4.6735,4.6397,4.5669,4.4976,4.4615,4.4615,4.4615,4.4581,4.4513,4.4513,4.4496,4.4445,4.4445,4.4445,4.4445,4.4445,4.4445,2.989,3.0378,3.0987,3.2933,3.388,3.4827,3.6614,3.7889,3.9089,4.0612,4.0899,4.0849,4.0663,4.232,4.3961,4.4722,4.6955,4.9018,5.0219,5.0862,5.1674,5.2909,5.3315,5.3315,5.2807,5.2756,5.2452,5.1674,5.12,5.0811,5.0524,5.0084,4.9847,4.9847,4.9847,4.9712,4.9424,4.9424,4.9424,4.9424,4.9424,4.9272,4.9001,4.9001,4.9001,4.9001,4.9001,4.9001,4.9001,4.9001,4.9001,4.9086,5.0016,5.0727,5.1371,5.2942,5.3501,5.3501,5.3501,5.3501,5.3501,5.3501,5.3501,5.3501,5.3501,5.3501,5.3501,5.3501,5.3501,5.3264,5.2181,5.1894,5.1708,5.0963,5.0794,5.071,5.0439,5.0388,5.0388,5.0388,5.0388,5.0236,4.9763,4.9678,4.9526,4.9069,4.9001,4.9001,4.9001,4.9001,4.9001,4.9001,4.8748,4.8291,4.7564,4.7496,4.7175,4.643,4.5686,4.506,4.4632,4.4615,4.4615,4.4615,4.4615,4.4615,4.4615,4.4615,4.4615,4.4615,4.4615,4.4615,2.9044,2.9533,3.0581,3.256,3.4353,3.6174,3.8447,4.0121,4.1694,4.342,4.3589,4.3267,4.2743,4.3707,4.4852,4.5585,4.7564,4.9441,5.0693,5.1065,5.1606,5.2655,5.2993,5.2807,5.2029,5.1961,5.1657,5.0913,5.0388,4.9982,4.9763,4.9272,4.9001,4.9001,4.9001,4.9001,4.9001,4.9001,4.9001,4.9001,4.9001,4.9001,4.9001,4.9001,4.9001,4.9001,4.9001,4.9001,4.9001,4.9001,4.9001,4.9154,5.0642,5.1185,5.1371,5.2942,5.3501,5.3501,5.3501,5.3501,5.3501,5.3501,5.3501,5.3501,5.3501,5.3501,5.3501,5.3501,5.3501,5.3382,5.2824,5.2689,5.2486,5.1742,5.1555,5.1488,5.1236,5.1185,5.1185,5.1185,5.1185,5.1048,5.0541,5.0439,5.0202,4.9458,4.9357,4.9255,4.9035,4.9001,4.9001,4.9001,4.9001,4.8798,4.8308,4.8257,4.7936,4.7192,4.6684,4.5957,4.4976,4.4942,4.4852,4.4615,4.4615,4.4615,4.4615,4.4615,4.4615,4.4615,4.4615,4.4615,2.9585,2.9533,3.0463,3.1955,3.3981,3.6614,4.0375,4.1238,4.188,4.4175,4.3995,4.3426,4.3409,4.4079,4.4869,4.5602,4.7564,4.9255,4.9982,5.0727,5.12,5.1185,5.1843,5.2012,5.1268,5.12,5.0896,5.0135,5.0084,4.9763,4.9035,4.9001,4.9001,4.9001,4.9001,4.9001,4.9001,4.9001,4.9001,4.9001,4.9001,4.9001,4.9001,4.9001,4.9001,4.9001,4.9001,4.9001,4.9001,4.9001,4.9001,4.9154,5.0642,5.1185,5.1371,5.2942,5.3501,5.3501,5.3501,5.3501,5.3501,5.3501,5.3501,5.3501,5.3501,5.3501,5.3501,5.3501,5.3501,5.3501,5.3501,5.3501,5.3298,5.2503,5.2317,5.2114,5.1403,5.1202,5.1202,5.1202,5.1202,5.1202,5.1202,5.1202,5.098,5.0219,5.0101,4.983,4.912,4.9001,4.9001,4.9001,4.9001,4.9001,4.9001,4.9001,4.8697,4.7939,4.7906,4.7259,4.5771,4.572,4.5365,4.4649,4.4615,4.4615,4.4615,4.4615,4.4615,4.4615,4.4615,4.4615,2.8636,2.9499,3.1224,3.2713,3.5943,3.9454,4.2124,4.3183,4.4215,4.6464,4.6329,4.5635,4.5128,4.5635,4.621,4.643,4.7885,4.9255,4.9982,5.0287,5.0625,5.115,5.1371,5.1251,5.049,5.0422,5.0118,4.9373,4.9323,4.9238,4.9018,4.9001,4.9001,4.9001,4.9001,4.9001,4.9001,4.9001,4.9001,4.9001,4.9001,4.9001,4.9001,4.9001,4.9001,4.9001,4.9001,4.9001,4.9001,4.9001,4.9001,4.9154,5.0642,5.1185,5.1371,5.2942,5.3501,5.3501,5.3501,5.3501,5.3501,5.3501,5.3501,5.3501,5.3501,5.3501,5.3501,5.3501,5.3501,5.3501,5.3501,5.3501,5.345,5.3213,5.3145,5.3078,5.2875,5.2824,5.2824,5.2824,5.2824,5.2655,5.208,5.1978,5.1725,5.0997,5.0879,5.0608,4.9864,4.9323,4.9001,4.9001,4.9001,4.9001,4.9001,4.9001,4.8917,4.8697,4.868,4.802,4.6532,4.6464,4.6363,4.6143,4.5635,4.5365,4.5365,4.4869,4.4615,4.4615,4.4615,4.4615,2.9311,3.0581,3.2577,3.4675,3.7669,4.0916,4.4045,4.5348,4.6363,4.8003,4.753,4.6752,4.6616,4.6701,4.6887,4.7192,4.824,4.9154,4.9593,4.9915,5.0152,5.0321,5.0591,5.0473,4.9729,4.9661,4.9475,4.9035,4.9001,4.9001,4.9001,4.9001,4.9001,4.9001,4.9001,4.9001,4.9001,4.9001,4.9001,4.9001,4.9001,4.9001,4.9001,4.9001,4.9001,4.9001,4.9001,4.9001,4.9001,4.9001,4.9001,4.912,5.0304,5.0947,5.1369,5.257,5.323,5.3501,5.3501,5.3501,5.3501,5.3501,5.3501,5.3501,5.3501,5.3501,5.3501,5.3501,5.3501,5.3501,5.3501,5.3501,5.3501,5.3501,5.3501,5.3501,5.3501,5.3501,5.3501,5.3501,5.3501,5.3348,5.2858,5.279,5.252,5.1758,5.1403,5.0947,5.0185,4.9712,4.9323,4.9035,4.9001,4.9001,4.9001,4.9001,4.9001,4.9001,4.9001,4.8595,4.7716,4.7394,4.7107,4.6802,4.6363,4.6143,4.6143,4.5669,4.5449,4.5449,4.5449,4.5449,3.0751,3.2171,3.4218,3.7161,3.9259,4.1721,4.5923,4.7479,4.8176,4.8866,4.7936,4.7208,4.7872,4.7462,4.7225,4.7872,4.8578,4.9001,4.9001,4.9576,4.9746,4.9086,4.9593,4.9729,4.9069,4.9001,4.9001,4.9001,4.9001,4.9001,4.9001,4.9001,4.9001,4.9001,4.9001,4.9001,4.9001,4.9001,4.9001,4.9001,4.9001,4.9001,4.9001,4.9001,4.9001,4.9001,4.9001,4.9001,4.9001,4.9001,4.9001,4.9069,4.9796,5.0557,5.1269,5.2029,5.2807,5.3501,5.3501,5.3501,5.3501,5.3501,5.3501,5.3501,5.3501,5.3501,5.3501,5.3501,5.3501,5.3501,5.3501,5.3501,5.3501,5.3501,5.3501,5.3501,5.3501,5.3501,5.3501,5.3501,5.3501,5.3501,5.3501,5.3501,5.3264,5.252,5.1792,5.1065,5.0388,5.0236,4.9932,4.9272,4.9137,4.9103,4.9103,4.9035,4.9001,4.9001,4.9001,4.9001,4.9001,4.8376,4.7682,4.7005,4.6921,4.6887,4.6887,4.6819,4.6786,4.6786,4.6786,4.6786,2.8821,3.1343,3.4844,3.7297,4.1221,4.506,4.7192,4.824,4.8815,4.8968,4.8748,4.8578,4.8731,4.8629,4.8578,4.8748,4.89,4.9001,4.9001,4.9137,4.9187,4.9018,4.9137,4.9171,4.9018,4.9001,4.9001,4.9001,4.9001,4.9001,4.9001,4.9001,4.9001,4.9001,4.9001,4.9001,4.9001,4.9001,4.9001,4.9001,4.9001,4.9001,4.9001,4.9001,4.9001,4.9001,4.9001,4.9001,4.9001,4.9001,4.9001,4.9069,4.9796,5.0557,5.1269,5.2029,5.2807,5.3501,5.3501,5.3501,5.3501,5.3501,5.3501,5.3501,5.3501,5.3501,5.3501,5.3501,5.3501,5.3501,5.3501,5.3501,5.3501,5.3501,5.3501,5.3501,5.3501,5.3501,5.3501,5.3501,5.3501,5.3501,5.3501,5.3501,5.345,5.3264,5.257,5.2012,5.1843,5.1319,5.0913,5.076,5.0202,4.9847,4.9847,4.9323,4.9001,4.9001,4.9001,4.9001,4.9001,4.8849,4.8697,4.8528,4.797,4.7682,4.7682,4.7073,4.6786,4.6786,4.6786,4.6786,3.0106,3.2692,3.591,3.9606,4.3403,4.6532,4.7635,4.8477,4.9001,4.9001,4.9001,4.9001,4.9001,4.9001,4.9001,4.9001,4.9001,4.9001,4.9001,4.9001,4.9001,4.9001,4.9001,4.9001,4.9001,4.9001,4.9001,4.9001,4.9001,4.9001,4.9001,4.9001,4.9001,4.9001,4.9001,4.9001,4.9001,4.9001,4.9001,4.9001,4.9001,4.9001,4.9001,4.9001,4.9001,4.9001,4.9001,4.9001,4.9001,4.9001,4.9001,4.9035,4.9424,5.0253,5.1236,5.164,5.252,5.3501,5.3501,5.3501,5.3501,5.3501,5.3501,5.3501,5.3501,5.3501,5.3501,5.3501,5.3501,5.3501,5.3501,5.3501,5.3501,5.3501,5.3501,5.3501,5.3501,5.3501,5.3501,5.3501,5.3501,5.3501,5.3501,5.3501,5.3501,5.3501,5.3145,5.2739,5.235,5.1961,5.1606,5.1251,5.0862,5.0642,5.0642,4.9949,4.9526,4.9526,4.9204,4.9001,4.9001,4.9001,4.9001,4.9001,4.8629,4.8443,4.8443,4.8037,4.7851,4.7851,4.7851,4.7851,3.1241,3.4083,3.7188,4.2158,4.5026,4.6836,4.7686,4.8392,4.8849,4.8984,4.9001,4.9001,4.9001,4.9001,4.9001,4.9001,4.9001,4.9001,4.9001,4.9001,4.9001,4.9001,4.9001,4.9001,4.9001,4.9001,4.9001,4.9001,4.9001,4.9001,4.9001,4.9001,4.9001,4.9001,4.9001,4.9001,4.9001,4.9001,4.9001,4.9001,4.9001,4.9001,4.9001,4.9001,4.9001,4.9001,4.9001,4.9001,4.9001,4.9001,4.9001,4.9001,4.9001,4.9915,5.1185,5.1185,5.2198,5.3501,5.3501,5.3501,5.3501,5.3501,5.3501,5.3501,5.3501,5.3501,5.3501,5.3501,5.3501,5.3501,5.3501,5.3501,5.3501,5.3501,5.3501,5.3501,5.3501,5.3501,5.3501,5.3501,5.3501,5.3501,5.3501,5.3501,5.3501,5.3501,5.3501,5.3264,5.2587,5.252,5.2283,5.1674,5.1488,5.1403,5.1403,5.071,5.0287,5.0287,4.9729,4.9323,4.9204,4.9187,4.9137,4.9001,4.9001,4.9001,4.9001,4.9001,4.9001,4.9001,4.9001,4.9001,2.7435,3.2493,3.8548,4.2412,4.4609,4.621,4.7597,4.7973,4.824,4.8883,4.9001,4.9001,4.9001,4.9001,4.9001,4.9001,4.9001,4.9001,4.9001,4.9001,4.9001,4.9001,4.9001,4.9001,4.9001,4.9001,4.9001,4.9001,4.9001,4.9001,4.9001,4.9001,4.9001,4.9001,4.9001,4.9001,4.9001,4.9001,4.9001,4.9001,4.9001,4.9001,4.9001,4.9001,4.9001,4.9001,4.9001,4.9001,4.9001,4.9001,4.9001,4.9001,4.9001,4.9915,5.1185,5.1185,5.2198,5.3501,5.3501,5.3501,5.3501,5.3501,5.3501,5.3501,5.3501,5.3501,5.3501,5.3501,5.3501,5.3501,5.3501,5.3501,5.3501,5.3501,5.3501,5.3501,5.3501,5.3501,5.3501,5.3501,5.3501,5.3501,5.3501,5.3501,5.3501,5.3501,5.3501,5.3467,5.3348,5.3348,5.3315,5.3213,5.257,5.2147,5.2147,5.1488,5.1065,5.1065,5.0948,5.0625,4.9965,4.9949,4.9644,4.9018,4.9001,4.9001,4.9001,4.9001,4.9001,4.9001,4.9001,4.9001,2.955,3.41,3.87,4.1982,4.3944,4.5348,4.643,4.7005,4.7496,4.824,4.8392,4.8528,4.8934,4.9001,4.9001,4.9001,4.9001,4.9001,4.9001,4.9001,4.9001,4.9001,4.9001,4.9001,4.9001,4.9001,4.9001,4.9001,4.9001,4.9001,4.9001,4.9001,4.9001,4.9001,4.9001,4.9001,4.9001,4.9001,4.9001,4.9001,4.9001,4.9001,4.9001,4.9001,4.9001,4.9001,4.9001,4.9001,4.9001,4.9001,4.9001,4.9001,4.9001,4.9915,5.1185,5.1185,5.2198,5.3501,5.3501,5.3501,5.3501,5.3501,5.3501,5.3501,5.3501,5.3501,5.3501,5.3501,5.3501,5.3501,5.3501,5.3501,5.3501,5.3501,5.3501,5.3501,5.3501,5.3501,5.3501,5.3501,5.3501,5.3501,5.3501,5.3501,5.3501,5.3501,5.3501,5.3501,5.3501,5.3501,5.3501,5.3501,5.3179,5.2976,5.2976,5.2266,5.1826,5.1826,5.1437,5.1065,5.0727,5.0727,5.0371,4.9627,4.9204,4.9001,4.9001,4.9001,4.9001,4.9001,4.9001,4.9001,3.0768,3.4201,3.7009,4.0341,4.2455,4.4012,4.5162,4.5838,4.6498,4.7445,4.7631,4.78,4.8342,4.8748,4.9001,4.9001,4.9001,4.9001,4.9001,4.9001,4.9001,4.9001,4.9001,4.9001,4.9001,4.9001,4.9001,4.9001,4.9001,4.9001,4.9001,4.9001,4.9001,4.9001,4.9001,4.9001,4.9001,4.9001,4.9001,4.9001,4.9001,4.9001,4.9001,4.9001,4.9001,4.9001,4.9001,4.9001,4.9001,4.9001,4.9001,4.9001,4.9001,4.9915,5.1185,5.1185,5.2198,5.3501,5.3501,5.3501,5.3501,5.3501,5.3501,5.3501,5.3501,5.3501,5.3501,5.3501,5.3501,5.3501,5.3501,5.3501,5.3501,5.3501,5.3501,5.3501,5.3501,5.3501,5.3501,5.3501,5.3501,5.3501,5.3501,5.3501,5.3501,5.3501,5.3501,5.3501,5.3501,5.3501,5.3501,5.3501,5.3501,5.3501,5.3501,5.2959,5.2604,5.2604,5.2097,5.1708,5.1505,5.1488,5.1133,5.0388,4.9661,4.9187,4.9001,4.9001,4.9001,4.9001,4.9001,4.9001,2.7994,3.0364,3.2611,3.7043,3.9766,4.1948,4.4175,4.4699,4.5139,4.6549,4.6853,4.6853,4.6904,4.8054,4.9001,4.9001,4.9001,4.9001,4.9001,4.9001,4.9001,4.9001,4.9001,4.9001,4.9001,4.9001,4.9001,4.9001,4.9001,4.9001,4.9001,4.9001,4.9001,4.9001,4.9001,4.9001,4.9001,4.9001,4.9001,4.9001,4.9001,4.9001,4.9001,4.9001,4.9001,4.9001,4.9001,4.9001,4.9001,4.9001,4.9001,4.9001,4.9001,4.9915,5.1185,5.1185,5.2198,5.3501,5.3501,5.3501,5.3501,5.3501,5.3501,5.3501,5.3501,5.3501,5.3501,5.3501,5.3501,5.3501,5.3501,5.3501,5.3501,5.3501,5.3501,5.3501,5.3501,5.3501,5.3501,5.3501,5.3501,5.3501,5.3501,5.3501,5.3501,5.3501,5.3501,5.3501,5.3501,5.3501,5.3501,5.3501,5.3501,5.3501,5.3501,5.3467,5.345,5.345,5.3399,5.3044,5.2283,5.2249,5.1911,5.1166,5.0422,4.9695,4.9001,4.9001,4.9001,4.9001,4.9001,4.9001,2.6843,2.8975,3.1343,3.4844,3.7415,3.9546,4.1314,4.2811,4.413,4.5162,4.5754,4.6244,4.6701,4.7225,4.7581,4.7581,4.8003,4.8308,4.8308,4.8714,4.9001,4.9001,4.8595,4.8308,4.8308,4.7868,4.7581,4.7581,4.7581,4.7581,4.7581,4.7581,4.7581,4.7581,4.8054,4.8528,4.9001,4.9001,4.9001,4.9001,4.9001,4.9001,4.9001,4.9001,4.9001,4.9001,4.9001,4.9001,4.9001,4.9001,4.9001,4.9001,4.9001,4.9915,5.1185,5.1185,5.2198,5.3501,5.3501,5.3501,5.3501,5.3501,5.3501,5.3501,5.3501,5.3501,5.3501,5.3501,5.3501,5.3501,5.3501,5.3501,5.3501,5.3501,5.3501,5.3501,5.3501,5.3501,5.3501,5.3501,5.3501,5.3501,5.3501,5.3501,5.3501,5.3501,5.3501,5.3501,5.3501,5.3501,5.3501,5.3501,5.3501,5.3501,5.3501,5.3501,5.3501,5.3501,5.3501,5.3365,5.3078,5.3078,5.2706,5.1928,5.1657,5.0913,4.9695,4.9238,4.9001,4.9001,4.9001,4.9001,2.5337,2.7232,2.9736,3.2949,3.4709,3.6502,3.9715,4.1035,4.2066,4.3826,4.4587,4.5162,4.5906,4.6041,4.621,4.6718,4.7208,4.7547,4.7547,4.7953,4.8257,4.8257,4.7834,4.7547,4.7547,4.709,4.6786,4.6786,4.6786,4.6786,4.6786,4.6786,4.6786,4.6786,4.7276,4.7885,4.8629,4.8646,4.8765,4.9001,4.9001,4.9001,4.9001,4.9001,4.9001,4.9001,4.9001,4.9001,4.9001,4.9001,4.9001,4.9001,4.9001,4.9915,5.1185,5.1185,5.2198,5.3501,5.3501,5.3501,5.3501,5.3501,5.3501,5.3501,5.3501,5.3501,5.3501,5.3501,5.3501,5.3501,5.3501,5.3501,5.3501,5.3501,5.3501,5.3501,5.3501,5.3501,5.3501,5.3501,5.3501,5.3501,5.3501,5.3501,5.3501,5.3501,5.3501,5.3501,5.3501,5.3501,5.3501,5.3501,5.3501,5.3501,5.3501,5.3501,5.3501,5.3501,5.3501,5.3501,5.3501,5.3501,5.3247,5.2706,5.2435,5.1826,5.0828,5.0101,4.961,4.9373,4.9373,4.9238,0.0,0.0,0.0,3.1193,3.1599,3.2814,3.9411,3.9292,3.8819,4.2496,4.3257,4.3555,4.4412,4.4564,4.5055,4.6481,4.6735,4.6752,4.6752,4.6786,4.6786,4.6786,4.6769,4.6752,4.6752,4.6735,4.6735,4.6735,4.6735,4.6735,4.6735,4.6735,4.6735,4.6752,4.6752,4.7124,4.7838,4.7872,4.8244,4.8968,4.8984,4.9001,4.9001,4.9001,4.9001,4.9001,4.9001,4.9001,4.9001,4.9001,4.9001,4.9001,4.9018,4.9932,5.1185,5.1202,5.2198,5.3501,5.3501,5.3501,5.3501,5.3501,5.3501,5.3501,5.3501,5.3501,5.3501,5.3501,5.3501,5.3501,5.3501,5.3501,5.3501,5.3501,5.3501,5.3501,5.3501,5.3501,5.3501,5.3501,5.3501,5.3501,5.3501,5.3501,5.3501,5.3501,5.3501,5.3501,5.3501,5.3501,5.3501,5.3501,5.3501,5.3501,5.3501,5.3501,5.3501,5.3501,5.3501,5.3501,5.3501,5.3501,5.3501,5.3501,5.2739,5.2334,5.2334,5.1589,5.0845,5.0118,5.0118,4.9746,2.3528,0.0,0.0,0.0,0.0,0.0,3.3169,3.432,3.5707,3.9445,4.0223,4.0933,4.3301,4.3741,4.4062,4.5055,4.5652,4.6007,4.6007,4.6464,4.6786,4.6786,4.6329,4.6007,4.6007,4.5517,4.5224,4.5224,4.5224,4.5224,4.5224,4.5224,4.5449,4.5991,4.6007,4.6363,4.7107,4.7648,4.799,4.8193,4.8748,4.9001,4.9001,4.9001,4.9001,4.9001,4.9001,4.9001,4.9001,4.9001,4.9001,4.9052,4.9593,5.0371,5.1252,5.1809,5.2638,5.3501,5.3501,5.3501,5.3501,5.3501,5.3501,5.3501,5.3501,5.3501,5.3501,5.3501,5.3501,5.3501,5.3501,5.3501,5.3501,5.3501,5.3501,5.3501,5.3501,5.3501,5.3501,5.3501,5.3501,5.3501,5.3501,5.3501,5.3501,5.3501,5.3501,5.3501,5.3501,5.3501,5.3501,5.3501,5.3501,5.3501,5.3501,5.3501,5.3501,5.3501,5.3501,5.3501,5.3501,5.3501,5.3501,5.3501,5.3281,5.3179,5.3179,5.186,5.1116,5.0913,5.0913,5.0794,2.4695,2.539,2.6674,2.7334,0.0,0.0,3.2104,3.2763,3.3812,3.8497,3.9462,4.0155,4.2506,4.2946,4.32,4.3961,4.4468,4.4874,4.5179,4.5602,4.5872,4.5872,4.5483,4.5229,4.5229,4.4869,4.4615,4.4615,4.4615,4.4615,4.4615,4.4615,4.4818,4.5229,4.5229,4.5585,4.6329,4.7073,4.7614,4.7889,4.8663,4.9001,4.9001,4.9001,4.9001,4.9001,4.9001,4.9001,4.9001,4.9001,4.9001,4.9069,4.9796,5.0557,5.1269,5.2029,5.2807,5.3501,5.3501,5.3501,5.3501,5.3501,5.3501,5.3501,5.3501,5.3501,5.3501,5.3501,5.3501,5.3501,5.3501,5.3501,5.3501,5.3501,5.3501,5.3501,5.3501,5.3501,5.3501,5.3501,5.3501,5.3501,5.3501,5.3501,5.3501,5.3501,5.3501,5.3501,5.3501,5.3501,5.3501,5.3501,5.3501,5.3501,5.3501,5.3501,5.3501,5.3501,5.3501,5.3501,5.3501,5.3501,5.3501,5.3501,5.3501,5.3501,5.3501,5.2604,5.1995,5.1657,5.132,5.1185,2.6674,2.7114,0.0,2.9565,2.801,0.0,3.3318,3.278,3.2628,3.8125,3.9225,3.974,4.1373,4.1745,4.2033,4.2665,4.2987,4.3504,4.4479,4.4615,4.4615,4.4615,4.4615,4.4615,4.4615,4.4615,4.4615,4.4615,4.4615,4.4615,4.4615,4.4615,4.4615,4.4615,4.4615,4.4891,4.5568,4.638,4.7124,4.777,4.8612,4.9001,4.9001,4.9001,4.9001,4.9001,4.9001,4.9001,4.9001,4.9001,4.9052,4.9204,4.9932,5.0676,5.1388,5.2164,5.2892,5.3501,5.3501,5.3501,5.3501,5.3501,5.3501,5.3501,5.3501,5.3501,5.3501,5.3501,5.3501,5.3501,5.3501,5.3501,5.3501,5.3501,5.3501,5.3501,5.3501,5.3501,5.3501,5.3501,5.3501,5.3501,5.3501,5.3501,5.3501,5.3501,5.3501,5.3501,5.3501,5.3501,5.3501,5.3501,5.3501,5.3501,5.3501,5.3501,5.3501,5.3501,5.3501,5.3501,5.3501,5.3501,5.3501,5.3501,5.3501,5.3501,5.3501,5.3501,5.3129,5.2418,5.1775,5.1471,2.9516,2.9871,3.0176,2.8635,2.9194,0.0,2.8687,2.9414,3.0987,3.3343,3.3833,3.4646,3.7371,3.8345,3.8819,3.8954,4.0476,4.232,4.4327,4.4615,4.4615,4.4615,4.4615,4.4615,4.4615,4.4615,4.4615,4.4615,4.4615,4.4615,4.4615,4.4615,4.4615,4.4615,4.4615,4.4682,4.479,4.6126,4.687,4.7022,4.8359,4.9001,4.9001,4.9001,4.9001,4.9001,4.9001,4.9001,4.9001,4.9001,4.9357,4.9949,5.071,5.1454,5.2181,5.2976,5.3365,5.3501,5.3501,5.3501,5.3501,5.3501,5.3501,5.3501,5.3501,5.3501,5.3501,5.3501,5.3501,5.3501,5.3501,5.3501,5.3501,5.3501,5.3501,5.3501,5.3501,5.3501,5.3501,5.3501,5.3501,5.3501,5.3501,5.3501,5.3501,5.3501,5.3501,5.3501,5.3501,5.3501,5.3501,5.3501,5.3501,5.3501,5.3501,5.3501,5.3501,5.3501,5.3501,5.3501,5.3501,5.3501,5.3501,5.3501,5.3501,5.3501,5.3501,5.3501,5.3416,5.3264,5.3129,5.3061,3.1596,3.1732,3.2019,3.0866,3.0632,0.0,0.0,2.9786,3.0395,3.3339,3.3068,3.3106,3.5723,3.6197,3.6586,3.7719,3.914,4.0764,4.2625,4.3217,4.3464,4.3464,4.3464,4.3616,4.3961,4.3995,4.4164,4.4581,4.4615,4.4615,4.4615,4.4615,4.4615,4.4615,4.4615,4.4615,4.4615,4.6041,4.6786,4.6802,4.8291,4.9001,4.9001,4.9001,4.9001,4.9001,4.9001,4.9001,4.9001,4.9001,4.9644,5.0693,5.1065,5.1657,5.2401,5.3213,5.3501,5.3501,5.3501,5.3501,5.3501,5.3501,5.3501,5.3501,5.3501,5.3501,5.3501,5.3501,5.3501,5.3501,5.3501,5.3501,5.3501,5.3501,5.3501,5.3501,5.3501,5.3501,5.3501,5.3501,5.3501,5.3501,5.3501,5.3501,5.3501,5.3501,5.3501,5.3501,5.3501,5.3501,5.3501,5.3501,5.3501,5.3501,5.3501,5.3501,5.3501,5.3501,5.3501,5.3501,5.3501,5.3501,5.3501,5.3501,5.3501,5.3501,5.3501,5.3501,5.3501,5.3501,5.3501,5.3501,3.3931,3.4015,3.4489,3.3626,3.2611,3.1952,0.0,0.0,0.0,3.3875,3.322,3.2628,3.4416,3.4269,3.4472,3.6315,3.7466,3.8548,3.9749,4.0679,4.1441,4.2016,4.2202,4.2523,4.3149,4.2946,4.3149,4.409,4.4039,4.409,4.4333,4.453,4.4615,4.4615,4.4615,4.4615,4.4615,4.6041,4.6786,4.6802,4.8291,4.9001,4.9001,4.9001,4.9001,4.9001,4.9001,4.9001,4.9018,4.9154,4.9999,5.1185,5.1185,5.1758,5.2604,5.3264,5.3501,5.3501,5.3501,5.3501,5.3501,5.3501,5.3501,5.3501,5.3501,5.3501,5.3501,5.3501,5.3501,5.3501,5.3501,5.3501,5.3501,5.3501,5.3501,5.3501,5.3501,5.3501,5.3501,5.3501,5.3501,5.3501,5.3501,5.3501,5.3501,5.3501,5.3501,5.3501,5.3501,5.3501,5.3501,5.3501,5.3501,5.3501,5.3501,5.3501,5.3501,5.3501,5.3501,5.3501,5.3501,5.3501,5.3501,5.3501,5.3501,5.3501,5.3501,5.3501,5.3501,5.3501,5.3501,5.3501,0.0,0.0,0.0,3.4387,3.5707,3.6502,3.0804,0.0,3.2493,3.1019,0.0,3.1393,3.1647,0.0,0.0,3.1918,3.3677,3.5064,3.5233,3.6524,3.8379,4.1018,4.1897,4.232,4.2405,4.1221,4.106,4.2455,4.1965,4.2168,4.346,4.4198,4.4615,4.4615,4.4615,4.4615,4.4615,4.6041,4.6786,4.6802,4.8291,4.9001,4.9001,4.9001,4.9001,4.9001,4.9001,4.9001,4.9052,4.9695,5.0456,5.1185,5.1185,5.2097,5.3382,5.3467,5.3501,5.3501,5.3501,5.3501,5.3501,5.3501,5.3501,5.3501,5.3501,5.3501,5.3501,5.3501,5.3501,5.3501,5.3501,5.3501,5.3501,5.3501,5.3501,5.3501,5.3501,5.3501,5.3501,5.3501,5.3501,5.3501,5.3501,5.3501,5.3501,5.3501,5.3501,5.3501,5.3501,5.3501,5.3501,5.3501,5.3501,5.3501,5.3501,5.3501,5.3501,5.3501,5.3501,5.3501,5.3501,5.3501,5.3501,5.3501,5.3501,5.3501,5.3501,5.3501,5.3501,5.3501,5.3501,5.3501,0.0,0.0,0.0,0.0,0.0,0.0,3.2493,0.0,3.1461,3.1376,0.0,0.0,0.0,0.0,0.0,0.0,3.2344,3.3224,3.3224,3.415,3.5774,3.8328,3.8125,3.8278,3.9614,3.9969,4.0713,4.2185,4.1204,4.139,4.3291,4.3724,4.4113,4.4598,4.4615,4.4615,4.4615,4.6041,4.6786,4.6802,4.8291,4.9001,4.9001,4.9001,4.9001,4.9001,4.9001,4.9001,4.9069,4.9796,5.0541,5.1251,5.1674,5.252,5.3501,5.3501,5.3501,5.3501,5.3501,5.3501,5.3501,5.3501,5.3501,5.3501,5.3501,5.3501,5.3501,5.3501,5.3501,5.3501,5.3501,5.3501,5.3501,5.3501,5.3501,5.3501,5.3501,5.3501,5.3501,5.3501,5.3501,5.3501,5.3501,5.3501,5.3501,5.3501,5.3501,5.3501,5.3501,5.3501,5.3501,5.3501,5.3501,5.3501,5.3501,5.3501,5.3501,5.3501,5.3501,5.3501,5.3501,5.3501,5.3501,5.3501,5.3501,5.3501,5.3501,5.3501,5.3501,5.3501,5.3501,5.3501,3.9073,0.0,0.0,0.0,0.0,0.0,0.0,0.0,0.0,0.0,0.0,0.0,0.0,0.0,0.0,0.0,0.0,3.2158,3.1752,3.1968,3.3102,3.5594,3.5419,3.5859,3.7719,3.8311,3.936,4.1238,4.0045,4.024,4.2665,4.3172,4.3673,4.4248,4.4496,4.4615,4.4615,4.6041,4.6786,4.6802,4.8291,4.9001,4.9001,4.9001,4.9001,4.9001,4.9001,4.9001,4.9069,5.0016,5.0727,5.1319,5.2249,5.2993,5.3501,5.3501,5.3501,5.3501,5.3501,5.3501,5.3501,5.3501,5.3501,5.3501,5.3501,5.3501,5.3501,5.3501,5.3501,5.3501,5.3501,5.3501,5.3501,5.3501,5.3501,5.3501,5.3501,5.3501,5.3501,5.3501,5.3501,5.3501,5.3501,5.3501,5.3501,5.3501,5.3501,5.3501,5.3501,5.3501,5.3501,5.3501,5.3501,5.3501,5.3501,5.3501,5.3501,5.3501,5.3501,5.3501,5.3501,5.3501,5.3501,5.3501,5.3501,5.3501,5.3501,5.3501,5.3501,5.3501,5.3501,5.3501,0.0,0.0,0.0,3.6732,0.0,0.0,0.0,0.0,3.4167,0.0,0.0,0.0,0.0,0.0,0.0,0.0,0.0,0.0,0.0,2.9567,3.0228,3.3169,3.5402,3.7049,3.7821,3.5943,3.591,3.887,3.7743,3.8176,4.1119,4.2615,4.3409,4.3426,4.4181,4.4615,4.4615,4.6041,4.6786,4.6802,4.8291,4.9001,4.9001,4.9001,4.9001,4.9001,4.9001,4.9001,4.912,5.0574,5.1168,5.1337,5.2875,5.3484,5.3501,5.3501,5.3501,5.3501,5.3501,5.3501,5.3501,5.3501,5.3501,5.3501,5.3501,5.3501,5.3501,5.3501,5.3501,5.3501,5.3501,5.3501,5.3501,5.3501,5.3501,5.3501,5.3501,5.3501,5.3501,5.3501,5.3501,5.3501,5.3501,5.3501,5.3501,5.3501,5.3501,5.3501,5.3501,5.3501,5.3501,5.3501,5.3501,5.3501,5.3501,5.3501,5.3501,5.3501,5.3501,5.3501,5.3501,5.3501,5.3501,5.3501,5.3501,5.3501,5.3501,5.3501,5.3501,5.3501,5.3501,5.3501,0.0,0.0,4.4198,3.9698,0.0,0.0,0.0,0.0,0.0,0.0,0.0,0.0,0.0,0.0,0.0,0.0,0.0,0.0,0.0,2.7519,2.7486,2.9447,3.2138,3.3732,3.3491,3.4539,3.5876,3.7438,3.7083,3.8099,4.1052,4.2134,4.2912,4.3375,4.4181,4.4852,4.5314,4.6295,4.7039,4.7547,4.8528,4.9001,4.9001,4.9001,4.9001,4.9001,4.9001,4.9272,4.9796,5.0794,5.1505,5.2046,5.3095,5.3501,5.3501,5.3501,5.3501,5.3501,5.3501,5.3501,5.3501,5.3501,5.3501,5.3501,5.3501,5.3501,5.3501,5.3501,5.3501,5.3501,5.3501,5.3501,5.3501,5.3501,5.3501,5.3501,5.3501,5.3501,5.3501,5.3501,5.3501,5.3501,5.3501,5.3501,5.3501,5.3501,5.3501,5.3501,5.3501,5.3501,5.3501,5.3501,5.3501,5.3501,5.3501,5.3501,5.3501,5.3501,5.3501,5.3501,5.3501,5.3501,5.3501,5.3501,5.3501,5.3501,5.3501,5.3501,5.3501,5.3501,5.3501,5.3501,4.5043,4.5686,0.0,4.1822,4.0891,0.0,3.591,0.0,3.7263,0.0,0.0,0.0,0.0,0.0,0.0,0.0,0.0,0.0,0.0,2.6015,2.6049,2.7249,2.9837,3.1732,3.2307,3.3152,3.4523,3.6643,3.6051,3.6992,4.024,4.161,4.2523,4.2997,4.4028,4.4942,4.5703,4.643,4.7175,4.7889,4.8663,4.9001,4.9001,4.9001,4.9001,4.9018,4.9272,4.9661,5.0168,5.1183,5.1877,5.2384,5.3196,5.3501,5.3501,5.3501,5.3501,5.3501,5.3501,5.3501,5.3501,5.3501,5.3501,5.3501,5.3501,5.3501,5.3501,5.3501,5.3501,5.3568,5.3822,5.389,5.3957,5.4228,5.4296,5.4296,5.4296,5.4296,5.4296,5.4296,5.4296,5.4296,5.4296,5.4059,5.3805,5.3551,5.3501,5.3501,5.3501,5.3501,5.3501,5.3501,5.3501,5.3501,5.3501,5.3501,5.3501,5.3501,5.3501,5.3501,5.3501,5.3501,5.3501,5.3501,5.3501,5.3501,5.3501,5.3501,5.3501,5.3501,5.3501,5.3501]}]]